[[{"header":{"parameterUnit":"m.s-1","parameterCategory":1,"la1":30.6,"la2":28.766,"lo1":-90.7593,"lo2":-88.6598,"dy":0.0162,"dx":0.0183,"nx":116,"ny":114,"refTime":"2023-07-20T12:00:00:Z","depth":0,"parameterNumber":2,"parameterNumberName":"U-component_of_WINDS"},"data":[0.0,0.0,0.0,0.0,0.0,0.0,0.0,0.0,0.0,0.0,0.0,0.0,0.0,0.0,0.0,0.0,0.0,0.0,0.0,0.0,0.0,0.0,0.0,0.0,0.0,0.0,0.0,0.0,0.0,0.0,0.0,0.0,0.0,0.0,0.0,0.0,0.0,0.0,0.0,0.0,0.0,0.0,0.0,0.0,0.0,0.0,0.0,0.0,0.0,0.0,0.0,0.0,0.0,0.0,0.0,0.0,0.0,0.0,0.0,0.0,0.0,0.0,0.0,0.0,0.0,0.0,0.0,0.0,0.0,0.0,0.0,0.0,0.0,0.0,0.0,0.0,0.0,0.0,0.0,0.0,0.0,0.0,0.0,0.0,0.0,0.0,0.0,0.0,0.0,0.0,0.0,0.0,0.0,0.0,0.0,0.0,0.0,0.0,0.0,0.0,0.0,0.0,0.0,0.0,0.0,0.0,0.0,0.0,0.0,0.0,0.0,0.0,0.0,0.0,0.0,0.0,0.0,0.0,0.0,0.0,0.0,0.0,0.0,0.0,0.0,0.0,0.0,0.0,0.0,0.0,0.0,0.0,0.0,0.0,0.0,0.0,0.0,0.0,0.0,0.0,0.0,0.0,0.0,0.0,0.0,0.0,0.0,0.0,0.0,0.0,0.0,0.0,0.0,0.0,0.0,0.0,0.0,0.0,0.0,0.0,0.0,0.0,0.0,0.0,0.0,0.0,0.0,0.0,0.0,0.0,0.0,0.0,0.0,0.0,0.0,0.0,0.0,0.0,0.0,0.0,0.0,0.0,0.0,0.0,0.0,0.0,0.0,0.0,0.0,0.0,0.0,0.0,0.0,0.0,0.0,0.0,0.0,0.0,0.0,0.0,0.0,0.0,0.0,0.0,0.0,0.0,0.0,0.0,0.0,0.0,0.0,0.0,0.0,0.0,0.0,0.0,0.0,0.0,0.0,0.0,0.0,0.0,0.0,0.0,0.0,0.0,0.0,0.0,0.0,0.0,0.0,0.0,0.0,0.0,0.0,0.0,0.0,0.0,0.0,0.0,0.0,0.0,0.0,0.0,0.0,0.0,0.0,0.0,0.0,0.0,0.0,0.0,0.0,0.0,0.0,0.0,0.0,0.0,0.0,0.0,0.0,0.0,0.0,0.0,0.0,0.0,0.0,0.0,0.0,0.0,0.0,0.0,0.0,0.0,0.0,0.0,0.0,0.0,0.0,0.0,0.0,0.0,0.0,0.0,0.0,0.0,0.0,0.0,0.0,0.0,0.0,0.0,0.0,0.0,0.0,0.0,0.0,0.0,0.0,0.0,0.0,0.0,0.0,0.0,0.0,0.0,0.0,0.0,0.0,0.0,0.0,0.0,0.0,0.0,0.0,0.0,0.0,0.0,0.0,0.0,0.0,0.0,0.0,0.0,0.0,0.0,0.0,0.0,0.0,0.0,0.0,0.0,0.0,0.0,0.0,0.0,0.0,0.0,0.0,0.0,0.0,0.0,0.0,0.0,0.0,0.0,0.0,0.0,0.0,0.0,0.0,0.0,0.0,0.0,0.0,0.0,0.0,0.0,0.0,0.0,0.0,0.0,0.0,0.0,0.0,0.0,0.0,0.0,0.0,0.0,0.0,0.0,0.0,0.0,0.0,0.0,0.0,0.0,0.0,0.0,0.0,0.0,0.0,0.0,0.0,0.0,0.0,0.0,0.0,0.0,0.0,0.0,0.0,0.0,0.0,0.0,0.0,0.0,0.0,0.0,0.0,0.0,0.0,0.0,0.0,0.0,0.0,0.0,0.0,0.0,0.0,0.0,0.0,0.0,0.0,0.0,0.0,0.0,0.0,0.0,0.0,0.0,0.0,0.0,0.0,0.0,0.0,0.0,0.0,0.0,0.0,0.0,0.0,0.0,0.0,0.0,0.0,0.0,0.0,0.0,0.0,0.0,0.0,0.0,0.0,0.0,0.0,0.0,0.0,0.0,0.0,0.0,0.0,0.0,0.0,0.0,0.0,0.0,0.0,0.0,0.0,0.0,0.0,0.0,0.0,0.0,0.0,0.0,0.0,0.0,0.0,0.0,0.0,0.0,0.0,0.0,0.0,0.0,0.0,0.0,0.0,0.0,0.0,0.0,0.0,0.0,0.0,0.0,0.0,0.0,0.0,0.0,0.0,0.0,0.0,0.0,0.0,0.0,0.0,0.0,0.0,0.0,0.0,0.0,0.0,0.0,0.0,0.0,0.0,0.0,0.0,0.0,0.0,0.0,0.0,0.0,0.0,0.0,0.0,0.0,0.0,0.0,0.0,0.0,0.0,0.0,0.0,0.0,0.0,0.0,0.0,0.0,0.0,0.0,0.0,0.0,0.0,0.0,0.0,0.0,0.0,0.0,0.0,0.0,0.0,0.0,0.0,0.0,0.0,0.0,0.0,0.0,0.0,0.0,0.0,0.0,0.0,0.0,0.0,0.0,0.0,0.0,0.0,0.0,0.0,0.0,0.0,0.0,0.0,0.0,0.0,0.0,0.0,0.0,0.0,0.0,0.0,0.0,0.0,0.0,0.0,0.0,0.0,0.0,0.0,0.0,0.0,0.0,0.0,0.0,0.0,0.0,0.0,0.0,0.0,0.0,0.0,0.0,0.0,0.0,0.0,0.0,0.0,0.0,0.0,0.0,0.0,0.0,0.0,0.0,0.0,0.0,0.0,0.0,0.0,0.0,0.0,0.0,0.0,0.0,0.0,0.0,0.0,0.0,0.0,0.0,0.0,0.0,0.0,0.0,0.0,0.0,0.0,0.0,0.0,0.0,0.0,0.0,0.0,0.0,0.0,0.0,0.0,0.0,0.0,0.0,0.0,0.0,0.0,0.0,0.0,0.0,0.0,0.0,0.0,0.0,0.0,0.0,0.0,0.0,0.0,0.0,0.0,0.0,0.0,0.0,0.0,0.0,0.0,0.0,0.0,0.0,0.0,0.0,0.0,0.0,0.0,0.0,0.0,0.0,0.0,0.0,0.0,0.0,0.0,0.0,0.0,0.0,0.0,0.0,0.0,0.0,0.0,0.0,0.0,0.0,0.0,0.0,0.0,0.0,0.0,0.0,0.0,0.0,0.0,0.0,0.0,0.0,0.0,0.0,0.0,0.0,0.0,0.0,0.0,0.0,0.0,0.0,0.0,0.0,0.0,0.0,0.0,0.0,0.0,0.0,0.0,0.0,0.0,0.0,0.0,0.0,0.0,0.0,0.0,0.0,0.0,0.0,0.0,0.0,0.0,0.0,0.0,0.0,0.0,0.0,0.0,0.0,0.0,0.0,0.0,0.0,0.0,0.0,0.0,0.0,0.0,0.0,0.0,0.0,0.0,0.0,0.0,0.0,0.0,0.0,0.0,0.0,0.0,0.0,0.0,0.0,0.0,0.0,0.0,0.0,0.0,0.0,0.0,0.0,0.0,0.0,0.0,0.0,0.0,0.0,0.0,0.0,0.0,0.0,0.0,0.0,0.0,0.0,0.0,0.0,0.0,0.0,0.0,0.0,0.0,0.0,0.0,0.0,0.0,0.0,0.0,0.0,0.0,0.0,0.0,0.0,0.0,0.0,0.0,0.0,0.0,0.0,0.0,0.0,0.0,0.0,0.0,0.0,0.0,0.0,0.0,0.0,0.0,0.0,0.0,0.0,0.0,0.0,0.0,0.0,0.0,0.0,0.0,0.0,0.0,0.0,0.0,0.0,0.0,0.0,0.0,0.0,0.0,0.0,0.0,0.0,0.0,0.0,0.0,0.0,0.0,0.0,0.0,0.0,0.0,0.0,0.0,0.0,0.0,0.0,0.0,0.0,0.0,0.0,0.0,0.0,0.0,0.0,0.0,0.0,0.0,0.0,0.0,0.0,0.0,0.0,0.0,0.0,0.0,0.0,0.0,0.0,0.0,0.0,0.0,0.0,0.0,0.0,0.0,0.0,0.0,0.0,0.0,0.0,0.0,0.0,0.0,0.0,0.0,0.0,0.0,0.0,0.0,0.0,0.0,0.0,0.0,0.0,0.0,0.0,0.0,0.0,0.0,0.0,0.0,0.0,0.0,0.0,0.0,0.0,0.0,0.0,0.0,0.0,0.0,0.0,0.0,0.0,0.0,0.0,0.0,0.0,0.0,0.0,0.0,0.0,0.0,0.0,0.0,0.0,0.0,0.0,0.0,0.0,0.0,0.0,0.0,0.0,0.0,0.0,0.0,0.0,0.0,0.0,0.0,0.0,0.0,0.0,0.0,0.0,0.0,0.0,0.0,0.0,0.0,0.0,0.0,0.0,0.0,0.0,0.0,0.0,0.0,0.0,0.0,0.0,0.0,0.0,0.0,0.0,0.0,0.0,0.0,0.0,0.0,0.0,0.0,0.0,0.0,0.0,0.0,0.0,0.0,0.0,0.0,0.0,0.0,0.0,0.0,0.0,0.0,0.0,0.0,0.0,0.0,0.0,0.0,0.0,0.0,0.0,0.0,0.0,0.0,0.0,0.0,0.0,0.0,0.0,0.0,0.0,0.0,0.0,0.0,0.0,0.0,0.0,0.0,0.0,0.0,0.0,0.0,0.0,0.0,0.0,0.0,0.0,0.0,0.0,0.0,0.0,0.0,0.0,0.0,0.0,0.0,0.0,0.0,0.0,0.0,0.0,0.0,0.0,0.0,0.0,0.0,0.0,0.0,0.0,0.0,0.0,0.0,0.0,0.0,0.0,0.0,0.0,0.0,0.0,0.0,0.0,0.0,0.0,0.0,0.0,0.0,0.0,0.0,0.0,0.0,0.0,0.0,0.0,0.0,0.0,0.0,0.0,0.0,0.0,0.0,0.0,0.0,0.0,0.0,0.0,0.0,0.0,0.0,0.0,0.0,0.0,0.0,0.0,0.0,0.0,0.0,0.0,0.0,0.0,0.0,0.0,0.0,0.0,0.0,0.0,0.0,0.0,0.0,0.0,0.0,0.0,0.0,0.0,0.0,0.0,0.0,0.0,0.0,0.0,0.0,0.0,0.0,0.0,0.0,0.0,0.0,0.0,0.0,0.0,0.0,0.0,0.0,0.0,0.0,0.0,0.0,0.0,0.0,0.0,0.0,0.0,0.0,0.0,0.0,0.0,0.0,0.0,0.0,0.0,0.0,0.0,0.0,0.0,0.0,0.0,0.0,0.0,0.0,0.0,0.0,0.0,0.0,0.0,0.0,0.0,0.0,0.0,0.0,0.0,0.0,0.0,0.0,0.0,0.0,0.0,0.0,0.0,0.0,0.0,0.0,0.0,0.0,0.0,0.0,0.0,0.0,0.0,0.0,0.0,0.0,0.0,0.0,0.0,0.0,0.0,0.0,0.0,0.0,0.0,0.0,0.0,0.0,0.0,0.0,0.0,0.0,0.0,0.0,0.0,0.0,0.0,0.0,0.0,0.0,0.0,0.0,0.0,0.0,0.0,0.0,0.0,0.0,0.0,0.0,0.0,0.0,0.0,0.0,0.0,0.0,0.0,0.0,0.0,0.0,0.0,0.0,0.0,0.0,0.0,0.0,0.0,0.0,0.0,0.0,0.0,0.0,0.0,0.0,0.0,0.0,0.0,0.0,0.0,0.0,0.0,0.0,0.0,0.0,0.0,0.0,0.0,0.0,0.0,0.0,0.0,0.0,0.0,0.0,0.0,0.0,0.0,0.0,0.0,0.0,0.0,0.0,0.0,0.0,0.0,0.0,0.0,0.0,0.0,0.0,0.0,0.0,0.0,0.0,0.0,0.0,0.0,0.0,0.0,0.0,0.0,0.0,0.0,0.0,0.0,0.0,0.0,0.0,0.0,0.0,0.0,0.0,0.0,0.0,0.0,0.0,0.0,0.0,0.0,0.0,0.0,0.0,0.0,0.0,0.0,0.0,0.0,0.0,0.0,0.0,0.0,0.0,0.0,0.0,0.0,0.0,0.0,0.0,0.0,0.0,0.0,0.0,0.0,0.0,0.0,0.0,0.0,0.0,0.0,0.0,0.0,0.0,0.0,0.0,0.0,0.0,0.0,0.0,0.0,0.0,0.0,0.0,0.0,0.0,0.0,0.0,0.0,0.0,0.0,0.0,0.0,-1.4497,0.0,0.0,0.0,0.0,0.0,0.0,0.0,0.0,0.0,0.0,0.0,0.0,0.0,0.0,0.0,0.0,0.0,0.0,0.0,0.0,0.0,0.0,0.0,0.0,0.0,0.0,0.0,0.0,0.0,0.0,0.0,0.0,0.0,0.0,0.0,0.0,0.0,0.0,0.0,0.0,0.0,0.0,0.0,0.0,0.0,0.0,0.0,0.0,0.0,0.0,0.0,0.0,0.0,0.0,0.0,0.0,0.0,0.0,0.0,0.0,0.0,0.0,0.0,0.0,0.0,0.0,0.0,0.0,0.0,0.0,0.0,0.0,0.0,0.0,0.0,0.0,0.0,0.0,0.0,0.0,0.0,0.0,0.0,0.0,0.0,0.0,0.0,0.0,0.0,0.0,0.0,0.0,0.0,0.0,0.0,0.0,0.0,0.0,0.0,0.0,0.0,0.0,0.0,0.0,0.0,0.0,0.0,0.0,0.0,0.0,0.0,0.0,0.0,0.0,0.0,0.0,-1.5193,0.0,0.0,0.0,0.0,0.0,0.0,0.0,0.0,0.0,0.0,0.0,0.0,0.0,0.0,0.0,0.0,0.0,0.0,0.0,0.0,0.0,0.0,0.0,0.0,0.0,0.0,0.0,0.0,0.0,0.0,0.0,0.0,0.0,0.0,0.0,0.0,0.0,0.0,0.0,0.0,0.0,0.0,0.0,0.0,0.0,0.0,0.0,0.0,0.0,0.0,0.0,0.0,0.0,0.0,0.0,0.0,0.0,0.0,0.0,0.0,0.0,0.0,0.0,0.0,0.0,0.0,0.0,0.0,0.0,0.0,0.0,0.0,0.0,0.0,0.0,0.0,0.0,0.0,0.0,0.0,0.0,0.0,0.0,0.0,0.0,0.0,0.0,0.0,0.0,0.0,0.0,0.0,0.0,0.0,0.0,0.0,0.0,0.0,0.0,0.0,0.0,0.0,0.0,0.0,0.0,0.0,0.0,0.0,-1.4381,-1.4809,-1.6775,-1.6171,-1.6594,-1.7897,-1.7101,-1.6522,-1.6218,-1.7069,0.0,0.0,0.0,0.0,0.0,0.0,0.0,0.0,0.0,0.0,0.0,0.0,0.0,0.0,0.0,0.0,0.0,0.0,0.0,0.0,0.0,0.0,0.0,0.0,0.0,0.0,0.0,0.0,0.0,0.0,0.0,0.0,0.0,0.0,0.0,0.0,0.0,0.0,-0.6681,-0.7109,-0.7441,-0.7658,-0.7577,0.0,0.0,0.0,0.0,0.0,0.0,0.0,0.0,0.0,0.0,0.0,0.0,0.0,0.0,0.0,0.0,0.0,0.0,0.0,0.0,0.0,0.0,0.0,0.0,0.0,0.0,0.0,0.0,0.0,0.0,0.0,0.0,0.0,0.0,0.0,0.0,0.0,0.0,0.0,0.0,0.0,0.0,0.0,-0.7197,-0.7688,0.0,0.0,0.0,0.0,0.0,0.0,0.0,0.0,0.0,0.0,0.0,0.0,0.0,-1.0288,-1.1804,-1.0997,-1.2009,-1.4586,-1.4444,-1.5231,-1.6787,-1.7621,-1.9182,-2.1174,-2.1006,0.0,-1.7375,-1.802,0.0,0.0,0.0,0.0,0.0,0.0,0.0,0.0,0.0,0.0,0.0,0.0,0.0,0.0,0.0,0.0,0.0,0.0,0.0,0.0,0.0,0.0,0.0,0.0,0.0,0.0,0.0,0.0,0.0,0.0,0.0,0.0,0.0,0.0,0.0,0.0,-0.6478,-0.679,-0.7088,-0.7448,-0.7821,-0.8194,-0.8303,-0.8323,-0.8262,-0.8147,0.0,0.0,0.0,0.0,0.0,0.0,0.0,0.0,0.0,0.0,0.0,0.0,0.0,0.0,0.0,0.0,0.0,0.0,0.0,0.0,0.0,0.0,0.0,0.0,0.0,0.0,0.0,0.0,0.0,0.0,0.0,0.0,0.0,0.0,0.0,0.0,0.0,0.0,0.0,-0.7231,-0.7536,-0.759,-0.842,-0.9029,0.0,0.0,0.0,0.0,0.0,0.0,0.0,0.0,0.0,-1.1413,-1.0463,-1.0287,-1.1202,-1.2367,-1.4257,-1.6619,-1.726,-1.8484,-2.0203,-2.1012,-2.1835,-2.2973,-2.3915,-2.3909,-2.309,-2.1176,-1.9867,-1.8853,0.0,0.0,0.0,0.0,-1.817,-1.845,0.0,0.0,0.0,0.0,0.0,0.0,0.0,0.0,0.0,0.0,0.0,0.0,0.0,0.0,0.0,-0.5864,0.0,0.0,0.0,0.0,0.0,0.0,0.0,0.0,0.0,0.0,0.0,0.0,-0.6898,-0.7272,-0.7611,-0.7943,-0.8343,-0.8784,-0.9049,-0.8981,-0.8662,-0.8621,-0.8343,0.0,0.0,0.0,0.0,0.0,0.0,0.0,0.0,0.0,0.0,0.0,0.0,0.0,0.0,0.0,0.0,0.0,0.0,0.0,0.0,0.0,0.0,0.0,0.0,0.0,0.0,0.0,0.0,0.0,0.0,0.0,0.0,0.0,0.0,0.0,0.0,0.0,0.0,-0.7495,-0.7719,-0.7611,-0.8099,-0.8364,0.0,0.0,0.0,0.0,0.0,0.0,-1.2627,-1.135,-1.0958,-1.1841,-1.1304,-1.133,-1.2109,-1.4339,-1.6582,-1.8953,-2.0259,-2.1715,-2.3312,-2.4158,-2.4726,-2.4972,-2.6307,-2.723,-2.7449,-2.441,-2.2522,-2.141,-2.0429,-1.984,-1.9733,-1.9867,-2.0027,-2.0227,0.0,0.0,0.0,0.0,0.0,0.0,0.0,0.0,0.0,0.0,0.0,0.0,0.0,0.0,-0.6659,-0.6455,-0.6458,-0.6525,0.0,0.0,0.0,0.0,0.0,0.0,0.0,0.0,0.0,-0.7095,-0.7414,-0.7794,-0.8235,-0.8676,-0.9123,-0.9557,-0.9707,-0.9768,-0.9707,-0.915,-0.8899,-0.8818,0.0,0.0,0.0,0.0,0.0,0.0,0.0,0.0,0.0,0.0,0.0,0.0,0.0,0.0,0.0,0.0,0.0,0.0,0.0,0.0,0.0,0.0,0.0,0.0,0.0,0.0,0.0,0.0,0.0,0.0,0.0,0.0,0.0,0.0,0.0,0.0,0.0,0.0,0.0,-0.7597,-0.837,0.0,0.0,0.0,0.0,-1.111,-1.1577,-1.1938,-1.2166,-1.2572,-1.2429,-1.1667,-1.1965,-1.3457,-1.6102,-1.6324,-1.7907,-2.0447,-2.261,-2.3892,-2.4556,-2.6607,-2.7622,-2.7901,-2.807,-2.7896,-2.762,-2.6608,-2.52,-2.3707,-2.2055,-2.1603,-2.1804,-2.1537,-2.179,-2.2231,0.0,0.0,0.0,0.0,0.0,0.0,0.0,0.0,0.0,0.0,0.0,0.0,0.0,-0.6653,-0.6713,-0.7087,-0.7224,-0.736,-0.7414,0.0,0.0,0.0,0.0,0.0,0.0,0.0,-0.7278,-0.757,-0.797,-0.8397,-0.8845,-0.9103,-0.9408,-0.9754,-1.0005,-1.0168,-1.0222,-0.972,-0.934,-0.9035,-0.8526,-0.814,0.0,0.0,0.0,0.0,0.0,0.0,0.0,0.0,0.0,0.0,0.0,0.0,0.0,0.0,0.0,0.0,0.0,0.0,0.0,0.0,0.0,0.0,0.0,0.0,0.0,0.0,0.0,0.0,0.0,0.0,0.0,0.0,0.0,0.0,0.0,0.0,0.0,-0.8797,-0.9198,0.0,-0.9632,-0.9788,-1.0183,-1.0695,-1.1293,-1.174,-1.1949,-1.2611,-1.2852,-1.2752,-1.3017,-1.4401,-1.6973,-1.8653,-2.066,-2.3177,-2.5533,-2.6749,-2.6955,-2.764,-2.8043,-2.8136,-2.8136,-2.8083,-2.7909,-2.7418,-2.652,-2.5375,-2.4367,-2.3768,-2.3674,-2.3581,-2.3661,-2.3861,0.0,0.0,0.0,0.0,0.0,0.0,0.0,0.0,0.0,0.0,0.0,-0.627,-0.6533,-0.6556,-0.7084,-0.8266,-0.8013,-0.8042,-0.8637,0.0,0.0,0.0,0.0,0.0,0.0,-0.8018,-0.8268,-0.8038,-0.9166,-0.9507,-0.9313,-1.009,-1.0357,-1.0053,-1.0263,-1.0812,-1.1445,-1.1121,-1.0315,-0.934,-0.8893,-0.8648,-0.8486,0.0,0.0,0.0,0.0,0.0,0.0,0.0,0.0,0.0,0.0,0.0,0.0,0.0,0.0,0.0,0.0,0.0,0.0,0.0,0.0,0.0,0.0,0.0,0.0,0.0,0.0,0.0,0.0,0.0,0.0,0.0,0.0,0.0,0.0,0.0,-0.9706,-0.9655,-1.0046,-1.0412,-1.0561,-1.0765,-1.0941,-1.109,-1.1701,-1.2155,-1.2352,-1.2929,-1.37,-1.4784,-1.4946,-1.66,-1.9769,-2.1439,-2.3393,-2.5793,-2.7356,-2.8136,-2.8136,-2.8136,-2.8136,-2.8136,-2.8136,-2.8136,-2.8123,-2.7923,-2.7442,-2.6747,-2.5972,-2.5491,-2.5211,-2.5117,-2.5144,-2.5237,0.0,0.0,0.0,0.0,0.0,0.0,0.0,0.0,0.0,0.0,-0.6416,-0.6173,-0.6388,-0.6694,-0.7767,-1.0095,-0.8863,-0.8615,-1.0348,-0.8389,0.0,0.0,0.0,0.0,-0.8488,-0.9614,-0.976,-0.8604,-1.0875,-1.1197,-0.9863,-1.1736,-1.1956,-1.0616,-1.063,-1.175,-1.3464,-1.3464,-1.2035,-0.9943,-0.9476,-0.9284,-0.9089,0.0,0.0,0.0,0.0,0.0,0.0,0.0,0.0,0.0,0.0,0.0,0.0,0.0,0.0,0.0,0.0,0.0,0.0,0.0,0.0,0.0,0.0,0.0,0.0,0.0,0.0,0.0,0.0,0.0,0.0,0.0,0.0,0.0,-1.034,-0.9853,-0.9754,-1.008,-1.0894,-1.1375,-1.124,-1.1762,-1.2169,-1.2471,-1.2903,-1.3281,-1.3569,-1.3865,-1.5108,-1.7493,-1.7844,-2.0009,-2.4691,-2.4691,-2.5896,-2.8136,-2.8136,-2.8136,-2.8136,-2.8136,-2.8136,-2.8136,-2.8136,-2.8136,-2.8123,-2.8123,-2.7949,-2.7615,-2.7054,-2.6653,-2.636,-2.6066,-2.6132,-2.6319,0.0,0.0,0.0,0.0,0.0,0.0,0.0,0.0,0.0,0.0,-0.7603,-0.7933,-0.8458,-0.9294,-1.0357,-1.1599,-1.095,-1.0729,-1.1444,0.0,0.0,0.0,0.0,0.0,-0.9585,-1.1288,-1.1736,-1.0712,-1.1645,-1.2636,-1.3555,-1.3091,-1.3444,-1.4326,-1.4623,-1.5054,-1.5507,-1.5795,-1.5461,-1.4642,-1.2513,-1.0733,-0.9429,0.0,0.0,0.0,0.0,0.0,0.0,0.0,0.0,0.0,0.0,0.0,0.0,0.0,0.0,0.0,0.0,0.0,0.0,0.0,0.0,0.0,0.0,0.0,0.0,0.0,0.0,0.0,0.0,0.0,0.0,0.0,0.0,-1.1067,-1.1419,-1.1409,-1.133,-1.155,-1.1918,-1.2311,-1.2589,-1.2868,-1.3732,-1.5658,-1.6044,-1.6986,-1.8762,-1.9011,-1.9522,-2.0096,-2.0327,-2.1739,-2.4691,-2.4691,-2.5896,-2.8136,-2.8136,-2.8136,-2.8136,-2.8136,-2.8136,-2.8136,-2.8136,-2.8003,-2.7622,-2.7816,-2.7522,-2.7068,-2.7121,-2.6841,-2.636,-2.6066,-2.6012,-2.6039,0.0,0.0,0.0,0.0,0.0,0.0,0.0,0.0,0.0,0.0,-0.8011,-0.847,-0.9005,-1.006,-1.1127,-1.232,-1.1744,-1.163,-1.2183,0.0,0.0,0.0,0.0,-1.178,-1.1308,-1.3211,-1.3578,-1.2505,-1.3907,-1.4811,-1.5074,-1.5483,-1.5734,-1.6002,-1.6359,-1.6922,-1.773,-1.7861,-1.7927,-1.7727,-1.6131,-1.4332,-1.2416,-1.0872,-1.0349,-1.0198,-0.918,-0.9124,-0.9813,-1.0176,0.0,0.0,0.0,0.0,0.0,0.0,0.0,0.0,0.0,0.0,0.0,0.0,0.0,0.0,0.0,0.0,0.0,0.0,0.0,0.0,0.0,0.0,0.0,0.0,-1.244,-1.2743,-1.3679,-1.3667,-1.3247,-1.2574,-1.4499,-1.5642,-1.5058,-1.5902,-1.7212,-1.8652,-1.8965,-1.9666,-2.1029,-2.115,-2.1566,-2.2611,-2.2611,-2.3812,-2.6066,-2.6236,-2.6927,-2.8136,-2.8136,-2.8136,-2.8136,-2.8136,-2.8136,0.0,-2.8136,-2.7963,-2.7503,-2.7696,-2.7348,0.0,0.0,0.0,0.0,0.0,-2.5692,-2.5604,0.0,0.0,0.0,0.0,0.0,0.0,0.0,0.0,0.0,0.0,0.0,-0.8424,-0.8979,-0.9839,-1.1004,-1.2592,-1.1804,-1.1747,0.0,0.0,0.0,-1.1946,-1.3405,-1.3981,-1.3389,-1.5117,-1.541,-1.4158,-1.6623,-1.7234,-1.5887,-1.7976,-1.8211,-1.705,-1.7283,-1.8206,-1.9723,-1.9759,-1.9771,-1.9771,-1.9771,-1.8508,-1.6265,-1.3619,-1.2829,-1.2897,-1.0776,-1.0708,-1.1465,-1.1126,0.0,0.0,0.0,0.0,0.0,0.0,0.0,0.0,0.0,0.0,0.0,0.0,0.0,0.0,0.0,0.0,0.0,0.0,0.0,0.0,0.0,0.0,0.0,0.0,-1.4405,-1.5694,-1.6578,-1.6472,-1.5743,-1.4312,-1.7918,-1.9884,-1.7899,-1.9779,-2.1088,-2.1428,-2.1453,-2.1739,-2.1911,0.0,0.0,0.0,0.0,-2.6066,-2.815,-2.8136,-2.8136,-2.8136,-2.8136,-2.8136,-2.8136,-2.8136,-2.8136,-2.8136,-2.8136,-2.7949,-2.7463,-2.7642,-2.7281,-2.672,-2.6694,-2.6346,-2.5838,-2.5537,-2.5264,-2.5093,0.0,0.0,0.0,0.0,0.0,0.0,0.0,0.0,0.0,-0.8593,-0.9202,-0.9843,-1.0238,-1.1077,-1.2094,-1.3296,-1.2836,-1.2875,0.0,0.0,-1.322,-1.4878,-1.5047,-1.5013,-1.4616,-1.6858,-1.729,-1.585,-1.7113,-1.8239,-1.9242,-1.8831,-1.9346,-2.063,-2.0912,-2.1301,-2.1802,-2.2172,-2.2264,-2.2264,-2.2264,-1.9939,-1.6522,-1.559,-1.5062,-1.4912,-1.4035,-1.4045,-1.4103,-1.24,-1.2952,-1.4494,-1.4015,0.0,0.0,0.0,0.0,0.0,0.0,0.0,0.0,0.0,0.0,0.0,0.0,0.0,0.0,0.0,0.0,0.0,0.0,0.0,0.0,-1.6718,-1.5117,-1.5042,-1.9289,-1.999,-1.9874,-1.9375,-2.0269,-2.0776,-2.0308,-2.0848,-2.2021,-2.3915,-2.3972,-2.4861,-2.6758,-2.6927,-2.7096,-2.7448,-2.7448,-2.7799,-2.8136,-2.8136,-2.8136,-2.8136,0.0,0.0,-2.8136,-2.8136,-2.8136,-2.8136,-2.8136,-2.7829,-2.7158,-2.7335,-2.6867,-2.6106,-2.5865,-2.5558,-2.5224,-2.4957,-2.4917,-2.4983,0.0,0.0,0.0,0.0,0.0,0.0,0.0,0.0,0.0,0.0,-0.9446,-1.0007,-1.0301,-1.1116,-1.1824,-1.2278,-1.2318,0.0,0.0,-1.3854,-1.4376,-1.5565,-1.6032,-1.6242,-1.6084,-1.7554,-1.8,-1.7452,-1.8169,-1.9082,-2.0241,-1.9939,-2.0554,-2.1777,-2.2071,-2.2365,-2.2645,-2.2806,-2.2859,-2.2859,-2.2859,-2.1629,-1.9563,-1.8233,-1.7429,-1.7052,-1.5824,-1.533,-1.5156,-1.411,-1.467,-1.5655,-1.4483,-1.5233,-1.634,0.0,0.0,0.0,0.0,0.0,0.0,0.0,0.0,0.0,0.0,0.0,0.0,0.0,0.0,-1.3195,0.0,0.0,-1.6291,-1.8839,-1.8602,-1.9326,-2.2154,-2.2796,-2.2385,-2.1078,-2.3201,-2.414,-2.2939,-2.3915,-2.5191,-2.6406,-2.6418,-2.6927,-2.8136,-2.8136,-2.8136,-2.8136,-2.8136,-2.8136,-2.8136,-2.8136,-2.8136,-2.8136,-2.8136,-2.8136,-2.8136,-2.8136,-2.8056,-2.7923,-2.7742,-2.7397,-2.6839,-2.672,-2.6266,-2.5705,-2.5411,-2.5237,-2.5104,-2.4756,-2.473,-2.4836,0.0,0.0,0.0,0.0,0.0,0.0,0.0,0.0,0.0,0.0,-0.9218,-0.9606,-0.9833,-1.0488,-1.0889,0.0,0.0,0.0,0.0,-1.4362,-1.5044,-1.5631,-1.6607,-1.7181,-1.7235,-1.7769,-1.8196,-1.849,-1.9132,-1.972,-2.0241,-2.0842,-2.139,-2.1911,-2.2205,-2.2498,-2.2779,-2.2832,-2.2859,-2.2859,-2.2926,-2.2913,-2.2669,-2.0759,-1.9868,-1.9316,-1.7462,-1.6506,-1.6118,-1.5926,-1.6386,-1.6762,-1.5459,-1.6611,-1.7815,-1.574,-1.623,0.0,0.0,0.0,0.0,0.0,0.0,0.0,0.0,0.0,-1.2487,-1.3573,-1.333,-1.3839,-1.7323,-1.8393,-1.9369,-2.1195,-2.2274,-2.3573,-2.4999,-2.4901,-2.4166,-2.2772,-2.5884,-2.7448,-2.5543,-2.7109,-2.8136,-2.8136,-2.8136,-2.8136,-2.8136,-2.8136,-2.8136,-2.8136,-2.8136,-2.8136,-2.8136,-2.8136,-2.8136,-2.8136,-2.8136,-2.8136,-2.8136,-2.8265,-2.8103,-2.7696,-2.7383,-2.7038,-2.6694,-2.6172,-2.5745,-2.5411,-2.5184,-2.5104,-2.4913,-2.4756,-2.4636,-2.4636,0.0,0.0,0.0,0.0,0.0,0.0,0.0,0.0,0.0,0.0,0.0,0.0,0.0,0.0,0.0,0.0,0.0,0.0,-1.3561,-1.3988,-1.4897,-1.6486,-1.6941,-1.7275,-1.7528,-1.7876,-1.8196,-1.849,-1.9332,-1.992,-2.0241,-2.0842,-2.1283,-2.1617,-2.1911,-2.2191,-2.2485,-2.2752,-2.2859,-2.2886,-2.3166,-2.3113,-2.2832,-2.2215,-2.1912,-2.1529,-2.0198,-1.9348,-1.8777,-1.7446,-1.697,-1.6973,-1.7526,-1.7521,-1.7209,-1.6565,0.0,-1.679,-1.4692,-1.5,-1.546,-1.3771,-1.3118,-1.283,0.0,0.0,-1.1523,-1.437,-1.5026,-1.6468,-2.0978,-2.0957,-2.1446,-2.5839,-2.3706,-2.2845,-2.7214,-2.6041,-2.5373,-2.7279,-2.7799,-2.8136,-2.7799,-2.7968,-2.8136,-2.8136,-2.8136,-2.8136,-2.8136,-2.8136,-2.8136,-2.8136,-2.8136,-2.8136,-2.8136,-2.8136,-2.8136,-2.8136,-2.8136,-2.8136,-2.8136,-2.8244,-2.8095,-2.7669,-2.7148,-2.6734,-2.6413,-2.6092,-2.5625,-2.513,-2.5184,-2.4997,-2.469,-2.4649,-2.4636,-2.4636,0.0,0.0,0.0,0.0,0.0,0.0,0.0,0.0,0.0,0.0,0.0,0.0,0.0,0.0,0.0,0.0,0.0,0.0,-1.3453,-1.3921,-1.487,-1.6633,-1.6994,-1.7288,-1.7569,-1.7889,-1.8196,-1.849,-1.9025,-1.9613,-2.0241,-2.0481,-2.0935,-2.1563,-2.1857,-2.2151,-2.2432,-2.2739,-2.2859,-2.2873,-2.3006,-2.2873,-2.2552,-2.2098,-2.1523,-2.0882,-2.0214,-1.9492,0.0,0.0,-1.7793,-1.7428,-1.702,-1.7455,-1.7615,-1.594,-1.5851,0.0,-1.4795,-1.5695,0.0,0.0,-1.5569,-1.5731,-1.4065,-1.4343,-1.5183,-1.5492,-1.7056,-1.9355,-2.2847,-2.3202,-2.3937,0.0,-2.6424,-2.5884,-2.7968,-2.7136,-2.6736,-2.7251,-2.7375,-2.7575,-2.8096,-2.8136,-2.8136,-2.8136,-2.8136,-2.8136,-2.8136,-2.8136,-2.8136,-2.8136,-2.8136,-2.8136,-2.8136,-2.8136,-2.8136,-2.8136,-2.8136,-2.8136,-2.8136,-2.8217,-2.77,-2.6972,-2.656,-2.6253,-2.6106,-2.5638,-2.5304,-2.5064,-2.493,-2.477,-2.4636,-2.4636,-2.4636,-2.4609,0.0,0.0,0.0,0.0,0.0,0.0,0.0,0.0,0.0,0.0,0.0,0.0,0.0,0.0,0.0,0.0,0.0,0.0,0.0,-1.3614,-1.4643,-1.6152,-1.674,0.0,-1.7462,-1.7849,-1.8196,-1.849,-1.8945,-1.9533,-2.0241,-2.0401,-2.0815,-2.1443,-2.1737,-2.1977,-2.2205,-2.2498,-2.2619,-2.2619,-2.2619,-2.2445,-2.2111,-2.1443,-2.0641,-1.9826,-1.9439,-1.8691,0.0,0.0,-1.7796,-1.7437,-1.6747,-1.7328,-1.8005,-1.5931,-1.5383,-1.5487,-1.4898,0.0,0.0,-1.6452,-1.7576,-1.8277,-1.599,-1.7126,-1.8654,-1.8397,-1.9994,-2.2155,-2.4754,-2.5285,0.0,-2.7835,-2.8016,-2.8016,-2.8016,-2.7696,-2.7241,-2.6653,-2.644,-2.6627,-2.7348,-2.7642,-2.7843,-2.8003,-2.8016,-2.8056,-2.8136,-2.8136,-2.8136,-2.8136,-2.8136,-2.8136,-2.8136,-2.8136,-2.8136,-2.8136,-2.8136,-2.8096,-2.8003,-2.7821,-2.7364,-2.632,-2.6159,-2.5905,-2.5798,-2.5291,-2.5037,-2.493,-2.4716,-2.4636,-2.4636,-2.4636,-2.4636,-2.4596,0.0,0.0,0.0,0.0,0.0,0.0,0.0,0.0,0.0,0.0,0.0,0.0,0.0,0.0,0.0,0.0,0.0,0.0,0.0,-1.2852,-1.4068,-1.4977,-1.6112,-1.686,-1.7154,-1.7742,-1.8196,-1.849,-1.9345,-1.9933,-2.0241,-2.0815,-2.1096,-2.1136,-2.143,-2.1577,-2.1603,-2.1884,-2.2017,-2.2017,-2.2017,-2.1844,-2.1483,-2.0601,-1.9733,-1.8878,-1.829,0.0,0.0,0.0,-1.6567,-1.6473,-1.7341,-1.7716,0.0,-1.6892,-1.6029,0.0,0.0,0.0,-1.7412,-1.6508,-1.7877,-1.9289,-1.9222,-1.9471,-2.0601,-2.3619,-2.4033,-2.4637,-2.7118,-2.7468,-2.7388,-2.7669,-2.7709,-2.7709,-2.7709,-2.7215,-2.664,-2.6052,-2.5478,-2.5251,0.0,-2.636,-2.7094,-2.7669,-2.7709,-2.7843,-2.8123,-2.8136,-2.8136,-2.8136,-2.8136,-2.8136,-2.8136,-2.8136,-2.8136,-2.8136,-2.8136,-2.7989,-2.7696,-2.7121,-2.668,-2.6386,-2.6092,-2.5798,-2.5504,-2.5197,-2.4917,-2.4649,-2.4636,-2.4636,-2.4636,-2.4636,-2.4636,-2.4596,0.0,0.0,0.0,0.0,0.0,0.0,0.0,0.0,0.0,0.0,0.0,0.0,0.0,0.0,0.0,0.0,0.0,0.0,0.0,-1.2078,-1.3039,-1.4322,-1.5311,-1.5979,-1.6259,-1.7048,-1.7595,-1.7889,-1.8384,-1.8891,-1.9372,-1.9573,-1.9867,-2.0254,-2.0548,-2.0788,-2.0989,-2.1283,-2.1523,-2.1643,-2.1056,-2.0762,-2.0561,-1.9492,-1.8277,-1.7088,0.0,0.0,0.0,0.0,0.0,0.0,-1.5685,-1.5912,0.0,-1.4783,-1.5345,-1.615,0.0,0.0,-2.0077,-2.0775,-2.223,-2.329,-2.2426,-2.3663,-2.4837,-2.4103,-2.4591,-2.549,-2.5856,-2.5558,-2.5398,-2.5879,-2.6293,-2.6613,-2.68,-2.6827,-2.6319,-2.4957,-2.4957,0.0,0.0,0.0,0.0,-2.7054,-2.7295,-2.7535,-2.7829,-2.803,-2.8136,-2.8136,-2.8136,-2.8136,-2.8136,-2.8136,-2.8136,-2.8136,-2.7936,-2.7602,-2.7284,-2.6921,-2.6547,-2.5909,-2.5785,-2.5491,-2.5197,-2.4903,-2.473,-2.4636,-2.4636,-2.4636,-2.4636,-2.4636,-2.4636,-2.4596,0.0,0.0,0.0,0.0,0.0,0.0,0.0,0.0,0.0,0.0,0.0,0.0,0.0,0.0,0.0,0.0,0.0,0.0,0.0,0.0,-1.2078,-1.324,-1.4148,-1.475,-1.5044,-1.5818,-1.6353,-1.6647,-1.7048,-1.7502,-1.7983,-1.8196,-1.849,-1.8865,-1.9158,-1.9452,-1.9746,-1.9813,-1.996,-2.008,-1.9399,-1.9011,-1.8718,-1.7756,-1.666,0.0,0.0,0.0,0.0,0.0,0.0,0.0,-1.4629,-1.479,-1.4927,-1.4259,-1.546,-1.7067,0.0,-1.9555,-2.1977,-2.3674,-2.497,-2.574,-2.5113,-2.6259,-2.6888,-2.4826,-2.4843,-2.4957,-2.4262,-2.3567,-2.3354,-2.4155,-2.4609,-2.513,-2.5959,-2.5959,-2.5545,-2.4623,-2.4663,0.0,0.0,0.0,0.0,-2.66,-2.7041,-2.7388,-2.7682,-2.7976,-2.8136,-2.8136,-2.8136,-2.8136,-2.8136,-2.8136,-2.8096,-2.7976,-2.7682,-2.7295,-2.7001,-2.672,-2.64,-2.5763,-2.5638,-2.5371,-2.5104,-2.477,-2.4636,-2.4636,-2.4636,-2.4636,-2.4636,-2.4636,-2.4636,-2.4583,0.0,0.0,0.0,0.0,0.0,0.0,0.0,0.0,0.0,0.0,0.0,0.0,0.0,0.0,0.0,0.0,0.0,0.0,0.0,0.0,0.0,-1.1757,-1.2652,-1.3267,-1.3547,-1.4148,-1.4603,-1.4897,-1.5444,-1.5872,-1.6179,-1.6754,-1.7021,-1.7048,-1.7341,-1.7649,-1.7916,-1.7622,-1.7502,-1.7488,-1.7168,-1.6714,-1.6166,-1.5551,0.0,0.0,0.0,0.0,0.0,0.0,0.0,0.0,0.0,0.0,-1.507,-1.5431,-1.6567,-1.8103,-1.9867,-2.1443,-2.306,-2.5077,-2.6012,-2.6653,-2.7482,-2.7188,-2.656,-2.5945,-2.4623,-2.3287,0.0,0.0,-2.1363,-2.2539,-2.2806,-2.3474,-2.5224,-2.4783,-2.4489,0.0,0.0,0.0,0.0,0.0,0.0,-2.6346,0.0,-2.7375,-2.7682,-2.7976,-2.8136,-2.8136,-2.8136,-2.8136,-2.8136,-2.8123,-2.7963,-2.7669,-2.7375,-2.7094,-2.6974,-2.6507,-2.6199,-2.5737,-2.5611,-2.5371,-2.5006,-2.4783,-2.4636,-2.4636,-2.4636,-2.4636,-2.4636,-2.4623,-2.4609,-2.4529,0.0,0.0,0.0,0.0,0.0,0.0,0.0,0.0,0.0,0.0,0.0,0.0,0.0,0.0,0.0,0.0,0.0,0.0,0.0,0.0,0.0,0.0,0.0,0.0,0.0,0.0,0.0,0.0,0.0,-1.4349,-1.4656,-1.5017,-1.5311,-1.5538,-1.5818,-1.6126,-1.6393,-1.6313,-1.6406,-1.654,0.0,-1.5565,-1.5538,0.0,0.0,0.0,0.0,0.0,0.0,0.0,0.0,0.0,0.0,0.0,-1.5845,-1.7021,0.0,-1.9893,-2.1443,-2.326,-2.501,-2.6186,-2.676,-2.7108,-2.7321,-2.6413,-2.5237,-2.4209,-2.2298,-2.0548,0.0,0.0,0.0,-2.0708,-2.2004,0.0,-2.4676,-2.5237,0.0,0.0,0.0,-2.5451,-2.5304,-2.5758,0.0,0.0,-2.6854,-2.7161,-2.7669,-2.7976,-2.8136,-2.8136,-2.8136,-2.8136,-2.8136,-2.7923,-2.7669,-2.7375,-2.7257,-2.6948,-2.6493,-2.6186,-2.5892,-2.5598,-2.5317,-2.5037,-2.477,-2.4676,-2.4636,-2.4636,-2.4636,-2.4636,-2.4609,-2.4396,-2.4315,-2.4235,0.0,0.0,0.0,0.0,0.0,0.0,0.0,0.0,0.0,0.0,0.0,0.0,0.0,0.0,0.0,0.0,0.0,0.0,0.0,0.0,0.0,0.0,0.0,0.0,0.0,0.0,0.0,0.0,0.0,0.0,0.0,-1.3213,-1.344,-1.3627,-1.4041,-1.4402,-1.4683,0.0,0.0,0.0,0.0,0.0,0.0,0.0,0.0,0.0,0.0,0.0,0.0,0.0,0.0,-1.5057,-1.5899,-1.6633,-1.7448,-1.8811,0.0,-2.1683,-2.302,-2.4623,-2.6079,-2.6827,-2.7041,-2.6934,-2.6426,-2.5277,-2.3794,-2.1964,-2.012,0.0,0.0,0.0,0.0,0.0,0.0,0.0,-2.4022,-2.4796,-2.5344,0.0,-2.6026,0.0,-2.6266,-2.6573,-2.6894,0.0,-2.7201,-2.7348,-2.7682,-2.7976,-2.8136,-2.8136,-2.8136,-2.8136,-2.8136,-2.7976,-2.7682,-2.7268,-2.7284,-2.6974,-2.6386,-2.6213,-2.5905,-2.5504,0.0,-2.5024,-2.4636,-2.4636,-2.4636,-2.4636,-2.4636,-2.4556,-2.4422,-2.4262,-2.4128,-2.3968,0.0,0.0,0.0,0.0,0.0,0.0,0.0,0.0,0.0,0.0,0.0,0.0,0.0,0.0,0.0,0.0,0.0,0.0,0.0,0.0,0.0,0.0,0.0,0.0,0.0,0.0,0.0,0.0,0.0,0.0,0.0,0.0,0.0,0.0,0.0,0.0,0.0,0.0,0.0,0.0,0.0,0.0,0.0,0.0,0.0,0.0,0.0,0.0,0.0,0.0,-1.5738,-1.5845,-1.7101,-1.829,-1.9452,-2.0668,-2.2017,-2.334,-2.4449,-2.5611,-2.6613,-2.7094,-2.6921,-2.6346,-2.517,-2.3808,-2.2098,-1.9639,0.0,0.0,-1.5845,0.0,-1.662,-1.7849,0.0,-2.1056,-2.3434,-2.4048,-2.4877,-2.656,-2.6613,-2.672,-2.7268,-2.7362,-2.7482,-2.7736,-2.7762,-2.7762,-2.7762,-2.8003,-2.8136,-2.8136,-2.8136,-2.8136,-2.8136,-2.8096,-2.7802,-2.7268,-2.7405,-2.7095,-2.6386,-2.636,-2.6039,-2.5504,-2.5478,0.0,-2.4636,-2.4636,-2.4636,-2.4636,-2.4636,-2.4476,-2.4249,-2.4168,-2.3981,-2.3754,0.0,0.0,0.0,0.0,0.0,0.0,0.0,0.0,0.0,0.0,-0.9159,0.0,0.0,0.0,0.0,0.0,0.0,0.0,0.0,0.0,0.0,0.0,0.0,0.0,0.0,0.0,0.0,0.0,0.0,0.0,0.0,0.0,0.0,0.0,0.0,0.0,0.0,0.0,0.0,0.0,0.0,0.0,0.0,0.0,0.0,0.0,0.0,0.0,0.0,0.0,-1.6286,-1.7141,-1.8811,-1.9973,-2.1015,-2.2445,-2.3567,-2.4476,-2.517,-2.6213,-2.7081,-2.6934,-2.6319,-2.5438,-2.4262,-2.1951,0.0,0.0,0.0,-1.5284,-1.483,-1.5378,0.0,-1.7782,0.0,0.0,0.0,0.0,-2.5037,0.0,0.0,0.0,0.0,0.0,0.0,0.0,0.0,-2.807,-2.807,-2.811,-2.8136,-2.8136,-2.8136,-2.8136,-2.8136,-2.7896,-2.7602,-2.7268,-2.6839,-2.6533,-2.6386,-2.6329,-2.602,-2.5504,-2.5264,0.0,-2.4636,-2.4636,-2.4636,-2.4636,-2.4636,-2.4609,-2.4502,-2.4022,-2.3808,-2.3701,0.0,0.0,0.0,0.0,0.0,0.0,0.0,0.0,0.0,0.0,-0.9015,-0.8804,0.0,0.0,0.0,0.0,0.0,0.0,0.0,0.0,0.0,0.0,0.0,0.0,0.0,0.0,0.0,0.0,0.0,0.0,0.0,0.0,0.0,0.0,0.0,0.0,0.0,0.0,0.0,0.0,0.0,0.0,0.0,0.0,0.0,0.0,0.0,0.0,0.0,0.0,-1.6059,-1.7288,-1.9372,-2.0735,-2.1804,-2.2979,-2.3955,-2.477,-2.5358,-2.6373,-2.7161,-2.6707,-2.5825,-2.4543,-2.2605,0.0,0.0,0.0,0.0,-1.4643,-1.4349,0.0,0.0,0.0,0.0,0.0,0.0,0.0,0.0,0.0,0.0,0.0,0.0,0.0,0.0,0.0,0.0,-2.8136,-2.8136,-2.8136,-2.8136,-2.8136,-2.8136,-2.8136,-2.8136,-2.8003,-2.7709,-2.7445,-2.6932,-2.6626,-2.6386,-2.6423,-2.6114,-2.5504,-2.5371,0.0,-2.4636,-2.4636,-2.4636,-2.4636,-2.4636,-2.4449,-2.4155,-2.3875,-2.3567,-2.326,0.0,0.0,0.0,0.0,0.0,0.0,0.0,-1.0499,-1.0661,-0.9562,-0.9316,-0.9159,-0.9015,-0.891,-0.9054,0.0,0.0,0.0,0.0,0.0,0.0,0.0,0.0,0.0,0.0,0.0,0.0,0.0,0.0,0.0,0.0,0.0,0.0,0.0,0.0,0.0,0.0,0.0,0.0,0.0,0.0,0.0,0.0,0.0,0.0,0.0,0.0,0.0,0.0,0.0,-1.5337,-1.6526,-1.8704,-2.0494,-2.1951,-2.2726,-2.3701,-2.4663,-2.5184,-2.6186,-2.6934,-2.6346,-2.5224,-2.3607,-2.1149,-1.9052,0.0,0.0,-1.4469,-1.4362,-1.4135,0.0,0.0,0.0,0.0,0.0,0.0,0.0,0.0,0.0,0.0,0.0,0.0,0.0,0.0,0.0,0.0,0.0,-2.8136,-2.8136,-2.8136,-2.8136,-2.8136,-2.8136,-2.8136,-2.8083,-2.7969,-2.7622,-2.7201,-2.6719,-2.6386,-2.6319,-2.6012,-2.5504,-2.5451,0.0,0.0,-2.4636,-2.4569,-2.4462,-2.4529,-2.4222,-2.3768,-2.3701,-2.3367,-2.2953,0.0,0.0,0.0,0.0,0.0,0.0,0.0,-1.1773,-1.1665,-1.1566,-1.1015,-1.0372,-0.9769,-0.9159,-0.9054,0.0,0.0,0.0,0.0,0.0,0.0,0.0,0.0,0.0,0.0,0.0,0.0,0.0,0.0,0.0,0.0,0.0,0.0,0.0,0.0,0.0,0.0,0.0,0.0,0.0,0.0,0.0,0.0,0.0,0.0,0.0,0.0,0.0,0.0,0.0,0.0,-1.4603,-1.6152,-1.8731,-2.1256,-2.1617,0.0,0.0,-2.4636,-2.5571,-2.6333,-2.5745,-2.4302,-2.2539,-2.0695,0.0,0.0,0.0,-1.4309,-1.4122,-1.4095,-1.4362,0.0,0.0,0.0,0.0,0.0,0.0,0.0,0.0,0.0,0.0,0.0,0.0,0.0,0.0,0.0,0.0,-2.811,-2.8136,-2.8136,-2.8136,-2.8136,-2.8136,-2.8136,-2.7883,-2.7754,-2.7622,-2.7176,-2.6867,-2.6386,-2.5949,-2.5812,-2.5504,-2.5237,0.0,0.0,-2.4636,-2.4488,-2.4201,-2.43,-2.4048,-2.3741,-2.3474,-2.3327,-2.3247,0.0,0.0,0.0,0.0,0.0,0.0,0.0,-1.1561,-1.1665,-1.1266,-1.0965,-1.0712,-1.0407,-1.0167,-1.0115,0.0,0.0,0.0,0.0,0.0,0.0,0.0,0.0,0.0,0.0,0.0,0.0,0.0,0.0,0.0,0.0,0.0,0.0,0.0,0.0,0.0,0.0,0.0,0.0,0.0,0.0,0.0,0.0,0.0,0.0,0.0,0.0,0.0,0.0,0.0,0.0,0.0,-1.3761,-1.5511,0.0,0.0,-2.0975,-2.2338,-2.3527,-2.4836,-2.5678,-2.4917,-2.3394,-2.1563,-1.9626,0.0,0.0,-1.4202,-1.3761,-1.3614,-1.3788,-1.3921,-1.4229,0.0,0.0,0.0,0.0,0.0,0.0,0.0,0.0,0.0,0.0,0.0,0.0,0.0,0.0,0.0,-2.7589,-2.7615,-2.7615,-2.7615,-2.7615,-2.7615,-2.7615,-2.7673,-2.7472,-2.7189,-2.7069,-2.6587,-2.6119,-2.5999,-2.5692,-2.5251,-2.513,0.0,0.0,-2.4636,-2.4502,-2.4448,-2.4235,-2.4128,-2.3981,-2.35,-2.3327,-2.3287,0.0,0.0,0.0,0.0,0.0,0.0,-1.0953,-1.1472,-1.1804,-1.1466,-1.1434,-1.1334,-1.1116,-1.1266,-1.1334,-1.1116,0.0,0.0,0.0,0.0,0.0,0.0,0.0,0.0,0.0,0.0,0.0,0.0,0.0,0.0,0.0,0.0,0.0,0.0,0.0,0.0,0.0,0.0,0.0,0.0,0.0,0.0,0.0,0.0,0.0,0.0,0.0,0.0,0.0,0.0,0.0,0.0,0.0,0.0,0.0,0.0,-1.8958,-2.0494,-2.2004,-2.3541,-2.4556,-2.3848,-2.2405,-2.0668,0.0,0.0,0.0,-1.3828,-1.3414,-1.3267,-1.348,-1.3587,-1.3774,0.0,0.0,0.0,0.0,0.0,0.0,0.0,0.0,0.0,0.0,0.0,0.0,0.0,0.0,0.0,0.0,-2.6961,-2.7081,-2.7255,-2.7268,-2.7268,-2.7268,-2.7364,-2.7216,-2.7001,-2.6921,-2.644,-2.5777,-2.5852,-2.5558,-2.5077,-2.4983,0.0,0.0,-2.4636,-2.4529,-2.4356,-2.4155,-2.3968,-2.3754,-2.334,-2.3193,-2.3153,0.0,0.0,0.0,0.0,0.0,0.0,0.0,-1.1934,-1.2336,-1.2812,-1.2871,-1.2608,-1.1864,-1.2461,-1.2559,-1.1864,0.0,0.0,0.0,0.0,0.0,0.0,0.0,0.0,0.0,0.0,0.0,-1.2891,-1.2166,0.0,0.0,0.0,0.0,0.0,0.0,0.0,0.0,0.0,0.0,0.0,0.0,0.0,0.0,0.0,0.0,0.0,0.0,0.0,0.0,0.0,0.0,0.0,0.0,0.0,0.0,0.0,-1.7101,-1.9132,-2.0027,-2.155,-2.2819,-2.2512,-2.1336,-1.9853,0.0,0.0,0.0,-1.3828,-1.3414,-1.3213,-1.3213,-1.3454,-1.3559,-1.3654,0.0,0.0,0.0,0.0,0.0,0.0,0.0,0.0,0.0,0.0,0.0,0.0,0.0,0.0,0.0,-2.6239,-2.6667,-2.7241,-2.7268,-2.7268,-2.7268,-2.7149,-2.7015,-2.7001,-2.6533,-2.6239,-2.5763,-2.5651,-2.5358,0.0,0.0,0.0,0.0,-2.4636,-2.4302,-2.3781,-2.3781,-2.3407,-2.2873,-2.2873,-2.2859,-2.2859,0.0,0.0,0.0,0.0,0.0,0.0,0.0,-1.1758,-1.2239,-1.2422,-1.2695,-1.2822,-1.2559,-1.2774,-1.2822,-1.2559,0.0,0.0,0.0,0.0,0.0,0.0,0.0,0.0,0.0,0.0,-1.2129,-1.2129,-1.1695,-1.1284,-1.0867,0.0,0.0,0.0,0.0,0.0,0.0,0.0,0.0,0.0,0.0,0.0,0.0,0.0,0.0,0.0,0.0,0.0,0.0,0.0,0.0,0.0,0.0,0.0,0.0,0.0,0.0,0.0,-1.7528,-1.8824,-1.98,-1.9506,-1.8624,-1.7542,-1.6473,0.0,-1.3627,-1.3133,-1.2799,-1.2652,-1.2852,-1.2973,-1.3227,-1.3841,-1.3319,0.0,0.0,0.0,0.0,0.0,0.0,0.0,0.0,0.0,0.0,0.0,0.0,0.0,0.0,-2.5745,-2.5879,-2.6066,-2.6266,-2.6437,-2.6249,-2.6507,-2.6452,-2.6114,-2.5838,-2.5638,-2.5344,-2.5264,-2.505,0.0,0.0,0.0,0.0,-2.4195,-2.3941,-2.3754,-2.3541,-2.3474,-2.3434,-2.302,-2.2993,-2.3153,0.0,0.0,0.0,0.0,0.0,0.0,0.0,-1.1387,-1.1855,-1.2141,-1.2461,-1.2695,-1.2871,-1.2891,-1.2891,-1.2891,0.0,0.0,0.0,0.0,0.0,0.0,0.0,0.0,0.0,-1.2178,-1.1814,-1.1814,-1.1229,-1.0787,-1.0558,-1.0667,-1.062,0.0,0.0,0.0,0.0,0.0,0.0,0.0,0.0,0.0,-1.1102,0.0,0.0,0.0,0.0,0.0,0.0,0.0,0.0,0.0,0.0,0.0,0.0,0.0,-1.2679,0.0,0.0,-1.6754,-1.7475,-1.7395,-1.6478,0.0,0.0,0.0,-1.2555,-1.2261,-1.228,-1.2358,-1.2545,-1.2741,-1.305,-1.3641,0.0,0.0,0.0,0.0,0.0,0.0,0.0,0.0,0.0,0.0,0.0,0.0,0.0,0.0,0.0,-2.5451,-2.5411,-2.5184,-2.5571,-2.5872,-2.5851,-2.5864,-2.5851,-2.5518,-2.5504,-2.5291,-2.4917,-2.4917,-2.469,0.0,0.0,0.0,0.0,-2.3915,-2.3789,-2.3574,-2.3354,-2.3367,-2.338,-2.3006,-2.2979,-2.3126,0.0,0.0,0.0,0.0,0.0,0.0,0.0,0.0,0.0,0.0,-1.2161,-1.2402,-1.2832,-1.2891,-1.2891,0.0,0.0,0.0,0.0,0.0,0.0,0.0,0.0,0.0,0.0,-1.208,-1.1715,-1.1665,-1.0735,-1.0235,-1.025,-1.0182,-1.0167,-1.0167,-1.0461,-1.0645,-1.0645,-1.0848,-1.0808,-1.0645,-1.0848,-1.0795,0.0,0.0,0.0,0.0,0.0,0.0,0.0,0.0,0.0,0.0,0.0,0.0,0.0,0.0,0.0,0.0,0.0,0.0,0.0,0.0,0.0,0.0,0.0,0.0,0.0,-1.1295,-1.1727,-1.2244,-1.2358,-1.2572,-1.2943,-1.324,0.0,0.0,0.0,0.0,0.0,0.0,0.0,0.0,0.0,0.0,0.0,0.0,0.0,0.0,0.0,-2.5331,-2.5224,-2.4649,-2.517,-2.5464,-2.563,-2.5285,-2.5119,-2.5119,-2.5119,-2.498,-2.4609,-2.4609,-2.4302,0.0,0.0,0.0,0.0,-2.3728,-2.3534,-2.3201,-2.3332,-2.3113,-2.2859,-2.2859,-2.2859,-2.2859,0.0,0.0,0.0,0.0,0.0,0.0,0.0,0.0,0.0,0.0,-1.2012,-1.2402,-1.2832,-1.2891,-1.2891,0.0,0.0,0.0,0.0,0.0,0.0,0.0,0.0,0.0,0.0,-1.1366,-1.0762,-1.0269,-0.9964,-0.9852,-0.9879,-1.047,-1.0675,-1.0461,-1.0755,-1.0768,-1.0631,-1.0698,-1.0685,-1.0631,-1.0698,-1.0685,0.0,0.0,0.0,0.0,-1.0618,-1.0618,0.0,0.0,0.0,0.0,0.0,0.0,0.0,0.0,-1.1035,-1.1263,-1.2051,0.0,-1.2866,-1.316,0.0,0.0,0.0,0.0,0.0,0.0,0.0,0.0,0.0,0.0,0.0,0.0,0.0,0.0,0.0,0.0,0.0,0.0,0.0,0.0,0.0,0.0,0.0,0.0,0.0,0.0,0.0,-2.5024,-2.501,-2.4649,-2.477,-2.4836,-2.485,-2.4836,-2.4688,-2.4688,-2.4688,-2.4649,-2.4302,-2.4302,-2.4115,0.0,0.0,0.0,-2.3403,-2.326,-2.3131,-2.3023,-2.2953,-2.2926,-2.2859,-2.2859,-2.2859,-2.2859,0.0,0.0,0.0,0.0,0.0,0.0,0.0,0.0,0.0,0.0,0.0,0.0,0.0,0.0,0.0,0.0,0.0,0.0,0.0,0.0,0.0,0.0,0.0,0.0,-1.1366,-1.0661,-1.0244,-1.0045,-0.9784,-0.982,-1.01,-1.0715,-1.0915,-1.0755,-1.0782,-1.0715,-1.0618,-1.0618,-1.0488,-1.0367,-1.0564,0.0,0.0,0.0,0.0,0.0,-1.0618,-1.0618,0.0,-1.0618,-1.0755,-1.0915,0.0,0.0,0.0,0.0,-1.0595,-1.0648,-1.0942,-1.1436,-1.1944,-1.2225,-1.2026,-1.1853,0.0,0.0,0.0,0.0,0.0,0.0,0.0,0.0,0.0,0.0,0.0,0.0,0.0,0.0,0.0,0.0,0.0,0.0,0.0,0.0,0.0,0.0,0.0,0.0,0.0,-2.4997,-2.4943,-2.4649,-2.4636,-2.4583,-2.4609,-2.4609,-2.4528,-2.4235,-2.4249,-2.4088,-2.3808,-2.3808,-2.3634,0.0,0.0,0.0,-2.316,-2.2993,-2.2859,-2.2859,-2.2859,-2.2859,-2.2859,-2.2859,-2.2859,-2.2859,0.0,0.0,0.0,0.0,0.0,0.0,0.0,0.0,0.0,0.0,0.0,0.0,0.0,0.0,0.0,0.0,0.0,0.0,0.0,0.0,0.0,0.0,0.0,-1.1466,-1.0661,-1.0115,-0.9933,-1.0151,-0.9866,-1.0033,-1.0631,-1.0942,-1.1102,-1.1049,-1.0755,-1.0658,-1.0618,-1.0618,-1.0421,-1.0207,-1.0461,0.0,0.0,0.0,0.0,0.0,0.0,0.0,0.0,-1.0577,-1.0688,-1.0822,-1.0234,0.0,0.0,0.0,0.0,0.0,-1.0541,-1.1303,-1.2024,-1.2144,-1.174,-1.1366,0.0,0.0,0.0,0.0,0.0,0.0,0.0,0.0,0.0,0.0,0.0,0.0,0.0,0.0,0.0,0.0,0.0,0.0,0.0,0.0,0.0,0.0,0.0,0.0,-2.501,-2.505,-2.4943,-2.4649,-2.4596,-2.4596,-2.463,-2.4512,-2.4219,-2.3612,-2.3768,-2.3621,-2.3327,-2.3327,-2.3153,-2.2859,0.0,0.0,-2.2859,-2.2859,-2.2859,-2.2859,-2.2859,-2.2859,-2.2859,-2.2859,-2.2859,-2.2859,0.0,0.0,0.0,0.0,0.0,0.0,0.0,0.0,0.0,0.0,0.0,0.0,0.0,0.0,0.0,0.0,0.0,0.0,0.0,0.0,0.0,0.0,-1.1166,-1.1216,-0.9961,-0.9858,-0.9669,-0.9342,-0.9838,-1.0221,-1.0645,-1.1369,-1.1597,-1.1343,-1.1049,-1.0795,-1.0618,-1.0618,-1.0591,-1.0564,-1.0604,0.0,0.0,0.0,0.0,0.0,0.0,0.0,0.0,-1.0274,-1.0381,-1.0591,-0.994,0.0,0.0,0.0,0.0,0.0,-1.0848,-1.1744,-1.2513,-1.1744,-1.1827,-1.2149,0.0,0.0,0.0,0.0,0.0,0.0,0.0,0.0,0.0,0.0,0.0,0.0,0.0,0.0,0.0,0.0,0.0,0.0,0.0,0.0,0.0,0.0,0.0,0.0,-2.4716,-2.4943,-2.4943,-2.4649,-2.4396,-2.43,-2.4644,-2.4088,-2.3576,-2.2976,-2.3119,-2.313,-2.3327,-2.3327,-2.3153,-2.2859,0.0,-2.2859,-2.2859,-2.2859,-2.2859,-2.2859,-2.2859,-2.2859,-2.2859,-2.2859,-2.2859,-2.2859,0.0,0.0,0.0,0.0,0.0,0.0,0.0,0.0,0.0,0.0,0.0,0.0,0.0,0.0,0.0,0.0,0.0,0.0,0.0,0.0,0.0,-0.9858,-1.0407,-1.0269,-0.9263,-0.9418,-0.9453,-0.9486,-1.0074,-1.0581,-1.1035,-1.1436,-1.1476,-1.1182,-1.0889,-1.0752,-1.0618,-1.0618,-1.0618,-1.0618,0.0,0.0,0.0,0.0,0.0,0.0,0.0,0.0,0.0,0.0,-1.0004,-0.9882,-0.9741,0.0,0.0,0.0,0.0,0.0,-1.0675,-1.1383,-1.1971,-1.173,-1.2478,-1.3227,-1.3066,0.0,0.0,0.0,0.0,0.0,0.0,0.0,0.0,0.0,0.0,0.0,0.0,0.0,0.0,0.0,0.0,0.0,0.0,0.0,0.0,0.0,0.0,0.0,-2.4649,-2.4623,-2.4543,-2.4409,-2.4115,-2.3991,-2.4172,-2.3829,-2.3413,-2.2955,-2.2955,-2.2902,-2.3073,-2.3073,-2.2993,-2.2859,0.0,-2.2846,-2.2696,-2.2859,-2.2672,-2.2405,-2.2565,-2.2525,-2.2392,-2.2392,-2.2392,-2.2392,0.0,0.0,0.0,0.0,0.0,0.0,0.0,0.0,0.0,0.0,0.0,0.0,0.0,0.0,0.0,0.0,0.0,0.0,0.0,0.0,-1.0864,-0.9873,-0.9666,-0.9344,-0.8911,-0.907,-0.9419,-0.978,-1.0367,-1.0955,-1.153,-1.153,-1.1343,-1.0982,-1.0768,-1.0685,-1.0618,-1.0618,-1.0618,-1.0618,0.0,0.0,0.0,0.0,0.0,0.0,0.0,0.0,0.0,0.0,0.0,0.0,0.0,0.0,0.0,-0.9614,-0.9971,-1.0287,-1.0581,-1.1089,-1.1583,-1.181,0.0,-1.3694,-1.3814,0.0,0.0,0.0,0.0,0.0,0.0,0.0,0.0,0.0,0.0,0.0,0.0,0.0,0.0,0.0,0.0,0.0,0.0,0.0,0.0,0.0,0.0,0.0,-2.4436,-2.4222,-2.4102,-2.4102,-2.3821,-2.3708,-2.3647,-2.3413,-2.3252,-2.2859,-2.2792,-2.2792,-2.2859,-2.2792,-2.2792,-2.2859,-2.2792,-2.2642,-2.2382,-2.2563,-2.2392,-2.2004,-2.2231,-2.2178,-2.1991,-2.1991,-2.1991,-2.1991,0.0,0.0,0.0,0.0,0.0,0.0,0.0,0.0,0.0,0.0,0.0,0.0,0.0,0.0,0.0,0.0,0.0,0.0,0.0,0.0,-0.9909,-0.9821,-0.9211,-0.8978,-0.915,-0.9176,-0.9455,-1.0087,-1.0675,-1.1263,-1.1837,-1.1837,-1.153,-1.0995,-1.0969,-1.0808,-1.0618,-1.0618,-1.0618,-1.0618,-1.0618,0.0,0.0,0.0,0.0,0.0,0.0,0.0,0.0,0.0,0.0,0.0,0.0,0.0,-0.8991,-0.8918,-0.9668,-1.0595,-1.0889,-1.1396,-1.1837,-1.1864,0.0,0.0,-1.4148,0.0,0.0,0.0,0.0,0.0,0.0,0.0,0.0,0.0,0.0,0.0,0.0,0.0,0.0,0.0,0.0,0.0,0.0,0.0,0.0,0.0,0.0,0.0,-2.3834,-2.3977,-2.3964,-2.3808,-2.3668,-2.3354,-2.3007,-2.2895,-2.2886,-2.2859,-2.2579,-2.2592,-2.2846,-2.2579,-2.2605,-2.2846,-2.2565,-2.2443,-2.2356,-2.2125,-2.2017,-2.1991,-2.2004,-2.2004,-2.1991,-2.1991,-2.1991,-2.1991,0.0,0.0,0.0,0.0,0.0,0.0,0.0,0.0,0.0,0.0,0.0,0.0,0.0,0.0,0.0,0.0,0.0,0.0,0.0,0.0,-0.9614,-0.9211,-0.8962,-0.8938,-0.9176,-0.9419,-0.9619,-0.9846,-1.0621,-1.1102,-1.1329,-1.1329,-1.1116,-1.0728,-1.0728,-1.0661,-1.0618,-1.0618,-1.0618,-1.0618,-1.0618,-1.0618,0.0,0.0,0.0,0.0,0.0,0.0,0.0,0.0,-0.8271,-0.8067,0.0,-0.8752,-0.8598,-0.9618,-1.021,-1.0645,-1.0688,-1.1289,-1.1864,-1.1864,0.0,0.0,0.0,0.0,0.0,0.0,0.0,0.0,0.0,0.0,0.0,0.0,0.0,0.0,0.0,0.0,0.0,0.0,0.0,0.0,0.0,0.0,0.0,0.0,0.0,0.0,0.0,-2.3313,-2.344,-2.3641,-2.3346,-2.3033,-2.2881,-2.2589,-2.243,-2.2281,-2.2324,-2.2472,-2.2579,-2.2285,-2.2205,-2.2311,-2.2205,-2.2058,-2.1857,-2.1925,-2.1764,-2.1443,-2.1443,-2.1443,-2.1443,-2.1443,-2.1443,-2.1443,0.0,0.0,0.0,0.0,0.0,0.0,0.0,0.0,0.0,0.0,0.0,0.0,0.0,0.0,0.0,0.0,0.0,0.0,0.0,-0.9446,-0.9263,-0.8804,-0.8804,-0.8898,-0.9044,-0.9392,-0.9633,-0.982,-1.0608,-1.0995,-1.0995,-1.0995,-1.0835,-1.0618,-1.0618,-1.0618,-1.0618,-1.0618,-1.0618,-1.0618,-1.0618,-1.0618,0.0,0.0,0.0,0.0,0.0,0.0,0.0,0.0,-0.804,0.0,0.0,0.0,0.0,-0.9793,-1.0364,-1.0618,-1.0618,-1.1128,-1.1637,0.0,0.0,0.0,0.0,0.0,0.0,0.0,0.0,0.0,0.0,0.0,0.0,0.0,0.0,0.0,0.0,0.0,0.0,0.0,0.0,0.0,0.0,0.0,0.0,0.0,0.0,0.0,0.0,-2.2942,-2.2983,-2.3349,-2.2996,-2.2875,-2.2875,-2.2432,-2.2125,-2.1684,-2.2032,-2.2191,-2.2271,-2.1977,-2.1897,-2.1977,-2.1884,-2.1753,-2.1661,-2.1646,-2.147,-2.1109,-2.1109,-2.1109,-2.1109,-2.1109,-2.1475,-2.1853,0.0,0.0,0.0,0.0,0.0,0.0,0.0,0.0,0.0,0.0,0.0,0.0,0.0,0.0,0.0,0.0,0.0,0.0,-0.9806,-0.9159,-0.8804,-0.8804,-0.8804,-0.8804,-0.8804,-0.9044,-0.9469,-1.0114,-1.0688,-1.0982,-1.0982,-1.0982,-1.0835,-1.0618,-1.0618,-1.0618,-1.0618,-1.0618,-1.0618,-1.0618,-1.0618,-1.0618,-1.0618,0.0,0.0,0.0,0.0,0.0,0.0,0.0,-0.8315,-0.7757,0.0,0.0,0.0,-0.9178,-0.9919,-1.0631,-1.0631,-1.0782,0.0,0.0,0.0,0.0,0.0,0.0,0.0,0.0,0.0,0.0,0.0,0.0,0.0,0.0,0.0,0.0,0.0,0.0,0.0,0.0,0.0,0.0,0.0,0.0,0.0,0.0,0.0,0.0,0.0,-2.2565,-2.2875,-2.2875,-2.2875,-2.2875,-2.2875,-2.243,-2.1832,-2.1082,-2.1397,-2.1697,-2.1977,-2.1683,-2.171,-2.1964,-2.167,-2.1567,-2.1621,-2.1208,-2.1109,-2.1109,-2.1109,-2.1109,-2.1109,-2.1109,-2.2215,-2.3325,0.0,0.0,0.0,0.0,0.0,0.0,0.0,0.0,0.0,0.0,0.0,0.0,0.0,0.0,0.0,0.0,0.0,0.0,-0.9159,-0.891,-0.8804,-0.8804,-0.8804,-0.8804,-0.8804,-0.9044,-0.9432,-0.982,-0.998,-1.018,-1.0381,-1.0381,-1.0448,-1.0618,-1.0618,-1.0618,-1.0618,-1.0618,-1.0618,-1.0618,-1.0618,-1.0618,-1.0618,0.0,0.0,0.0,0.0,0.0,0.0,0.0,0.0,0.0,0.0,0.0,0.0,-0.9996,-1.0509,-1.0862,-1.0862,0.0,0.0,0.0,0.0,0.0,0.0,0.0,0.0,0.0,0.0,0.0,0.0,0.0,0.0,0.0,0.0,0.0,0.0,0.0,0.0,0.0,0.0,0.0,0.0,0.0,0.0,0.0,0.0,0.0,0.0,-2.2217,-2.2416,-2.2869,-2.2869,-2.243,-2.166,-2.1529,-2.1384,-2.1085,-2.1235,-2.139,-2.167,-2.1376,-2.1283,-2.1363,-2.1283,-2.1283,-2.1208,-2.1176,-2.1109,-2.1109,-2.1109,-2.1109,-2.1235,-2.2466,-2.3201,-2.3698,0.0,0.0,0.0,0.0,0.0,0.0,0.0,0.0,0.0,0.0,0.0,0.0,0.0,0.0,0.0,0.0,0.0,0.0,0.0,0.0,-0.8804,-0.8804,-0.8804,-0.8804,-0.8804,-0.8978,-0.9152,-0.9339,-0.9566,-0.978,-0.9953,-1.006,-1.0207,-1.0394,-1.0577,-1.0618,-1.0618,-1.0618,-1.0618,-1.0618,-1.0618,-1.0618,-1.0618,0.0,0.0,0.0,0.0,0.0,0.0,0.0,0.0,0.0,0.0,0.0,0.0,-1.0401,-1.0688,-1.0848,-1.0955,0.0,0.0,0.0,0.0,0.0,0.0,0.0,0.0,0.0,0.0,0.0,0.0,0.0,0.0,0.0,0.0,0.0,0.0,0.0,0.0,0.0,0.0,0.0,0.0,0.0,0.0,0.0,0.0,0.0,0.0,-2.1607,-2.1804,-2.2119,-2.225,-2.1817,-2.1071,-2.1083,-2.108,-2.108,-2.1062,-2.1203,-2.1376,-2.1189,-2.1109,-2.1109,-2.1109,-2.1109,-2.1109,-2.1109,-2.1109,-2.1109,-2.1109,-2.1109,-2.1362,-2.2952,-2.4054,-2.4655,0.0,0.0,0.0,0.0,0.0,0.0,0.0,0.0,0.0,0.0,0.0,0.0,0.0,0.0,0.0,0.0,0.0,0.0,0.0,0.0,-0.8804,-0.8804,-0.8804,-0.8804,-0.8804,-0.8804,-0.8804,-0.8804,-0.9339,-0.9619,-0.9646,-0.994,-1.0087,-1.0127,-1.0421,-1.0618,-1.0618,-1.0618,-1.0618,-1.0618,-1.0618,-1.0618,-1.0618,-1.0618,0.0,0.0,0.0,0.0,0.0,0.0,0.0,0.0,0.0,0.0,-1.0207,-1.0488,-1.0645,-1.0675,0.0,0.0,0.0,0.0,0.0,0.0,0.0,0.0,0.0,0.0,0.0,0.0,0.0,0.0,0.0,0.0,0.0,0.0,0.0,0.0,0.0,0.0,0.0,0.0,0.0,0.0,0.0,0.0,0.0,0.0,0.0,-2.108,-2.107,-2.107,-2.107,-2.107,-2.1044,-2.1356,-2.1362,-2.1069,-2.1222,-2.1362,-2.1362,-2.1109,-2.1109,-2.1109,-2.1109,-2.1109,-2.1109,-2.1109,-2.1222,-2.1321,-2.1096,-2.1235,-2.1475,-2.3201,-2.4778,-2.6106,0.0,0.0,0.0,0.0,0.0,0.0,0.0,0.0,0.0,0.0,0.0,0.0,0.0,0.0,0.0,0.0,0.0,0.0,0.0,0.0,-0.8804,-0.8804,-0.8804,-0.8804,-0.8804,-0.8804,-0.8804,-0.8804,-0.8938,-0.9112,-0.9283,-0.9633,-0.99,-1.0127,-1.0421,-1.0618,-1.0618,-1.0618,-1.0618,-1.0618,-1.0618,-1.0618,-1.0618,-1.0618,-1.0618,0.0,0.0,0.0,0.0,0.0,0.0,0.0,-1.0007,-1.0274,-1.0474,-1.0604,-1.0728,-1.1022,0.0,0.0,0.0,0.0,0.0,0.0,0.0,0.0,0.0,0.0,0.0,0.0,0.0,0.0,0.0,0.0,0.0,0.0,0.0,0.0,0.0,0.0,0.0,0.0,0.0,0.0,0.0,0.0,0.0,0.0,-2.1109,-2.1162,-2.1062,-2.1062,-2.1062,-2.1096,-2.1146,-2.3693,-2.3649,0.0,-2.2491,-2.3076,-2.2966,-2.1727,-2.1109,-2.1109,-2.1109,-2.1109,-2.1109,-2.1109,-2.1853,-2.2892,-2.1644,-2.1853,-2.3201,-2.4901,-2.5741,-2.6349,0.0,0.0,0.0,0.0,0.0,0.0,0.0,0.0,0.0,0.0,0.0,0.0,0.0,0.0,0.0,0.0,0.0,0.0,0.0,0.0,0.0,-0.8804,-0.8804,-0.8804,-0.8804,-0.8804,-0.8804,-0.8804,-0.8951,0.0,0.0,0.0,0.0,-1.0127,-1.0421,-1.0618,-1.0618,-1.0618,-1.0618,-1.0618,-1.0618,-1.0618,-1.0618,-1.0618,-1.0618,-1.0604,-1.0381,0.0,0.0,0.0,0.0,0.0,0.0,0.0,-1.0618,-1.0618,-1.0675,-1.0889,0.0,0.0,0.0,0.0,0.0,0.0,0.0,0.0,0.0,0.0,0.0,0.0,0.0,0.0,0.0,0.0,0.0,0.0,0.0,0.0,0.0,0.0,0.0,0.0,0.0,0.0,0.0,0.0,0.0,-2.0748,-2.0895,-2.0762,-2.0832,-2.1107,-2.1107,-2.2248,-2.4527,-2.4833,-2.3962,-2.1961,-2.3384,-2.3823,-2.2989,-2.2414,-2.1714,-2.1109,-2.0969,-2.1402,-2.2272,-2.2272,-2.3216,-2.4664,-2.3825,-2.3458,-2.3807,-2.5375,-2.5984,-2.6349,0.0,0.0,0.0,0.0,0.0,0.0,0.0,0.0,0.0,0.0,0.0,0.0,0.0,0.0,0.0,0.0,0.0,0.0,0.0,0.0,0.0,-0.8804,-0.8804,-0.8804,-0.8804,-0.8804,-0.8804,-0.8804,0.0,0.0,0.0,0.0,0.0,-1.0127,0.0,-1.0618,-1.0618,-1.0618,-1.0618,-1.0618,-1.0618,-1.0618,-1.0618,-1.0618,-1.0618,-1.0618,-1.0618,-1.0408,-1.0234,-1.0474,0.0,0.0,0.0,0.0,-1.0631,-1.0685,-1.0658,-1.0698,0.0,0.0,0.0,0.0,0.0,0.0,0.0,0.0,0.0,0.0,0.0,0.0,0.0,0.0,0.0,0.0,0.0,0.0,0.0,0.0,0.0,0.0,0.0,0.0,0.0,0.0,0.0,0.0,0.0,-2.0807,-2.1299,-2.1064,-2.0791,-2.0925,-2.1477,-2.3863,-2.8228,-2.5982,-2.4284,-2.3433,-2.4561,-2.4327,-2.2944,-2.3395,-2.273,-2.0962,-2.0929,-2.1963,-2.3398,-2.3698,-2.4727,-2.615,-2.5982,-2.5082,-2.4101,-2.5481,-2.5984,-2.6227,0.0,0.0,0.0,0.0,0.0,0.0,0.0,0.0,0.0,0.0,0.0,0.0,0.0,0.0,0.0,0.0,0.0,0.0,-1.0661,0.0,0.0,-0.8804,-0.8804,-0.8804,-0.8804,-0.8804,-0.8804,-0.8804,0.0,0.0,0.0,0.0,0.0,-1.0127,0.0,0.0,-1.0618,-1.0618,-1.0618,-1.0618,-1.0618,-1.0618,-1.0618,-1.0618,-1.0618,-1.0618,-1.0618,-1.0591,-1.0577,-1.0604,-1.0591,0.0,0.0,0.0,-1.0672,-1.0862,-1.0755,0.0,0.0,0.0,0.0,0.0,0.0,0.0,0.0,0.0,0.0,0.0,0.0,0.0,0.0,0.0,0.0,0.0,0.0,0.0,0.0,0.0,0.0,0.0,0.0,0.0,0.0,0.0,0.0,0.0,-2.2274,-2.2721,-2.4156,-2.3411,-2.2273,-2.0372,-2.2833,-2.5477,-2.827,-2.844,-2.7434,-2.552,-2.6364,-2.5955,-2.4428,-2.568,-2.4017,-2.0388,-2.1742,-2.2413,-2.2692,-2.4008,-2.5488,-2.687,-2.5741,-2.5225,-2.5196,-2.5731,-2.5984,-2.6227,0.0,0.0,0.0,0.0,0.0,0.0,0.0,0.0,0.0,0.0,0.0,0.0,0.0,0.0,0.0,-1.1814,-1.1166,-1.0661,-1.0269,-0.9614,-0.9106,-0.8804,-0.8804,-0.8804,-0.8804,-0.8804,-0.8804,0.0,0.0,0.0,0.0,-0.9681,-0.9903,0.0,0.0,0.0,0.0,0.0,-1.0715,-1.0618,-1.0618,-1.0461,-1.0327,-1.0564,-1.0461,-1.0327,-1.0501,-1.0618,-1.0618,-1.0618,-1.0618,-1.0645,-1.0715,0.0,0.0,0.0,0.0,0.0,0.0,0.0,0.0,0.0,0.0,0.0,0.0,0.0,0.0,0.0,0.0,0.0,0.0,0.0,0.0,0.0,0.0,0.0,0.0,0.0,0.0,0.0,0.0,0.0,0.0,0.0,0.0,0.0,-2.1576,-2.2199,-2.3943,-2.3407,-2.2703,-2.226,-2.4006,-2.581,-2.7528,-2.7952,-2.771,-2.6918,-2.6427,-2.5909,-2.5544,-2.6056,-2.4628,-2.1583,-2.2901,-2.366,-2.3908,-2.5392,-2.6989,-2.8477,-2.7977,-2.7301,-2.6776,-2.695,-2.7002,-2.712,0.0,0.0,0.0,0.0,0.0,0.0,0.0,0.0,0.0,0.0,0.0,0.0,0.0,0.0,0.0,0.0,-1.1633,-1.1032,-1.0372,-0.9666,-0.9211,-0.9054,-0.891,-0.8804,-0.8804,-0.8804,0.0,0.0,0.0,0.0,-0.9496,-0.9479,-0.9662,0.0,-1.0325,0.0,0.0,0.0,0.0,0.0,-1.0658,-1.0421,-1.0247,-1.0474,-1.0421,-1.0261,-1.0474,-1.0618,-1.0618,-1.0618,-1.0618,-1.0631,-1.0712,-1.0675,0.0,0.0,0.0,0.0,0.0,0.0,0.0,0.0,0.0,0.0,0.0,0.0,0.0,0.0,0.0,0.0,0.0,0.0,0.0,0.0,0.0,0.0,0.0,0.0,0.0,0.0,0.0,0.0,0.0,0.0,0.0,0.0,-2.1853,-2.2441,-2.4401,-2.4029,-2.3977,-2.4637,-2.5218,-2.6023,-2.6959,-2.7228,-2.7361,-2.75,-2.6398,-2.6,-2.6295,-2.6406,-2.536,-2.3309,-2.4266,-2.4947,-2.529,-2.6798,-2.8114,-2.9242,-2.9361,-2.8652,-2.7427,-2.7535,-2.7571,-2.7571,0.0,0.0,0.0,0.0,0.0,0.0,0.0,0.0,0.0,0.0,0.0,0.0,-1.2891,-1.2871,-1.2822,-1.2822,-1.2822,-1.2461,-1.1765,-1.1065,-1.0407,-0.9769,-0.9159,0.0,-0.8804,-0.8804,0.0,0.0,0.0,0.0,-0.9029,-0.8873,-0.9424,-1.0372,-1.107,-1.1354,-1.1383,0.0,0.0,0.0,0.0,0.0,0.0,0.0,0.0,0.0,0.0,-1.0618,-1.0618,-1.0618,-1.0618,-1.0672,-1.0889,-1.0969,-1.0969,0.0,0.0,0.0,0.0,0.0,0.0,0.0,0.0,0.0,0.0,0.0,0.0,0.0,0.0,0.0,0.0,0.0,0.0,0.0,0.0,0.0,0.0,0.0,0.0,0.0,0.0,0.0,0.0,0.0,0.0,0.0,-2.4578,-2.5203,-2.6763,-2.6987,-2.709,-2.6865,-2.6602,-2.6686,-2.6968,-2.6968,-2.707,-2.7051,-2.6948,-2.6948,-2.6987,-2.7396,-2.6729,-2.529,-2.5804,-2.5987,-2.6154,-2.7638,-2.8301,-2.8379,-2.8789,-2.7936,-2.6655,-2.7014,-2.7158,-2.7158,0.0,0.0,0.0,0.0,0.0,0.0,0.0,0.0,0.0,0.0,0.0,0.0,0.0,-1.3125,-1.3184,-1.291,-1.2049,-1.1283,-1.0559,-0.9858,-0.942,-0.9159,-0.891,-0.8804,-0.8804,-0.8991,0.0,0.0,0.0,-0.8376,-0.9452,-0.8809,-0.9353,-1.0772,-1.0848,-1.1062,-1.141,-1.1116,0.0,0.0,0.0,0.0,0.0,0.0,0.0,0.0,0.0,0.0,0.0,-1.2993,-1.2772,-1.2553,-1.2613,-1.2505,-1.2429,0.0,0.0,0.0,0.0,0.0,0.0,0.0,0.0,0.0,0.0,0.0,0.0,0.0,0.0,0.0,0.0,0.0,0.0,0.0,0.0,0.0,0.0,0.0,0.0,0.0,0.0,0.0,0.0,0.0,0.0,0.0,0.0,-2.4233,-2.5664,-2.5759,-2.5877,-2.6172,-2.6073,-2.6209,-2.6602,-2.6328,-2.6348,-2.6602,-2.6602,-2.6758,-2.7031,-2.7168,-2.6917,-2.6418,-2.6553,-2.65,-2.6209,-2.7638,-2.8301,-2.8301,-2.8457,-2.8346,-2.8028,-2.8179,-2.8236,-2.8236,0.0,0.0,0.0,0.0,0.0,0.0,0.0,0.0,0.0,0.0,0.0,0.0,0.0,0.0,-1.2752,-1.2419,-1.1403,-1.0675,-1.0337,-0.9568,-0.9159,-0.9159,-0.891,-0.8804,-0.8804,-0.8991,0.0,0.0,0.0,0.0,0.0,-0.9232,-0.9644,-1.1022,-1.0816,-1.0987,0.0,0.0,0.0,-1.0766,0.0,0.0,-1.0524,0.0,0.0,0.0,0.0,0.0,0.0,0.0,0.0,0.0,0.0,0.0,0.0,0.0,0.0,0.0,0.0,0.0,0.0,0.0,0.0,0.0,0.0,0.0,0.0,0.0,0.0,0.0,0.0,0.0,0.0,0.0,0.0,0.0,0.0,0.0,0.0,0.0,0.0,0.0,0.0,0.0,0.0,0.0,0.0,0.0,-2.4844,-2.4927,-2.4952,-2.5158,-2.5197,-2.543,-2.5723,-2.543,-2.5508,-2.5937,-2.5937,-2.6172,-2.6582,-2.6738,-2.6797,-2.6836,-2.6987,-2.6842,-2.6747,-2.7649,-2.8155,-2.8301,-2.8301,-2.8457,-2.8711,-2.8711,-2.8711,-2.8711,0.0,0.0,0.0,0.0,0.0,0.0,0.0,0.0,0.0,0.0,0.0,0.0,0.0,0.0,0.0,-1.1305,-1.1009,-1.0943,-1.1251,-1.0331,-0.9799,-0.9799,-0.9187,-0.8831,-0.8831,-0.8844,0.0,0.0,0.0,0.0,0.0,0.0,-1.0176,-1.1048,-1.1048,-1.1209,-1.1451,0.0,-1.0982,-1.0969,0.0,-1.0806,-1.1102,0.0,0.0,0.0,-1.3031,-1.3302,0.0,-1.4131,0.0,0.0,0.0,0.0,0.0,0.0,0.0,0.0,0.0,0.0,0.0,0.0,0.0,0.0,0.0,0.0,0.0,0.0,0.0,0.0,0.0,0.0,0.0,0.0,0.0,0.0,0.0,0.0,0.0,0.0,0.0,0.0,0.0,0.0,0.0,0.0,-2.4394,-2.4394,-2.4375,-2.4638,-2.4618,-2.404,-2.4263,-2.4394,-2.4414,-2.4414,-2.4629,-2.5059,-2.5059,-2.5293,-2.5742,-2.6152,-2.6367,-2.6387,-2.6797,-2.7226,-2.7656,-2.769,-2.799,-2.8281,-2.8281,-2.8301,-2.8301,-2.8301,-2.8301,-2.8301,0.0,0.0,0.0,0.0,0.0,0.0,0.0,0.0,0.0,0.0,0.0,0.0,0.0,-1.2902,-1.2247,-1.1375,-1.0928,-1.0569,-1.0165,-0.9869,-0.9714,-0.9714,-0.9545,-0.9446,-0.9446,-0.9646,0.0,0.0,0.0,0.0,0.0,0.0,0.0,0.0,-1.16,-1.1959,-1.2491,-1.1213,0.0,0.0,-1.0902,-1.1511,0.0,0.0,0.0,0.0,0.0,-1.7327,-1.7509,0.0,-1.7192,-1.6835,0.0,0.0,0.0,0.0,0.0,0.0,-1.7687,0.0,0.0,0.0,0.0,0.0,0.0,0.0,0.0,0.0,0.0,0.0,0.0,0.0,0.0,0.0,0.0,0.0,0.0,0.0,0.0,0.0,0.0,0.0,0.0,0.0,0.0,0.0,-2.3789,-2.3828,-2.3516,-2.3516,-2.3742,-2.3965,-2.3615,-2.3751,-2.4414,-2.4414,-2.4473,-2.459,-2.459,-2.4824,-2.5254,-2.5371,-2.5605,-2.5918,-2.6035,-2.6348,-2.6816,-2.7439,-2.7815,-2.7871,-2.8184,-2.8301,-2.8301,-2.8301,-2.8301,-2.8301,0.0,0.0,0.0,0.0,0.0,0.0,0.0,0.0,0.0,0.0,0.0,0.0,0.0,0.0,-1.2164,-1.136,-1.0697,-1.0177,-0.986,-0.9753,-0.9686,-0.9686,-0.9686,-0.9846,-1.0179,-1.0362,0.0,0.0,0.0,0.0,0.0,0.0,0.0,0.0,0.0,0.0,0.0,0.0,0.0,0.0,-1.1703,0.0,0.0,-1.4805,-1.57,0.0,0.0,0.0,-1.8689,-1.8627,-1.8242,0.0,0.0,0.0,0.0,0.0,0.0,0.0,0.0,0.0,0.0,0.0,0.0,0.0,-1.6016,-1.6367,0.0,0.0,0.0,0.0,0.0,0.0,0.0,0.0,0.0,0.0,0.0,0.0,0.0,0.0,0.0,0.0,0.0,-2.3379,-2.3418,-2.3164,-2.3379,-2.3398,-2.3144,-2.3144,-2.3262,-2.3624,-2.3279,-2.3306,-2.3887,-2.3887,-2.3984,-2.416,-2.416,-2.4375,-2.4805,-2.4805,-2.4941,-2.5215,-2.5334,-2.5645,-2.5918,-2.6836,-2.7383,-2.7695,-2.793,-2.8144,-2.8301,-2.8301,-2.8301,-2.8301,0.0,0.0,0.0,0.0,0.0,0.0,0.0,0.0,0.0,0.0,0.0,0.0,0.0,0.0,0.0,-1.1465,-1.0519,-1.0005,-1.0154,-0.9927,-0.978,-0.978,-0.9897,-1.0291,-1.0955,-1.1069,0.0,0.0,0.0,0.0,0.0,0.0,0.0,0.0,0.0,0.0,0.0,0.0,0.0,-1.3857,-1.2979,-1.3505,0.0,0.0,-1.5942,-1.6297,-1.7868,-1.8224,-1.8101,-1.8485,-1.8144,0.0,0.0,0.0,0.0,0.0,-1.7754,0.0,0.0,0.0,0.0,0.0,0.0,0.0,-1.6694,-1.6777,-1.6797,0.0,0.0,0.0,0.0,0.0,0.0,0.0,0.0,0.0,0.0,0.0,0.0,0.0,0.0,0.0,-2.3008,-2.3008,-2.3027,-2.3066,-2.3105,-2.3144,-2.3144,-2.3144,-2.3144,-2.3144,-2.3144,-2.3144,-2.3144,-2.3144,-2.334,-2.3711,-2.3711,-2.3945,-2.4355,-2.4355,-2.4375,-2.4453,-2.487,-2.5025,-2.5212,-2.5954,-2.6724,-2.7539,-2.7637,-2.7891,-2.8223,-2.8281,-2.8301,-2.8301,-1.2891,0.0,0.0,0.0,0.0,0.0,0.0,0.0,0.0,0.0,0.0,0.0,0.0,0.0,0.0,-1.2302,-1.1717,-1.1124,-1.0524,-1.0421,-1.0456,-1.0456,-1.1048,-1.1463,-1.1631,-1.2253,0.0,0.0,0.0,0.0,0.0,0.0,0.0,0.0,0.0,0.0,0.0,0.0,0.0,-1.5952,-1.4374,0.0,-1.626,-1.6403,-1.7095,-1.8124,-1.8854,-1.9062,-1.9,-1.8718,-1.8535,-1.834,0.0,0.0,0.0,0.0,0.0,0.0,0.0,0.0,0.0,0.0,0.0,0.0,-1.6894,-1.7012,-1.7168,0.0,0.0,0.0,0.0,0.0,0.0,0.0,0.0,0.0,0.0,0.0,0.0,0.0,0.0,0.0,-2.2129,-2.2129,-2.2266,-2.2617,-2.2949,-2.3144,-2.3144,-2.3144,-2.3144,-2.3144,-2.3144,-2.3144,-2.3144,-2.3144,-2.3184,-2.3262,-2.3262,-2.3496,-2.3906,-2.3906,-2.4102,-2.4434,-2.4477,-2.4711,-2.5098,-2.5295,-2.5838,-2.6699,-2.7402,-2.7715,-2.7832,-2.8164,-2.8301,-2.8301,-1.2891,0.0,0.0,0.0,0.0,0.0,0.0,0.0,0.0,0.0,0.0,0.0,0.0,0.0,0.0,0.0,0.0,-1.2774,-1.216,-1.2082,-1.2022,-1.1794,-1.2212,-1.2565,-1.2992,-1.3356,0.0,0.0,0.0,0.0,0.0,0.0,0.0,0.0,0.0,0.0,0.0,0.0,-1.6262,-1.6922,-1.5626,0.0,-1.7022,-1.7436,-1.7999,-1.8691,-1.9141,-1.9141,-1.8926,-1.8711,-1.8496,0.0,0.0,-1.8457,-1.8523,0.0,-1.8477,-1.8535,0.0,0.0,0.0,-1.8008,0.0,0.0,0.0,-1.7519,-1.7383,0.0,0.0,0.0,0.0,0.0,0.0,0.0,0.0,0.0,0.0,0.0,0.0,0.0,0.0,0.0,-2.123,-2.123,-2.1406,-2.1836,-2.2616,-2.2978,-2.2729,-2.2539,-2.2415,-2.2291,-2.2609,-2.2832,-2.2832,-2.3027,-2.3144,-2.3144,-2.3144,-2.3242,-2.3457,-2.3457,-2.3574,-2.3789,-2.4028,-2.4382,-2.4785,-2.4967,-2.5488,-2.6133,-2.6777,-2.7285,-2.7695,-2.791,-2.8105,-2.8301,-1.2891,0.0,0.0,0.0,0.0,0.0,0.0,0.0,0.0,0.0,0.0,0.0,0.0,0.0,0.0,0.0,0.0,0.0,0.0,0.0,0.0,-1.3124,-1.3291,-1.3623,-1.4213,-1.4332,-1.4746,0.0,0.0,0.0,0.0,0.0,0.0,0.0,0.0,0.0,0.0,0.0,0.0,-1.7317,0.0,-1.6864,-1.7578,-1.8262,-1.8446,-1.8555,-1.8906,-1.8926,-1.873,-1.8574,-1.834,-1.8184,-1.8437,-1.8633,0.0,0.0,0.0,0.0,0.0,0.0,0.0,0.0,0.0,-1.8301,0.0,0.0,0.0,0.0,0.0,0.0,0.0,0.0,0.0,0.0,0.0,0.0,0.0,0.0,0.0,0.0,0.0,0.0,0.0,-2.0391,-2.0586,-2.0957,-2.215,-2.2655,-2.2103,-2.1777,-2.1574,-2.153,-2.2104,-2.2441,-2.2519,-2.2852,-2.3066,-2.3144,-2.3144,-2.3144,-2.3144,-2.3144,-2.3144,-2.3144,-2.3505,-2.3979,-2.4473,-2.4775,-2.5257,-2.5781,-2.6211,-2.6816,-2.7441,-2.7617,-2.7891,-2.8184,-1.2891,-1.2891,0.0,0.0,0.0,0.0,0.0,0.0,0.0,0.0,0.0,0.0,0.0,0.0,0.0,0.0,0.0,0.0,-1.5307,0.0,0.0,0.0,-1.4302,-1.4513,-1.4213,-1.4864,-1.5294,0.0,0.0,0.0,0.0,0.0,0.0,0.0,-1.6465,0.0,0.0,0.0,-1.7344,0.0,-1.7706,-1.7862,0.0,-1.8047,-1.8086,-1.8086,-1.8144,-1.8613,-1.9102,0.0,-1.8301,-1.8516,0.0,-1.8594,-1.9062,0.0,0.0,0.0,0.0,0.0,0.0,0.0,-1.8887,0.0,0.0,0.0,-1.8301,-1.7598,0.0,0.0,0.0,0.0,0.0,0.0,0.0,0.0,0.0,0.0,0.0,0.0,0.0,0.0,0.0,-1.9766,-2.0,-2.0059,-2.1286,-2.1847,-2.1309,-2.0989,-2.1063,-2.1855,-2.1934,-2.2129,-2.25,-2.2559,-2.2773,-2.3144,-2.3144,-2.3144,-2.3144,-2.3144,-2.3144,-2.3144,-2.3144,-2.3633,-2.4434,-2.4446,-2.4928,-2.5781,-2.6211,-2.6445,-2.6621,-2.7383,-2.7695,-2.7793,-1.2891,-1.2891,0.0,0.0,0.0,0.0,0.0,0.0,0.0,0.0,0.0,0.0,0.0,0.0,0.0,0.0,0.0,-1.6797,0.0,0.0,0.0,0.0,0.0,0.0,0.0,-1.5988,-1.6172,-1.6172,-1.5918,0.0,0.0,0.0,0.0,0.0,-1.6641,0.0,-1.7383,0.0,0.0,0.0,0.0,0.0,0.0,-1.8008,-1.8008,-1.8008,-1.8008,-1.8242,-1.8496,0.0,-1.8281,0.0,0.0,0.0,0.0,0.0,0.0,0.0,0.0,0.0,0.0,0.0,0.0,0.0,-1.8828,0.0,-1.8535,0.0,0.0,0.0,0.0,0.0,0.0,0.0,0.0,0.0,0.0,0.0,0.0,0.0,0.0,0.0,0.0,0.0,0.0,0.0,-1.9871,-2.0092,-1.9887,-2.0024,-2.0256,-2.0742,-2.125,-2.1582,-2.1777,-2.2266,-2.2598,-2.2773,-2.3027,-2.3144,-2.3144,-2.3144,-2.3144,-2.3144,-2.3144,-2.3477,-2.4082,-2.4291,-2.4811,-2.5391,-2.584,-2.6172,-2.6465,-2.707,-2.7441,-2.7734,-1.3184,0.0,0.0,0.0,0.0,0.0,0.0,0.0,0.0,0.0,0.0,0.0,-1.8691,-1.8887,0.0,0.0,-1.9336,-1.8652,0.0,0.0,-1.7031,0.0,0.0,0.0,0.0,0.0,-1.6675,0.0,0.0,0.0,0.0,0.0,0.0,0.0,0.0,-1.7266,-1.7559,0.0,0.0,-1.8008,-1.8008,-1.8008,-1.8008,-1.8008,-1.8008,-1.8008,-1.8008,-1.8008,-1.8027,-1.8144,-1.8379,0.0,-1.916,0.0,0.0,0.0,0.0,0.0,-1.9453,0.0,0.0,0.0,0.0,0.0,0.0,0.0,0.0,0.0,0.0,0.0,0.0,0.0,0.0,0.0,0.0,0.0,0.0,0.0,0.0,0.0,0.0,0.0,0.0,0.0,0.0,-1.8676,-1.8691,-1.8653,-1.8653,-1.9341,-1.9785,-1.9902,-2.0644,-2.1113,-2.123,-2.1855,-2.2227,-2.2344,-2.2773,-2.2969,-2.2969,-2.3086,-2.3144,-2.3144,-2.3144,-2.3379,-2.3828,-2.4113,-2.4539,-2.5098,-2.543,-2.582,-2.6269,-2.6816,-2.7226,-2.7559,-1.3926,-1.3769,0.0,0.0,0.0,0.0,0.0,0.0,0.0,0.0,0.0,0.0,0.0,0.0,0.0,0.0,0.0,-1.916,-2.041,0.0,-1.7793,0.0,0.0,-1.7168,0.0,0.0,0.0,0.0,0.0,0.0,0.0,0.0,0.0,0.0,0.0,-1.7969,-1.7988,-1.7988,-1.8008,-1.8008,-1.8008,-1.8008,-1.8008,0.0,-1.8008,-1.8008,-1.8008,0.0,0.0,-1.8477,-1.8633,0.0,0.0,0.0,0.0,0.0,0.0,0.0,0.0,0.0,0.0,-1.9902,0.0,0.0,0.0,0.0,-1.8562,0.0,0.0,0.0,0.0,0.0,0.0,0.0,0.0,0.0,0.0,0.0,0.0,0.0,0.0,0.0,0.0,0.0,0.0,-1.8061,-1.8006,-1.8047,-1.8047,-1.912,-1.9772,-1.9902,-2.0352,-2.0801,-2.123,-2.1269,-2.1484,-2.1914,-2.2324,-2.2539,-2.2539,-2.2949,-2.3144,-2.3144,-2.3144,-2.3379,-2.3789,-2.3809,-2.4316,-2.5059,-2.5078,-2.5371,-2.5859,-2.6699,-2.7031,-2.7148,0.0,0.0,0.0,0.0,0.0,0.0,0.0,-1.6309,0.0,0.0,0.0,0.0,0.0,-2.0742,-2.1035,0.0,0.0,-2.0547,-2.0977,-1.9668,0.0,0.0,0.0,-1.8437,0.0,0.0,0.0,0.0,0.0,0.0,0.0,0.0,0.0,0.0,0.0,-1.7754,0.0,0.0,0.0,0.0,0.0,-1.8184,-1.8398,0.0,0.0,-1.8008,-1.8008,-1.8008,0.0,-1.8496,-1.8828,-1.9141,-1.957,-2.0,-2.0312,-2.0176,-2.0039,0.0,0.0,0.0,-1.998,-2.0273,0.0,0.0,0.0,0.0,0.0,0.0,0.0,0.0,0.0,0.0,0.0,0.0,0.0,0.0,0.0,0.0,0.0,0.0,0.0,0.0,0.0,0.0,0.0,-1.8001,-1.7777,-1.7684,-1.7962,-1.8942,-1.9448,-1.9492,-2.0195,-2.0644,-2.0781,-2.1094,-2.1465,-2.1894,-2.2305,-2.2656,-2.293,-2.3086,-2.3144,-2.3144,-2.3144,-2.3223,-2.3379,-2.3672,-2.4121,-2.4668,-2.4961,-2.5352,-2.584,-2.6699,-2.7012,-2.7129,-1.5386,0.0,0.0,0.0,0.0,0.0,0.0,0.0,0.0,0.0,-1.9512,0.0,-2.1738,0.0,-2.2109,0.0,-2.209,-2.1562,-2.125,-2.0449,0.0,-1.9922,-1.9648,0.0,0.0,0.0,0.0,0.0,0.0,-1.7734,0.0,0.0,0.0,0.0,0.0,0.0,0.0,0.0,-1.7773,0.0,0.0,-1.8164,0.0,0.0,-1.832,-1.8457,0.0,-1.8457,-1.8535,-1.8945,-1.9277,-1.959,-2.0019,-2.0332,-2.0566,-2.0566,-2.0371,-2.0195,-2.0488,-2.0352,0.0,-2.0488,-2.0449,0.0,-2.0176,0.0,0.0,0.0,0.0,0.0,0.0,0.0,0.0,0.0,0.0,0.0,0.0,-1.8008,0.0,0.0,0.0,0.0,0.0,0.0,-1.7625,-1.7553,-1.7605,-1.7711,0.0,0.0,-1.9297,-1.9297,-2.0117,-2.0566,-2.0566,-2.0859,-2.1211,-2.166,-2.209,-2.2519,-2.293,-2.3066,-2.3144,-2.3144,-2.3144,-2.3144,-2.3164,-2.3437,-2.3906,-2.4453,-2.4727,-2.5215,-2.584,-2.6699,-2.7207,-2.7539,0.0,0.0,0.0,0.0,-1.582,0.0,0.0,0.0,-1.9297,0.0,-2.0488,-2.1465,-2.1894,-2.1953,-2.2266,-2.3066,-2.2773,-2.2207,-2.1387,-2.1309,0.0,0.0,-1.998,-1.9766,-1.9336,0.0,0.0,0.0,0.0,0.0,0.0,0.0,0.0,0.0,-1.8008,0.0,-1.8008,-1.8008,-1.8008,-1.8008,-1.8008,-1.8027,-1.8125,-1.8516,-1.8945,-1.9355,-1.9297,-1.9297,-1.9355,-1.9766,-1.9922,-1.998,-2.043,-2.0566,-2.0566,-2.0566,-2.0566,-2.0566,-2.0566,-2.0566,-2.0566,-2.0566,-2.0254,0.0,0.0,0.0,-1.998,0.0,0.0,0.0,0.0,0.0,0.0,0.0,0.0,0.0,0.0,0.0,0.0,0.0,0.0,0.0,0.0,-1.7988,-1.7639,-1.6919,-1.7561,0.0,0.0,0.0,-1.9297,-1.9297,-2.0117,-2.0566,-2.0566,-2.0566,-2.0801,-2.1269,-2.1699,-2.2109,-2.2559,-2.2949,-2.3144,-2.3144,-2.3144,-2.3144,-2.3144,-2.3144,-2.3652,-2.4414,-2.4414,-2.4961,-2.5879,-2.6699,-2.7539,-2.8262,-1.5801,-1.6074,-1.6269,0.0,-1.6484,-1.6719,0.0,0.0,0.0,0.0,-2.1367,-2.2344,-2.2773,-2.2812,-2.291,-2.3125,-2.3047,0.0,0.0,0.0,0.0,-2.1406,-2.1074,-2.0527,-1.9766,-1.9336,0.0,-1.8477,0.0,0.0,-1.8008,0.0,0.0,0.0,0.0,0.0,-1.8008,-1.8008,-1.8008,-1.8008,-1.8008,-1.8398,0.0,0.0,-1.959,-2.0156,-1.9512,-1.9297,-1.9355,-1.9766,-1.9922,-1.998,-2.043,-2.0566,-2.0566,-2.0566,-2.0566,-2.0566,-2.0566,-2.0566,-2.0566,-2.0566,-2.0488,-2.043,0.0,0.0,0.0,0.0,0.0,0.0,0.0,0.0,0.0,0.0,0.0,0.0,0.0,0.0,0.0,-1.9499,0.0,0.0,0.0,-1.8115,-1.7966,-1.8827,-1.8076,0.0,0.0,0.0,0.0,-1.9297,-2.0117,-2.0566,-2.0566,-2.0566,-2.0957,-2.1719,-2.1836,-2.2266,-2.2988,-2.3086,-2.3144,-2.3144,-2.3144,-2.3144,-2.3144,-2.3144,-2.3652,-2.4414,-2.4414,-2.5156,-2.6289,-2.6816,-2.7363,-2.7871,-1.6076,0.0,0.0,-1.7492,0.0,0.0,-1.8008,0.0,0.0,-2.0801,-2.2148,0.0,-2.2871,-2.3203,-2.334,-2.3164,-2.3144,0.0,-2.2871,0.0,0.0,-2.2168,-2.1738,-2.1113,-2.0215,-1.9414,0.0,-1.8891,0.0,0.0,-1.8596,0.0,0.0,0.0,0.0,-1.8008,0.0,-1.8008,-1.8125,-1.8281,-1.8281,0.0,0.0,-1.9414,-1.9863,-2.0234,-1.9941,-1.9844,-1.9883,-2.0117,-2.0195,-2.0234,-2.0488,-2.0566,-2.0566,-2.0566,-2.0566,-2.0566,-2.0566,-2.0566,-2.0566,-2.0566,-2.0566,-2.0566,-2.0566,-2.0762,-2.0879,0.0,-2.0566,-2.0643,0.0,0.0,0.0,0.0,0.0,0.0,0.0,0.0,0.0,0.0,-1.9892,0.0,0.0,0.0,-1.9062,-1.9632,0.0,0.0,0.0,0.0,0.0,-1.9297,-2.0312,-2.0762,-2.0566,-2.0957,-2.1387,-2.1894,-2.207,-2.25,-2.3144,-2.3144,-2.3144,-2.3144,-2.3144,-2.3144,-2.3144,-2.3144,-2.3652,-2.4453,-2.4844,-2.5449,-2.6172,-2.6797,-2.7285,-2.7734,0.0,0.0,0.0,0.0,0.0,0.0,0.0,-2.0605,0.0,-2.1568,0.0,-2.3555,-2.2676,-2.3262,-2.3555,-2.3184,0.0,-2.2988,-2.2617,-2.293,-2.293,-2.2441,-2.209,-2.1445,-2.0508,-1.9316,-1.8934,0.0,0.0,0.0,0.0,0.0,0.0,0.0,0.0,0.0,0.0,-1.8008,-1.8262,-1.8562,-1.8562,-1.864,-1.8887,-1.9629,-1.9941,-2.0059,-2.043,-2.0566,-2.0566,-2.0566,-2.0566,-2.0566,-2.0566,-2.0566,-2.0566,-2.0566,-2.0566,-2.0566,-2.0566,-2.0566,-2.0566,-2.0566,-2.0566,-2.0566,-2.0566,-2.0566,-2.0566,-2.0566,-2.0566,-2.0857,0.0,0.0,0.0,0.0,0.0,0.0,0.0,0.0,0.0,0.0,0.0,0.0,0.0,0.0,0.0,0.0,0.0,0.0,0.0,0.0,0.0,-1.9297,-2.0488,-2.1056,-2.0878,0.0,-2.2165,-2.2449,-2.2745,-2.3057,-2.3299,-2.3299,-2.3319,-2.3271,-2.3144,-2.3223,-2.3428,-2.3262,-2.373,-2.459,-2.541,-2.5742,-2.584,-2.6699,-2.7266,-2.7656,0.0,0.0,0.0,0.0,0.0,-2.2898,-2.3238,-2.3338,-2.3414,-2.3722,-2.4055,-2.3984,-2.3125,-2.3164,-2.3223,-2.3144,-2.3144,0.0,0.0,0.0,0.0,-2.2031,-2.1934,-2.1309,-2.0059,-1.9473,-1.9625,0.0,0.0,0.0,0.0,0.0,0.0,0.0,0.0,0.0,-1.8008,-1.8008,0.0,-1.8562,-1.8562,-1.9062,-1.9707,-1.9863,-2.0137,-2.0469,-2.0527,-2.0566,-2.0566,-2.0566,-2.0566,-2.0566,-2.0566,-2.0566,-2.0566,-2.0566,-2.0566,-2.0566,-2.0566,-2.0566,-2.0566,-2.0566,-2.0566,-2.0566,-2.0566,-2.0566,-2.0566,-2.0566,-2.0566,-2.0857,-2.1811,0.0,0.0,0.0,0.0,0.0,0.0,0.0,0.0,0.0,0.0,-2.2614,0.0,0.0,0.0,0.0,0.0,0.0,0.0,0.0,0.0,0.0,-2.0195,0.0,0.0,0.0,-2.3573,-2.5128,-2.5216,-2.501,-2.4532,-2.4532,-2.4526,-2.4445,-2.3505,-2.3791,-2.4906,-2.4047,-2.418,-2.5,-2.5527,-2.5742,-2.584,-2.6699,-2.707,-2.7246,0.0,0.0,0.0,0.0,0.0,0.0,0.0,-2.6405,0.0,-2.504,-2.4959,-2.4525,-2.331,-2.334,-2.3379,-2.3164,-2.3144,-2.3144,-2.3144,-2.3144,-2.2852,-2.2246,-2.1992,0.0,-1.9941,-1.9277,-1.9636,-2.1144,0.0,0.0,0.0,0.0,0.0,0.0,0.0,-1.8457,0.0,0.0,0.0,-1.8984,-1.9219,-1.9551,-1.9941,-2.0156,-2.0391,-2.0566,-2.0566,-2.0566,-2.0566,-2.0566,-2.0566,-2.0566,-2.0566,-2.0566,-2.0566,-2.0566,-2.0566,-2.0566,-2.0566,-2.0566,-2.0566,-2.0566,-2.0566,-2.0566,-2.0566,-2.0566,-2.0566,-2.0566,-2.0566,-2.0931,-2.2167,-2.367,0.0,0.0,0.0,0.0,0.0,0.0,0.0,0.0,0.0,0.0,0.0,0.0,0.0,0.0,0.0,0.0,0.0,0.0,0.0,0.0,0.0,0.0,0.0,0.0,0.0,-2.5017,-2.5174,-2.5059,-2.4787,-2.4787,-2.4826,-2.479,-2.4869,-2.4968,-2.5006,-2.4374,-2.4355,-2.4805,-2.5469,-2.5742,-2.584,-2.6699,-2.7012,-2.7129,0.0,-2.4646,0.0,0.0,-2.6271,0.0,-2.9664,-2.9192,-2.8069,-2.665,-2.6216,-2.5417,-2.3707,-2.3791,-2.3762,-2.3164,-2.3144,-2.3144,-2.3144,-2.3144,-2.2949,-2.2539,-2.2109,-2.1389,-2.0361,-1.9489,-1.992,0.0,0.0,0.0,0.0,0.0,0.0,0.0,0.0,0.0,0.0,0.0,-1.9023,-1.9453,-1.9785,-2.0112,-2.0381,-2.0738,-2.0934,-2.0934,-2.1165,-2.1088,-2.0934,-2.0934,-2.0779,-2.0566,-2.0566,-2.0566,-2.0566,-2.0566,-2.0566,-2.0566,-2.0566,-2.0566,-2.0566,-2.0566,-2.0566,-2.0566,-2.0566,-2.0566,-2.0566,-2.0566,-2.0934,-2.1576,-2.265,-2.4943,0.0,0.0,0.0,0.0,0.0,0.0,0.0,0.0,0.0,0.0,-2.313,0.0,0.0,0.0,0.0,0.0,0.0,0.0,0.0,0.0,0.0,-2.1133,-2.187,0.0,-2.4156,-2.4962,-2.5101,-2.5104,-2.4893,-2.5104,-2.519,-2.5207,-2.6206,-2.6149,-2.5269,-2.5097,-2.4967,-2.4766,-2.5469,-2.5742,-2.584,-2.6981,-2.7399,-2.7518,0.0,0.0,0.0,0.0,0.0,0.0,-3.0405,-3.126,-3.1174,-2.9593,-2.8391,-2.6889,-2.4892,-2.4659,-2.4251,-2.3232,-2.3144,-2.3144,-2.3144,-2.3144,-2.2949,-2.2539,-2.2109,-2.1829,-2.1769,-2.0855,-2.1359,0.0,0.0,-2.2259,0.0,0.0,0.0,0.0,0.0,0.0,0.0,-1.9673,-1.9473,-1.9863,-1.9902,-2.0647,-2.1824,-2.1866,-2.1886,-2.1962,-2.2936,-2.2638,-2.1886,-2.1886,-2.1298,-2.0566,-2.0566,-2.0566,-2.0566,-2.0566,-2.0566,-2.0566,-2.0566,-2.0566,-2.0566,-2.0566,-2.0566,-2.0566,-2.0566,-2.0566,-2.0566,-2.0566,-2.1962,-2.3283,-2.3385,-2.5493,-2.7017,0.0,0.0,0.0,0.0,0.0,0.0,0.0,0.0,0.0,0.0,-2.3115,0.0,0.0,0.0,0.0,0.0,0.0,0.0,-2.1115,0.0,-2.0703,-2.328,-2.2717,-2.409,-2.7289,-2.664,-2.6019,-2.5348,-2.6041,-2.6318,-2.6385,-2.6976,-2.7064,-2.6689,-2.717,-2.6622,-2.5625,-2.5703,-2.5742,-2.5937,-2.8037,-2.8844,-2.899,0.0,0.0,0.0,0.0,0.0,0.0,0.0,-3.1321,-3.0943,-3.036,-2.9201,-2.7927,-2.6341,-2.5381,-2.4617,-2.4125,-2.3474,-2.3144,-2.3144,-2.3144,-2.3189,-2.3492,-2.3043,-2.2845,-2.3032,-2.2352,-2.2635,0.0,0.0,0.0,0.0,0.0,0.0,0.0,0.0,-2.0239,-2.1165,-2.0731,-2.0614,-2.0872,-2.1734,-2.2391,-2.2914,-2.2914,-2.2914,-2.2914,-2.3379,-2.3209,-2.2914,-2.2914,-2.2264,-2.1375,-2.0779,-2.0566,-2.0566,-2.0566,-2.0566,-2.0566,-2.0566,-2.0566,-2.0566,-2.0566,-2.0566,-2.0779,-2.1298,-2.1451,-2.1603,-2.2188,-2.3452,-2.4181,-2.3599,-2.5034,-2.6239,-2.6068,0.0,0.0,0.0,0.0,0.0,0.0,0.0,0.0,0.0,0.0,0.0,0.0,0.0,0.0,0.0,0.0,0.0,-2.0192,0.0,-2.2865,-2.4073,-2.4639,-2.5916,-2.7933,-2.8322,-2.7951,-2.7059,-2.7313,-2.8032,-2.8955,-2.8486,-2.8414,-2.8627,-2.8431,-2.7991,-2.7594,-2.8147,-2.8359,-2.8561,-3.009,-3.0636,-3.0723,-3.11,0.0,-3.0902,0.0,-3.1196,-3.0748,-3.1772,-3.1146,-3.0528,-3.0548,-2.977,-2.8573,-2.706,-2.591,-2.5041,-2.4382,-2.3541,-2.3144,-2.3144,-2.3144,-2.3275,-2.3659,-2.341,0.0,-2.3599,-2.3406,-2.349,-2.405,-2.3052,0.0,0.0,0.0,0.0,0.0,-2.1553,-2.1259,-2.2433,-2.2142,-2.1996,-2.2091,-2.3077,-2.3672,-2.3963,-2.3963,-2.3963,-2.3963,-2.4253,-2.4181,-2.3963,-2.3963,-2.3452,-2.2691,-2.1756,-2.1451,-2.1451,-2.1451,-2.1451,-2.1451,-2.1451,-2.1451,-2.1451,-2.1451,-2.1451,-2.1603,-2.2264,-2.2414,-2.2616,-2.3379,-2.4441,-2.4872,-2.3694,-2.49,-2.5914,-2.5222,0.0,0.0,0.0,-2.6552,0.0,0.0,-2.5059,-2.4833,-2.4305,-2.423,0.0,0.0,0.0,0.0,0.0,0.0,0.0,0.0,0.0,0.0,0.0,-2.6279,-2.7214,-2.7599,-2.8426,-2.8763,-2.8595,-2.845,-2.9343,-3.1029,-3.023,-3.0019,-3.0153,-2.9723,-2.9262,-2.9083,-2.9914,-3.0229,-3.0341,-3.1353,-3.1909,-3.2271,-3.0515,-3.0635,-3.0979,-3.2047,-3.2215,-3.2014,-3.1486,-3.0959,-3.0633,-3.0608,-3.0131,-2.8973,-2.673,-2.6483,-2.5568,-2.3299,-2.3144,-2.3144,-2.3144,-2.3144,-2.2949,0.0,0.0,-2.3322,-2.3301,-2.3913,-2.3886,-2.3334,0.0,0.0,-2.1219,0.0,-2.2188,-2.485,-2.284,-2.3062,-2.4921,-2.3891,-2.343,-2.3503,-2.3526,-2.4108,-2.5016,-2.5016,-2.5016,-2.5087,-2.6094,-2.5816,-2.5016,-2.5016,-2.4945,-2.4779,-2.3818,-2.343,-2.343,-2.343,-2.343,-2.343,-2.343,-2.343,-2.343,-2.343,-2.343,-2.3452,-2.3526,-2.3526,-2.3526,-2.3526,-2.4719,-2.5345,-2.3762,-2.5553,-2.647,-2.392,0.0,0.0,0.0,0.0,0.0,-2.5661,-2.5586,-2.5385,-2.4858,0.0,0.0,0.0,0.0,0.0,0.0,0.0,0.0,-2.5682,-2.3854,0.0,-2.5801,-2.6953,-2.7267,-2.6485,-2.6549,-2.7673,-2.9776,-2.9141,-3.0073,-3.2215,-3.2201,-3.1758,-3.1199,-3.1199,-3.0485,-2.9441,-3.0027,-3.0229,-3.0341,-3.1353,-3.2494,-3.3576,-3.1586,-3.1388,-3.1224,-3.1555,-3.1662,-3.1461,-3.0934,-3.0708,-3.0482,-3.0105,-2.9905,-2.9209,-2.7763,-2.6953,-2.6235,0.0,-2.3973,-2.3474,0.0,-2.4296,-2.4893,-2.6214,-2.6143,-2.634,-2.7061,-2.6578,-2.6254,-2.6045,0.0,0.0,0.0,-2.1975,-2.3136,-2.5955,-2.3963,-2.3745,-2.5016,-2.4636,-2.4492,-2.4564,-2.5276,-2.5721,-2.6025,-2.6025,-2.6025,-2.6094,-2.6396,-2.6302,-2.6025,-2.6025,-2.6025,-2.5955,-2.5652,-2.4612,-2.3526,-2.3526,-2.3526,-2.3526,-2.3526,-2.3526,-2.3526,-2.3526,-2.3526,-2.3672,-2.4348,-2.5063,-2.5581,-2.5581,-2.6208,-2.6239,-2.4362,-2.517,-2.5769,-2.4723,-2.4934,0.0,-2.6453,0.0,0.0,-2.5661,-2.5586,-2.5536,-2.536,-2.536,0.0,0.0,0.0,0.0,0.0,0.0,0.0,0.0,-2.6212,0.0,-2.6933,-2.8361,-2.8973,-2.8753,-2.8743,-2.9297,-3.0398,-3.0507,-3.1215,-3.224,-3.2226,-3.2327,-3.2525,-3.2525,-3.2239,-3.1962,-3.2949,-3.3314,-3.3436,-3.4506,-3.5206,-3.5515,-3.2139,-3.2114,-3.1888,-3.1461,-3.1562,-3.1461,-3.0733,-3.0608,-3.0407,-2.9854,-2.9804,-2.9546,-2.8846,-2.7787,0.0,-2.5964,-2.4553,-2.4039,-2.4787,-2.4787,-2.5543,-2.7162,-2.7254,-2.7478,-2.7734,-2.7457,0.0,-2.6456,-2.4453,-2.3526,-2.3526,-2.284,-2.3795,-2.5886,-2.4636,-2.4636,-2.5581,-2.5581,-2.5581,-2.5581,-2.6233,-2.6533,-2.6533,-2.6533,-2.6533,-2.6533,-2.6533,-2.6533,-2.6533,-2.6533,-2.6533,-2.6533,-2.6533,-2.5652,-2.4612,-2.4612,-2.4612,-2.4612,-2.4612,-2.4612,-2.4612,-2.4612,-2.4612,-2.4755,-2.5441,-2.6025,-2.6533,-2.6533,-2.6892,-2.6695,-2.4858,-2.5264,-2.562,-2.4633,-2.483,-2.5367,-2.6308,0.0,0.0,0.0,0.0,0.0,0.0,-2.6113,-2.644,0.0,0.0,0.0,0.0,0.0,0.0,-2.6627,-2.7804,0.0,-2.8358,-2.9493,-3.0005,-2.9804,-3.0108,-3.0532,-3.1235,-3.1547,-3.1972,-3.2541,-3.2511,-3.2771,-3.3068,-3.3068,-3.3194,-3.347,-3.4374,-3.4851,-3.5036,-3.5441,-3.5953,-3.6358,-3.2215,-3.2591,-3.2591,0.0,-3.1788,0.0,-3.0758,-3.0608,-3.0407,-2.9854,-2.9804,-2.9804,-2.9804,-2.8846,-2.736,-2.521,0.0,0.0,0.0,-2.5041,-2.533,-2.5984,-2.6909,-2.6988,-2.5995,-2.6821,-2.653,-2.497,-2.4048,-2.3599,-2.3599,-2.3599,-2.4108,-2.5087,-2.5087,-2.5581,-2.6533,-2.6533,-2.6533,-2.6533,-2.6533,-2.6533,-2.6533,-2.6533,-2.6533,-2.6533,-2.6533,-2.6533,-2.6533,-2.6533,-2.6533,-2.6533,-2.6533,-2.6533,-2.6533,-2.6533,-2.6533,-2.6533,-2.6533,-2.6533,-2.6533,-2.6533,-2.6533,-2.6533,-2.6584,-2.6584,-2.6609,-2.6634,-2.7017,-2.6934,-2.5397,-2.5894,-2.5901,-2.3994,-2.4788,-2.549,-2.5111,-2.5861,0.0,0.0,0.0,0.0,-2.6584,-2.6992,-2.7092,0.0,0.0,0.0,0.0,0.0,-2.762,-2.8147,-2.8699,-2.9277,-2.9854,-3.0407,-3.0407,-2.9905,-3.0612,-3.1392,-3.2215,-3.2265,-3.2566,-3.3068,-3.3068,-3.3068,-3.3068,-3.3068,-3.337,-3.3897,-3.45,-3.5027,-3.5369,-3.4776,-3.5379,-3.6263,0.0,0.0,-3.1235,-3.1361,-3.116,-3.0909,-3.0658,-3.0608,-3.0407,-2.9854,-2.9804,-2.9804,-2.9804,-2.9546,-2.8846,-2.7418,-2.6543,-2.6461,-2.7256,-2.7337,-2.7528,-2.8142,-2.8371,-2.8249,-2.7606,-2.7404,-2.6549,-2.5011,-2.4753,-2.4636,-2.4636,-2.4636,-2.5134,-2.6164,-2.6164,-2.6302,-2.6533,-2.6533,-2.6533,-2.6533,-2.6533,-2.6533,-2.6533,-2.6533,-2.6533,-2.6533,-2.6533,-2.6533,-2.6533,-2.6533,-2.6533,-2.6533,-2.6533,-2.6533,-2.6533,-2.6533,-2.6533,-2.6533,-2.6533,-2.6533,-2.6533,-2.6533,-2.6533,-2.6634,-2.6992,-2.7092,-2.7218,-2.762,-2.8147,-2.8176,-2.6952,-2.6966,-2.6842,-2.5925,-2.5648,-2.5589,-2.5438,-2.6027,-2.6289,0.0,-2.6565,-2.7092,-2.7092,-2.7218,-2.7394,0.0,0.0,0.0,0.0,-2.8323,-2.8599,-2.8725,-2.9277,-2.9854,-3.0407,-3.0934,-3.1135,-3.1009,-3.1537,-3.1855,-3.224,-3.2667,-3.2943,-3.3068,-3.3068,-3.3068,-3.3068,-3.3068,-3.3144,-3.337,-3.4349,-3.4801,-3.4936,-3.57,-3.6168,-3.6358,-3.2064,-3.1738,-3.1361,-3.1386,-3.1587,-3.1486,-3.0733,-3.0809,-3.0683,-2.9905,-2.9804,-2.9804,-2.9804,-2.9804,-2.9546,-2.8949,-2.7867,-2.7441,-2.8084,-2.8084,-2.8464,-2.9251,-2.9076,-2.8775,-2.8499,-2.7695,-2.6781,-2.5676,-2.5676,-2.5676,-2.5676,-2.5676,-2.5955,-2.6533,-2.6533,-2.6533,-2.6533,-2.6533,-2.6533,-2.6533,-2.6533,-2.6533,-2.6533,-2.6533,-2.6533,-2.6533,-2.6533,-2.6533,-2.6533,-2.6533,-2.6533,-2.6533,-2.6533,-2.6533,-2.6533,-2.6533,-2.6533,-2.6533,-2.6533,-2.6533,-2.6584,-2.6766,-2.6841,-2.6992,-2.7519,-2.767,-2.7745,-2.8047,-2.8348,-2.84,-2.7751,-2.748,-2.7212,-2.6944,-2.636,-2.6012,-2.5995,-2.6264,-2.644,-2.6364,-2.6917,-2.7394,-2.7645,-2.7896,-2.8047,-2.8097,-2.8298,0.0,-2.885,-2.9402,-2.9578,-2.9327,-2.988,-3.0432,-3.0959,-3.1104,-3.1505,-3.2164,-3.2056,-3.2206,-3.2616,-3.2943,-3.3205,-3.3477,-3.3205,-3.323,-3.3477,-3.3205,-3.3219,-3.3545,-3.4399,-3.4876,-3.5203,-3.6056,-3.6358,-3.6358,-3.1913,-3.2089,-3.1938,-3.1461,-3.2114,-3.224,-3.0834,-3.0984,-3.0909,-2.993,-2.9804,-2.9804,-2.9804,-2.9804,-2.9804,-2.9804,-2.8949,-2.8347,-2.8347,-2.8347,-2.8743,-2.9654,-2.9176,-2.885,-2.8674,-2.767,-2.6942,-2.6533,-2.6533,-2.6533,-2.6533,-2.6533,-2.6533,-2.6533,-2.6533,-2.6533,-2.6533,-2.6533,-2.6533,-2.6533,-2.6533,-2.6533,-2.6533,-2.6533,-2.6533,-2.6533,-2.6533,-2.6533,-2.6533,-2.6533,-2.6533,-2.6533,-2.6533,-2.6533,-2.6533,-2.6533,-2.6533,-2.6533,-2.6533,-2.6533,-2.6659,-2.7143,-2.7293,-2.7444,-2.8097,-2.8222,-2.8247,-2.8348,-2.8373,-2.8373,-2.8373,-2.7846,-2.7394,-2.7394,-2.6866,-2.6508,-2.6408,0.0,-2.6785,-2.7118,-2.7369,-2.772,-2.8197,-2.8649,-2.88,-2.8499,-2.9302,-2.9854,-3.003,-3.0482,-3.0557,-3.0156,-3.0608,-3.111,-3.1637,-3.1372,-3.1847,-3.3068,-3.2456,-3.2481,-3.3068,-3.3169,-3.3442,-3.3776,-3.3417,-3.3442,-3.3776,-3.3316,-3.3345,-3.3847,-3.4474,-3.5002,-3.5504,-3.6132,-3.6358,-3.6358,-3.1486,-3.1512,-3.1486,-3.1411,-3.116,-3.0909,-3.0658,-3.0683,-3.0507,-2.988,-2.9804,-2.9804,-2.9804,-2.9804,-2.9804,-2.9804,-2.9624,-2.9546,-2.9546,-2.9546,-2.9399,-2.9076,-2.8976,-2.8499,-2.757,-2.6917,-2.6609,-2.6533,-2.6533,-2.6533,-2.6533,-2.6533,-2.6533,-2.6533,-2.6533,-2.6533,-2.6533,-2.6533,-2.6533,-2.6533,-2.6533,-2.6533,-2.6533,-2.6533,-2.6533,-2.6533,-2.6533,-2.6533,-2.6533,-2.6533,-2.6533,-2.6533,-2.6533,-2.6533,-2.6533,-2.6533,-2.6533,-2.6533,-2.6533,-2.6533,-2.6659,-2.7143,-2.7293,-2.7544,-2.8574,-2.88,-2.895,-2.9428,-2.9528,-2.9528,-2.9528,-2.8674,-2.7971,-2.7971,-2.7118,-2.6289,-2.5787,0.0,-2.7017,-2.671,-2.7821,-2.8699,-2.88,-2.8875,-2.9277,-3.0156,-2.9955,-3.0181,-3.1085,-3.121,-3.1436,-3.1838,-3.1913,-3.224,-3.2817,-3.2792,-3.2867,-3.3068,-3.2968,-3.2993,-3.3093,-3.3571,-3.3545,-3.323,-3.3596,-3.352,-3.3205,-3.3093,-3.3119,-3.3294,-3.4324,-3.4776,-3.4977,-3.5981,-3.6358,-3.6358,-3.1712,-3.1361,-3.0984,-3.0984,-3.1009,-3.0834,-3.0256,-3.0432,-3.0407,-2.9854,-2.9804,-2.9804,-2.9804,-2.9804,-2.9804,-2.9804,-2.9804,-2.9804,-2.9804,-2.9804,-2.9679,-2.9402,-2.9101,-2.8549,-2.7745,-2.7193,-2.6892,-2.6892,-2.6615,-2.6533,-2.6533,-2.6533,-2.6533,-2.6533,-2.6533,-2.6533,-2.6533,-2.6533,-2.6533,-2.6533,-2.6533,-2.6533,-2.6533,-2.6533,-2.6533,-2.6533,-2.6533,-2.6533,-2.6533,-2.6533,-2.6666,-2.6892,-2.6892,-2.6892,-2.6892,-2.6892,-2.676,-2.6533,-2.6533,-2.6533,-2.6666,-2.7519,-2.772,-2.8021,-2.9126,-2.9402,-2.9478,-2.9729,-2.9804,-2.9804,-2.9804,-2.8875,-2.8197,-2.8499,-2.7369,0.0,-2.6892,-2.7143,-2.7394,-2.7745,-2.8473,-2.9051,-2.9352,-2.9402,-2.9729,-3.0557,-3.0382,-3.0708,-3.1763,-3.1838,-3.2089,-3.2667,-3.2667,-3.2817,-3.3068,-3.3068,-3.3068,-3.3068,-3.3068,-3.3068,-3.3093,-3.3345,-3.352,-3.3508,-3.3495,-3.3658,-3.3947,-3.3683,-3.3696,-3.4048,-3.4851,-3.5177,-3.5253,-3.6056,-3.6358,-3.6358,-3.1712,-3.1185,-3.0583,-3.0457,-3.0758,-3.0733,-2.993,-3.0156,-3.0281,-2.9854,-2.9804,-2.9804,-2.9804,-2.9804,-2.9804,-2.9804,-2.9804,-2.9804,-2.9804,-2.9804,-2.9804,-2.9804,-2.9227,-2.8725,-2.8298,-2.777,-2.7419,-2.7293,-2.6866,-2.6659,-2.6533,-2.6533,-2.6533,-2.6533,-2.6533,-2.6533,-2.6533,-2.6533,-2.6533,-2.6533,-2.6533,-2.6533,-2.6533,-2.6533,-2.6533,-2.6533,-2.6533,-2.6533,-2.6533,-2.6533,-2.6741,-2.7092,-2.7092,-2.7092,-2.7118,-2.7243,-2.7067,-2.6816,-2.676,-2.6741,-2.7067,-2.8047,-2.8298,-2.8549,-2.9553,-2.9804,-2.9804,-2.9804,-2.9804,-2.9804,-2.9804,-2.8976,-2.8423,-2.885,0.0,-2.7143,0.0,-2.7846,-2.7971,-2.8825,-2.9051,-2.9302,-2.9754,-2.9905,-3.0206,-3.0758,-3.0909,-3.1411,-3.2365,-3.2416,-3.2616,-3.3068,-3.3068,-3.3068,-3.3068,-3.3305,-3.3381,-3.3381,-3.3532,-3.3582,-3.347,-3.3571,-3.3721,-3.3897,-3.3696,-3.396,-3.4477,-3.4237,-3.4349,-3.4776,-3.5328,-3.5554,-3.5604,-3.6157,-3.6358,-3.6358,-3.0809,-3.0658,-3.0457,-2.9955,-2.988,-2.988,-2.9804,-2.9829,-2.9829,-2.9804,-2.9804,-2.9804,-2.9804,-2.9804,-2.9804,-2.9804,-2.9804,-2.9804,-2.9804,-2.9804,-2.9804,-2.9804,-2.9227,-2.89,-2.8875,-2.8323,-2.7795,-2.7293,-2.7243,-2.6967,-2.6533,-2.6533,-2.6533,-2.6533,-2.6533,-2.6533,-2.6533,-2.6533,-2.6533,-2.6533,-2.6533,-2.6533,-2.6533,-2.6533,-2.6533,-2.6533,-2.6533,-2.6533,-2.6533,-2.6533,-2.6559,-2.6584,-2.6584,-2.6584,-2.6684,-2.7143,-2.762,-2.7871,-2.7369,-2.7595,-2.8122,-2.8725,-2.8875,-2.9026,-2.9654,-2.9804,-2.9804,-2.9804,-2.9804,-2.9804,-2.9804,-2.9277,-2.8875,-2.8925,0.0,0.0,-2.8097,-2.8499,-2.8825,-2.8925,-2.9402,-2.9754,-2.9804,-3.0256,-3.0758,-3.1286,-3.1813,-3.2365,-3.2993,-3.3018,-3.3043,-3.3068,-3.3068,-3.3068,-3.3068,-3.3758,-3.4123,-3.4149,-3.4819,-3.4931,-3.4625,-3.5093,-3.4819,-3.3954,-3.4945,-3.4751,-3.4009,-3.441,-3.4675,-3.4776,-3.5328,-3.5554,-3.5604,-3.6157,-3.6358,-3.6358,-3.0658,-3.0331,-3.003,-2.9829,-2.9804,-2.9804,-2.9804,-2.9804,-2.9804,-2.9804,-2.9804,-2.9804,-2.9804,-2.9804,-2.9804,-2.9804,-2.9804,-2.9804,-2.9804,-2.9804,-2.9804,-2.9804,-2.9578,-2.9478,-2.9478,-2.89,-2.8348,-2.7795,-2.7444,-2.6992,-2.6533,-2.6533,-2.6533,-2.6533,-2.6533,-2.6533,-2.6533,-2.6533,-2.6533,-2.6533,-2.6533,-2.6533,-2.6533,-2.6533,-2.6533,-2.6533,-2.6533,-2.6533,-2.6533,-2.6533,-2.6917,-2.7469,-2.7469,-2.772,-2.7971,-2.7821,-2.8172,-2.8574,-2.8373,-2.8197,-2.8247,-2.88,-2.8925,-2.9076,-2.9654,-2.9804,-2.9804,-2.9804,-2.9804,-2.9804,-2.9804,-2.9327,-2.9051,-2.9402,0.0,-2.8348,-2.9051,-2.9026,-2.9176,-2.988,-3.0181,-3.0432,-3.0758,-3.0984,-3.1311,-3.1863,-3.2089,-3.2466,-3.3043,-3.3068,-3.3068,-3.3068,-3.3395,-3.342,-3.3068,-3.3997,-3.4667,-3.4856,-3.52,-3.5057,-3.4726,-3.4931,-3.4819,-3.4426,-3.4869,-3.4916,-3.4911,-3.5061,-3.5429,-3.5755,-3.5981,-3.6056,-3.6081,-3.6282,-3.6358,-3.6358,-3.0608,-3.0181,-2.9804,-2.9804,-2.9804,-2.9804,-2.9804,-2.9804,-2.9804,-2.9804,-2.9804,-2.9804,-2.9804,-2.9804,-2.9804,-2.9804,-2.9804,-2.9804,-2.9804,-2.9804,-2.9804,-2.9804,-2.9804,-2.9804,-2.9804,-2.9402,-2.8925,-2.8373,-2.7971,-2.7419,-2.6716,-2.6892,-2.6791,-2.6533,-2.671,-2.6684,-2.6533,-2.6533,-2.6533,-2.6533,-2.6533,-2.6533,-2.6533,-2.6533,-2.6533,-2.6533,-2.6533,-2.6533,-2.6533,-2.6533,-2.7067,-2.7846,-2.7846,-2.8348,-2.885,-2.8473,-2.8775,-2.9202,-2.9202,-2.8925,-2.8725,-2.9101,-2.9202,-2.9302,-2.9704,-2.9804,-2.9804,-2.9804,-2.9804,-2.9804,-2.9804,-2.9478,-2.9377,-2.9955,-2.9402,-2.9227,-3.0156,-2.9955,-2.998,-3.0758,-3.0859,-3.1009,-3.1361,-3.1537,-3.1813,-3.219,-3.239,-3.2742,-3.3294,-3.3169,-3.3244,-3.3571,-3.3834,-3.3947,-3.3758,-3.455,-3.5173,-3.5672,-3.5658,-3.5537,-3.5228,-3.5259,-3.5093,-3.4977,-3.5183,-3.5294,-3.5554,-3.573,-3.6031,-3.6358,-3.6358,-3.6358,-3.6358,-3.6358,-3.6358,-3.6358,-3.0608,-3.0181,-2.9804,-2.9804,-2.9804,-2.9804,-2.9804,-2.9804,-2.9804,-2.9804,-2.9804,-2.9804,-2.9804,-2.9804,-2.9804,-2.9804,-2.9804,-2.9804,-2.9804,-2.9804,-2.9804,-2.9804,-2.9804,-2.9804,-2.9804,-2.9804,-2.9503,-2.8925,-2.8925,-2.8373,-2.7293,-2.7846,-2.7519,-2.6559,-2.7042,-2.6967,-2.6533,-2.6533,-2.6533,-2.6533,-2.6533,-2.6533,-2.6533,-2.6533,-2.6533,-2.6533,-2.6533,-2.6533,-2.6533,-2.6533,-2.6841,-2.7293,-2.7293,-2.8047,-2.8925,-2.8925,-2.9352,-2.9804,-2.9804,-2.9804,-2.9804,-2.9804,-2.9804,-2.9804,-2.9804,-2.9804,-2.9804,-2.9804,-2.9804,-2.9804,-2.9804,-2.9804,-2.998,-3.0532,-3.0633,-3.0809,-3.1311,-3.1386,-3.1386,-3.1411,-3.1411,-3.1411,-3.1411,-3.1913,-3.2215,-3.2215,-3.2767,-3.3319,-3.3872,-3.3395,-3.3596,-3.47,-3.442,-3.4585,-3.5339,-3.5445,-3.578,-3.6367,-3.643,-3.6358,-3.6358,-3.6358,-3.6056,-3.5579,-3.6132,-3.6056,-3.5579,-3.6132,-3.6358,-3.6358,-3.6358,-3.6358,-3.6358,-3.6358,-3.6358,-3.6358,-3.003,-2.9905,-2.9804,-2.9804,-2.9804,-2.9804,-2.9804,-2.9804,-2.9804,-2.9804,-2.9804,-2.9804,-2.9804,-2.9804,-2.9804,-2.9804,-2.9804,-2.9804,-2.9804,-2.9804,-2.9804,-2.9804,-2.9804,-3.0139,-3.0771,-3.0139,-2.9681,-2.9314,-2.9022,-2.8373,-2.7293,-2.7846,-2.772,-2.7042,-2.7218,-2.6967,-2.6533,-2.6533,-2.6533,-2.6533,-2.6533,-2.6533,-2.6533,-2.6533,-2.6533,-2.6584,-2.6892,-2.7042,-2.7092,-2.7494,-2.7971,-2.8524,-2.8925,-2.9277,-2.9528,-2.9528,-2.9654,-2.9804,-2.9804,-2.9804,-2.9804,-2.9804,-2.9804,-2.9804,-2.9804,-2.9804,-2.9804,-2.9804,-3.0105,-3.0357,-3.0357,-3.0658,-3.0959,-3.1135,-3.116,-3.121,-3.1361,-3.1386,-3.1537,-3.1913,-3.1964,-3.2139,-3.2541,-3.3068,-3.3395,-3.3395,-3.3922,-3.4299,-3.4474,-3.4324,-3.4374,-3.4726,-3.4961,-3.5152,-3.5339,-3.5823,-3.6193,-3.6427,-3.637,-3.6358,-3.6358,-3.6358,-3.6282,-3.6132,-3.6282,-3.6282,-3.6132,-3.6307,-3.6358,-3.6358,-3.6358,-3.6358,-3.6358,-3.6358,-3.6358,-3.6358,-3.0419,-3.0343,-3.0343,-3.0343,-3.0088,-3.0088,-3.0771,-3.0292,-3.0088,-3.0771,-3.0292,-3.0088,-3.0846,-3.0216,-2.9934,-3.0343,-3.0011,-2.9804,-2.9804,-2.9804,-3.0011,-3.0343,-3.0343,-3.062,-3.1167,-3.097,-3.0655,-3.0209,-2.9921,-2.9147,-2.7946,-2.8524,-2.8348,-2.762,-2.7846,-2.762,-2.7092,-2.6892,-2.6791,-2.6791,-2.6791,-2.6791,-2.6816,-2.7017,-2.7118,-2.7143,-2.7494,-2.762,-2.767,-2.7996,-2.8473,-2.9026,-2.9603,-2.9804,-2.9804,-2.9804,-2.9804,-2.9804,-2.9804,-2.9804,-2.9804,-2.9804,-2.9804,-2.9804,-2.9804,-2.9955,-3.0131,-3.0131,-3.0557,-3.0934,-3.0934,-3.1185,-3.1461,-3.1687,-3.1712,-3.1788,-3.2014,-3.2064,-3.219,-3.2516,-3.2742,-3.2943,-3.3068,-3.3771,-3.4223,-3.4223,-3.4525,-3.4826,-3.5027,-3.4851,-3.4926,-3.5353,-3.5479,-3.5529,-3.5713,-3.6175,-3.6395,-3.6396,-3.6395,-3.6358,-3.6358,-3.6358,-3.6358,-3.6358,-3.6358,-3.6358,-3.6358,-3.6358,-3.6358,-3.6358,-3.6358,-3.6358,-3.6358,-3.6358,-3.6358,-3.6358,-3.1462,-3.1315,-3.1315,-3.1315,-3.062,-3.0646,-3.2307,-3.1119,-3.0646,-3.2379,-3.1119,-3.0722,-3.2379,-3.1044,-3.0419,-3.1241,-3.0495,-2.9856,-2.9804,-2.9856,-3.0292,-3.1167,-3.1389,-3.1462,-3.1462,-3.2236,-3.2208,-3.1383,-3.1288,-3.0459,-2.9076,-2.9605,-2.9227,-2.8197,-2.8699,-2.8624,-2.8072,-2.757,-2.7344,-2.7344,-2.7293,-2.7318,-2.7394,-2.7871,-2.8072,-2.8122,-2.8172,-2.8172,-2.8197,-2.8247,-2.8599,-2.9101,-2.9628,-2.9804,-2.9804,-2.9804,-2.9804,-2.9804,-2.9804,-2.9829,-2.9854,-2.9854,-2.9905,-2.993,-2.988,-3.0256,-3.0633,-3.0683,-3.111,-3.1461,-3.1461,-3.1512,-3.1712,-3.2215,-3.229,-3.2491,-3.3068,-3.3144,-3.3169,-3.3219,-3.3671,-3.3771,-3.3269,-3.4173,-3.4826,-3.4876,-3.4876,-3.5102,-3.5579,-3.5152,-3.5328,-3.6332,-3.5881,-3.5855,-3.6358,-3.6358,-3.642,-3.6421,-3.642,-3.6358,-3.6358,-3.6358,-3.6358,-3.6358,-3.6358,-3.6358,-3.6358,-3.6358,-3.6358,-3.6358,-3.6358,-3.6358,-3.6358,-3.6358,-3.6358,-3.6358,-3.2307,-3.2307,-3.2307,-3.2307,-3.2119,-3.2119,-3.2522,-3.2236,-3.2119,-3.2522,-3.2263,-3.2191,-3.2522,-3.2263,-3.2046,-3.2307,-3.1462,-3.0545,-2.9856,-3.0495,-3.097,-3.1167,-3.2593,-3.3394,-3.3394,-3.2876,-3.2653,-3.2794,-3.173,-3.0829,-3.0085,-2.9885,-2.9428,-2.875,-2.8875,-2.8624,-2.8097,-2.7971,-2.7921,-2.7896,-2.7444,-2.7544,-2.7896,-2.757,-2.772,-2.8172,-2.8599,-2.875,-2.8825,-2.9277,-2.9503,-2.9628,-2.9754,-2.9804,-2.9804,-2.9804,-2.9804,-2.9804,-2.9804,-3.0105,-3.0432,-3.0432,-3.0733,-3.0934,-3.0532,-3.0532,-3.0733,-3.1135,-3.1662,-3.2039,-3.2039,-3.239,-3.2742,-3.2867,-3.2893,-3.3093,-3.3646,-3.3721,-3.3872,-3.4299,-3.4474,-3.45,-3.4374,-3.4977,-3.5554,-3.5981,-3.6006,-3.6056,-3.6182,-3.6081,-3.6107,-3.6358,-3.6232,-3.6232,-3.6358,-3.6358,-3.6427,-3.6351,-3.6427,-3.6358,-3.6358,-3.6358,-3.6358,-3.6358,-3.6358,-3.6358,-3.6358,-3.6358,-3.6358,-3.6358,-3.6358,-3.6358,-3.6358,-3.6358,-3.6358,-3.6358,-3.3394,-3.3227,-3.3227,-3.3227,-3.2876,-3.2876,-3.3837,-3.3185,-3.2947,-3.3837,-3.3185,-3.2947,-3.3905,-3.3185,-3.2593,-3.2593,-3.1341,-3.0495,-3.0495,-3.0895,-3.1389,-3.1829,-3.3227,-3.4245,-3.4706,-3.4245,-3.3869,-3.359,-3.2877,-3.1956,-3.0771,-3.0566,-3.0037,-2.9352,-2.9352,-2.9176,-2.89,-2.8624,-2.8499,-2.8473,-2.8197,-2.8247,-2.8499,-2.8473,-2.8649,-2.895,-2.9227,-2.9352,-2.9377,-2.9679,-2.9804,-2.9804,-2.9804,-2.9804,-2.9804,-2.9804,-2.9804,-2.9854,-3.0105,-3.0407,-3.0683,-3.0934,-3.1185,-3.1311,-3.106,-3.1185,-3.1537,-3.2089,-3.2641,-3.3093,-3.337,-3.3671,-3.3847,-3.3847,-3.3847,-3.3972,-3.4248,-3.4299,-3.4399,-3.47,-3.4951,-3.5228,-3.5479,-3.5529,-3.578,-3.6307,-3.6358,-3.6358,-3.6358,-3.6358,-3.6358,-3.6358,-3.6358,-3.6358,-3.6358,-3.6358,-3.6358,-3.6358,-3.6358,-3.6358,-3.6358,-3.6358,-3.6358,-3.6358,-3.6358,-3.6358,-3.6358,-3.6358,-3.6358,-3.6358,-3.6358,-3.6358,-3.6358,-3.6358,-3.6358,-3.6358,-3.4409,-3.4245,-3.4245,-3.4245,-3.3602,-3.363,-3.5228,-3.4109,-3.3671,-3.5294,-3.4138,-3.3699,-3.5294,-3.4041,-3.3045,-3.2876,-3.1415,-3.0771,-3.1389,-3.1609,-3.2019,-3.2806,-3.3739,-3.461,-3.5489,-3.5519,-3.5067,-3.4245,-3.4081,-3.3157,-3.1683,-3.1315,-3.0745,-2.9985,-2.9856,-2.9804,-2.9754,-2.9277,-2.9076,-2.9076,-2.8976,-2.8976,-2.9126,-2.9503,-2.9704,-2.9804,-2.9804,-2.9804,-2.9804,-2.9804,-2.9804,-2.9804,-2.9804,-2.9804,-2.9804,-2.9804,-2.9854,-3.003,-3.0482,-3.0758,-3.0984,-3.1436,-3.1612,-3.1687,-3.1788,-3.2014,-3.2416,-3.3068,-3.3571,-3.4073,-3.4625,-3.4726,-3.4726,-3.4726,-3.4726,-3.4751,-3.4851,-3.4876,-3.4901,-3.5002,-3.5403,-3.5855,-3.6307,-3.5956,-3.5881,-3.6332,-3.6358,-3.6358,-3.6358,-3.6358,-3.6358,-3.6358,-3.6358,-3.6358,-3.6358,-3.6358,-3.6358,-3.6358,-3.6358,-3.6477,-3.6502,-3.6502,-3.6502,-3.6502,-3.6477,-3.6358,-3.6358,-3.6358,-3.6358,-3.6358,-3.6358,-3.6358,-3.6358,-3.6358,-3.6358,-3.6358,-3.5359,-3.5294,-3.5294,-3.5294,-3.5198,-3.5198,-3.5424,-3.5294,-3.5198,-3.5424,-3.5294,-3.5228,-3.5424,-3.5294,-3.4773,-3.3876,-3.3602,-3.3185,-3.2451,-3.3157,-3.3671,-3.3808,-3.4773,-3.5359,-3.5519,-3.5519,-3.5424,-3.5294,-3.4409,-3.3876,-3.3602,-3.1947,-3.1093,-3.097,-3.0139,-2.9804,-2.9779,-2.9704,-2.9679,-2.9628,-2.9126,-2.9227,-2.9628,-2.9202,-2.9352,-2.9804,-2.9804,-2.9804,-2.9804,-2.9804,-2.9804,-2.9804,-2.9804,-2.9804,-2.9804,-2.9804,-3.0131,-3.0507,-3.0608,-3.1286,-3.2014,-3.2089,-3.2466,-3.2968,-3.3445,-3.2867,-3.2516,-3.3571,-3.3847,-3.4073,-3.4625,-3.4726,-3.4726,-3.4726,-3.4726,-3.4876,-3.5378,-3.5429,-3.5604,-3.6081,-3.6207,-3.6282,-3.6358,-3.6307,-3.6282,-3.6358,-3.6358,-3.6358,-3.6358,-3.6358,-3.6358,-3.6358,-3.6358,-3.6358,-3.6358,-3.6358,-3.6358,-3.6358,-3.6358,-3.6647,-3.7133,-3.7133,-3.7133,-3.7108,-3.6622,-3.6358,-3.6358,-3.6358,-3.6358,-3.6358,-3.6358,-3.6358,-3.6358,-3.6358,-3.6358,-3.6358,-3.5519,-3.5519,-3.5519,-3.5519,-3.5519,-3.5519,-3.5519,-3.5519,-3.5519,-3.5519,-3.5519,-3.5519,-3.5519,-3.5001,-3.4706,-3.4839,-3.3808,-3.3227,-3.3394,-3.3739,-3.4013,-3.4013,-3.4971,-3.5519,-3.5519,-3.5519,-3.5519,-3.5519,-3.5067,-3.4543,-3.3945,-3.2593,-3.1683,-3.1167,-3.0216,-2.9804,-2.9804,-2.9804,-2.9804,-2.9779,-2.9528,-2.9578,-2.9754,-2.9503,-2.9578,-2.9804,-2.9804,-2.9804,-2.9804,-2.9804,-2.9804,-2.9804,-2.9804,-2.9804,-2.9854,-3.0156,-3.0432,-3.0758,-3.1336,-3.1863,-3.2365,-3.2993,-3.3345,-3.3671,-3.4223,-3.3972,-3.3847,-3.465,-3.4826,-3.4977,-3.5529,-3.5629,-3.5629,-3.5629,-3.5629,-3.573,-3.5956,-3.6006,-3.6081,-3.6332,-3.6358,-3.6358,-3.6358,-3.6358,-3.6358,-3.6358,-3.6358,-3.6483,-3.681,-3.6533,-3.6508,-3.681,-3.6533,-3.6358,-3.6358,-3.6358,-3.6358,-3.6358,-3.6734,-3.6956,-3.7184,-3.7211,-3.7161,-3.7184,-3.6956,-3.6709,-3.6358,-3.6358,-3.6358,-3.6358,-3.6358,-3.6358,-3.6358,-3.6358,-3.6358,-3.6358]},{"header":{"parameterUnit":"m.s-1","parameterCategory":1,"la1":30.6,"la2":28.766,"lo1":-90.7593,"lo2":-88.6598,"dy":0.0162,"dx":0.0183,"nx":116,"ny":114,"refTime":"2023-07-20T12:00:00:Z","depth":0,"parameterNumber":3,"parameterNumberName":"V-component_of_WINDS"},"data":[0.0,0.0,0.0,0.0,0.0,0.0,0.0,0.0,0.0,0.0,0.0,0.0,0.0,0.0,0.0,0.0,0.0,0.0,0.0,0.0,0.0,0.0,0.0,0.0,0.0,0.0,0.0,0.0,0.0,0.0,0.0,0.0,0.0,0.0,0.0,0.0,0.0,0.0,0.0,0.0,0.0,0.0,0.0,0.0,0.0,0.0,0.0,0.0,0.0,0.0,0.0,0.0,0.0,0.0,0.0,0.0,0.0,0.0,0.0,0.0,0.0,0.0,0.0,0.0,0.0,0.0,0.0,0.0,0.0,0.0,0.0,0.0,0.0,0.0,0.0,0.0,0.0,0.0,0.0,0.0,0.0,0.0,0.0,0.0,0.0,0.0,0.0,0.0,0.0,0.0,0.0,0.0,0.0,0.0,0.0,0.0,0.0,0.0,0.0,0.0,0.0,0.0,0.0,0.0,0.0,0.0,0.0,0.0,0.0,0.0,0.0,0.0,0.0,0.0,0.0,0.0,0.0,0.0,0.0,0.0,0.0,0.0,0.0,0.0,0.0,0.0,0.0,0.0,0.0,0.0,0.0,0.0,0.0,0.0,0.0,0.0,0.0,0.0,0.0,0.0,0.0,0.0,0.0,0.0,0.0,0.0,0.0,0.0,0.0,0.0,0.0,0.0,0.0,0.0,0.0,0.0,0.0,0.0,0.0,0.0,0.0,0.0,0.0,0.0,0.0,0.0,0.0,0.0,0.0,0.0,0.0,0.0,0.0,0.0,0.0,0.0,0.0,0.0,0.0,0.0,0.0,0.0,0.0,0.0,0.0,0.0,0.0,0.0,0.0,0.0,0.0,0.0,0.0,0.0,0.0,0.0,0.0,0.0,0.0,0.0,0.0,0.0,0.0,0.0,0.0,0.0,0.0,0.0,0.0,0.0,0.0,0.0,0.0,0.0,0.0,0.0,0.0,0.0,0.0,0.0,0.0,0.0,0.0,0.0,0.0,0.0,0.0,0.0,0.0,0.0,0.0,0.0,0.0,0.0,0.0,0.0,0.0,0.0,0.0,0.0,0.0,0.0,0.0,0.0,0.0,0.0,0.0,0.0,0.0,0.0,0.0,0.0,0.0,0.0,0.0,0.0,0.0,0.0,0.0,0.0,0.0,0.0,0.0,0.0,0.0,0.0,0.0,0.0,0.0,0.0,0.0,0.0,0.0,0.0,0.0,0.0,0.0,0.0,0.0,0.0,0.0,0.0,0.0,0.0,0.0,0.0,0.0,0.0,0.0,0.0,0.0,0.0,0.0,0.0,0.0,0.0,0.0,0.0,0.0,0.0,0.0,0.0,0.0,0.0,0.0,0.0,0.0,0.0,0.0,0.0,0.0,0.0,0.0,0.0,0.0,0.0,0.0,0.0,0.0,0.0,0.0,0.0,0.0,0.0,0.0,0.0,0.0,0.0,0.0,0.0,0.0,0.0,0.0,0.0,0.0,0.0,0.0,0.0,0.0,0.0,0.0,0.0,0.0,0.0,0.0,0.0,0.0,0.0,0.0,0.0,0.0,0.0,0.0,0.0,0.0,0.0,0.0,0.0,0.0,0.0,0.0,0.0,0.0,0.0,0.0,0.0,0.0,0.0,0.0,0.0,0.0,0.0,0.0,0.0,0.0,0.0,0.0,0.0,0.0,0.0,0.0,0.0,0.0,0.0,0.0,0.0,0.0,0.0,0.0,0.0,0.0,0.0,0.0,0.0,0.0,0.0,0.0,0.0,0.0,0.0,0.0,0.0,0.0,0.0,0.0,0.0,0.0,0.0,0.0,0.0,0.0,0.0,0.0,0.0,0.0,0.0,0.0,0.0,0.0,0.0,0.0,0.0,0.0,0.0,0.0,0.0,0.0,0.0,0.0,0.0,0.0,0.0,0.0,0.0,0.0,0.0,0.0,0.0,0.0,0.0,0.0,0.0,0.0,0.0,0.0,0.0,0.0,0.0,0.0,0.0,0.0,0.0,0.0,0.0,0.0,0.0,0.0,0.0,0.0,0.0,0.0,0.0,0.0,0.0,0.0,0.0,0.0,0.0,0.0,0.0,0.0,0.0,0.0,0.0,0.0,0.0,0.0,0.0,0.0,0.0,0.0,0.0,0.0,0.0,0.0,0.0,0.0,0.0,0.0,0.0,0.0,0.0,0.0,0.0,0.0,0.0,0.0,0.0,0.0,0.0,0.0,0.0,0.0,0.0,0.0,0.0,0.0,0.0,0.0,0.0,0.0,0.0,0.0,0.0,0.0,0.0,0.0,0.0,0.0,0.0,0.0,0.0,0.0,0.0,0.0,0.0,0.0,0.0,0.0,0.0,0.0,0.0,0.0,0.0,0.0,0.0,0.0,0.0,0.0,0.0,0.0,0.0,0.0,0.0,0.0,0.0,0.0,0.0,0.0,0.0,0.0,0.0,0.0,0.0,0.0,0.0,0.0,0.0,0.0,0.0,0.0,0.0,0.0,0.0,0.0,0.0,0.0,0.0,0.0,0.0,0.0,0.0,0.0,0.0,0.0,0.0,0.0,0.0,0.0,0.0,0.0,0.0,0.0,0.0,0.0,0.0,0.0,0.0,0.0,0.0,0.0,0.0,0.0,0.0,0.0,0.0,0.0,0.0,0.0,0.0,0.0,0.0,0.0,0.0,0.0,0.0,0.0,0.0,0.0,0.0,0.0,0.0,0.0,0.0,0.0,0.0,0.0,0.0,0.0,0.0,0.0,0.0,0.0,0.0,0.0,0.0,0.0,0.0,0.0,0.0,0.0,0.0,0.0,0.0,0.0,0.0,0.0,0.0,0.0,0.0,0.0,0.0,0.0,0.0,0.0,0.0,0.0,0.0,0.0,0.0,0.0,0.0,0.0,0.0,0.0,0.0,0.0,0.0,0.0,0.0,0.0,0.0,0.0,0.0,0.0,0.0,0.0,0.0,0.0,0.0,0.0,0.0,0.0,0.0,0.0,0.0,0.0,0.0,0.0,0.0,0.0,0.0,0.0,0.0,0.0,0.0,0.0,0.0,0.0,0.0,0.0,0.0,0.0,0.0,0.0,0.0,0.0,0.0,0.0,0.0,0.0,0.0,0.0,0.0,0.0,0.0,0.0,0.0,0.0,0.0,0.0,0.0,0.0,0.0,0.0,0.0,0.0,0.0,0.0,0.0,0.0,0.0,0.0,0.0,0.0,0.0,0.0,0.0,0.0,0.0,0.0,0.0,0.0,0.0,0.0,0.0,0.0,0.0,0.0,0.0,0.0,0.0,0.0,0.0,0.0,0.0,0.0,0.0,0.0,0.0,0.0,0.0,0.0,0.0,0.0,0.0,0.0,0.0,0.0,0.0,0.0,0.0,0.0,0.0,0.0,0.0,0.0,0.0,0.0,0.0,0.0,0.0,0.0,0.0,0.0,0.0,0.0,0.0,0.0,0.0,0.0,0.0,0.0,0.0,0.0,0.0,0.0,0.0,0.0,0.0,0.0,0.0,0.0,0.0,0.0,0.0,0.0,0.0,0.0,0.0,0.0,0.0,0.0,0.0,0.0,0.0,0.0,0.0,0.0,0.0,0.0,0.0,0.0,0.0,0.0,0.0,0.0,0.0,0.0,0.0,0.0,0.0,0.0,0.0,0.0,0.0,0.0,0.0,0.0,0.0,0.0,0.0,0.0,0.0,0.0,0.0,0.0,0.0,0.0,0.0,0.0,0.0,0.0,0.0,0.0,0.0,0.0,0.0,0.0,0.0,0.0,0.0,0.0,0.0,0.0,0.0,0.0,0.0,0.0,0.0,0.0,0.0,0.0,0.0,0.0,0.0,0.0,0.0,0.0,0.0,0.0,0.0,0.0,0.0,0.0,0.0,0.0,0.0,0.0,0.0,0.0,0.0,0.0,0.0,0.0,0.0,0.0,0.0,0.0,0.0,0.0,0.0,0.0,0.0,0.0,0.0,0.0,0.0,0.0,0.0,0.0,0.0,0.0,0.0,0.0,0.0,0.0,0.0,0.0,0.0,0.0,0.0,0.0,0.0,0.0,0.0,0.0,0.0,0.0,0.0,0.0,0.0,0.0,0.0,0.0,0.0,0.0,0.0,0.0,0.0,0.0,0.0,0.0,0.0,0.0,0.0,0.0,0.0,0.0,0.0,0.0,0.0,0.0,0.0,0.0,0.0,0.0,0.0,0.0,0.0,0.0,0.0,0.0,0.0,0.0,0.0,0.0,0.0,0.0,0.0,0.0,0.0,0.0,0.0,0.0,0.0,0.0,0.0,0.0,0.0,0.0,0.0,0.0,0.0,0.0,0.0,0.0,0.0,0.0,0.0,0.0,0.0,0.0,0.0,0.0,0.0,0.0,0.0,0.0,0.0,0.0,0.0,0.0,0.0,0.0,0.0,0.0,0.0,0.0,0.0,0.0,0.0,0.0,0.0,0.0,0.0,0.0,0.0,0.0,0.0,0.0,0.0,0.0,0.0,0.0,0.0,0.0,0.0,0.0,0.0,0.0,0.0,0.0,0.0,0.0,0.0,0.0,0.0,0.0,0.0,0.0,0.0,0.0,0.0,0.0,0.0,0.0,0.0,0.0,0.0,0.0,0.0,0.0,0.0,0.0,0.0,0.0,0.0,0.0,0.0,0.0,0.0,0.0,0.0,0.0,0.0,0.0,0.0,0.0,0.0,0.0,0.0,0.0,0.0,0.0,0.0,0.0,0.0,0.0,0.0,0.0,0.0,0.0,0.0,0.0,0.0,0.0,0.0,0.0,0.0,0.0,0.0,0.0,0.0,0.0,0.0,0.0,0.0,0.0,0.0,0.0,0.0,0.0,0.0,0.0,0.0,0.0,0.0,0.0,0.0,0.0,0.0,0.0,0.0,0.0,0.0,0.0,0.0,0.0,0.0,0.0,0.0,0.0,0.0,0.0,0.0,0.0,0.0,0.0,0.0,0.0,0.0,0.0,0.0,0.0,0.0,0.0,0.0,0.0,0.0,0.0,0.0,0.0,0.0,0.0,0.0,0.0,0.0,0.0,0.0,0.0,0.0,0.0,0.0,0.0,0.0,0.0,0.0,0.0,0.0,0.0,0.0,0.0,0.0,0.0,0.0,0.0,0.0,0.0,0.0,0.0,0.0,0.0,0.0,0.0,0.0,0.0,0.0,0.0,0.0,0.0,0.0,0.0,0.0,0.0,0.0,0.0,0.0,0.0,0.0,0.0,0.0,0.0,0.0,0.0,0.0,0.0,0.0,0.0,0.0,0.0,0.0,0.0,0.0,0.0,0.0,0.0,0.0,0.0,0.0,0.0,0.0,0.0,0.0,0.0,0.0,0.0,0.0,0.0,0.0,0.0,0.0,0.0,0.0,0.0,0.0,0.0,0.0,0.0,0.0,0.0,0.0,0.0,0.0,0.0,0.0,0.0,0.0,0.0,0.0,0.0,0.0,0.0,0.0,0.0,0.0,0.0,0.0,0.0,0.0,0.0,0.0,0.0,0.0,0.0,0.0,0.0,0.0,0.0,0.0,0.0,0.0,0.0,0.0,0.0,0.0,0.0,0.0,0.0,0.0,0.0,0.0,0.0,0.0,0.0,0.0,0.0,0.0,0.0,0.0,0.0,0.0,0.0,0.0,0.0,0.0,0.0,0.0,0.0,0.0,0.0,0.0,0.0,0.0,0.0,0.0,0.0,0.0,0.0,0.0,0.0,0.0,0.0,0.0,0.0,0.0,0.0,0.0,0.0,0.0,0.0,0.0,0.0,0.0,0.0,0.0,0.0,0.0,0.0,0.0,0.0,0.0,0.0,0.0,0.0,0.0,0.0,0.0,0.0,0.0,0.0,0.0,0.0,0.0,0.0,0.0,0.0,0.0,0.0,0.0,0.0,0.0,0.0,0.0,0.0,0.0,0.0,0.0,0.0,0.0,0.0,0.0,0.0,0.0,0.0,0.0,0.0,0.0,0.0,0.0,0.0,0.0,0.0,0.0,0.0,0.0,0.0,0.0,0.0,0.0,0.0,0.0,0.0,0.0,0.0,0.0,0.0,0.0,0.0,0.0,0.0,0.0,0.0,0.0,0.0,0.0,0.0,0.0,0.0,0.0,-4.4618,0.0,0.0,0.0,0.0,0.0,0.0,0.0,0.0,0.0,0.0,0.0,0.0,0.0,0.0,0.0,0.0,0.0,0.0,0.0,0.0,0.0,0.0,0.0,0.0,0.0,0.0,0.0,0.0,0.0,0.0,0.0,0.0,0.0,0.0,0.0,0.0,0.0,0.0,0.0,0.0,0.0,0.0,0.0,0.0,0.0,0.0,0.0,0.0,0.0,0.0,0.0,0.0,0.0,0.0,0.0,0.0,0.0,0.0,0.0,0.0,0.0,0.0,0.0,0.0,0.0,0.0,0.0,0.0,0.0,0.0,0.0,0.0,0.0,0.0,0.0,0.0,0.0,0.0,0.0,0.0,0.0,0.0,0.0,0.0,0.0,0.0,0.0,0.0,0.0,0.0,0.0,0.0,0.0,0.0,0.0,0.0,0.0,0.0,0.0,0.0,0.0,0.0,0.0,0.0,0.0,0.0,0.0,0.0,0.0,0.0,0.0,0.0,0.0,0.0,0.0,0.0,-4.6075,0.0,0.0,0.0,0.0,0.0,0.0,0.0,0.0,0.0,0.0,0.0,0.0,0.0,0.0,0.0,0.0,0.0,0.0,0.0,0.0,0.0,0.0,0.0,0.0,0.0,0.0,0.0,0.0,0.0,0.0,0.0,0.0,0.0,0.0,0.0,0.0,0.0,0.0,0.0,0.0,0.0,0.0,0.0,0.0,0.0,0.0,0.0,0.0,0.0,0.0,0.0,0.0,0.0,0.0,0.0,0.0,0.0,0.0,0.0,0.0,0.0,0.0,0.0,0.0,0.0,0.0,0.0,0.0,0.0,0.0,0.0,0.0,0.0,0.0,0.0,0.0,0.0,0.0,0.0,0.0,0.0,0.0,0.0,0.0,0.0,0.0,0.0,0.0,0.0,0.0,0.0,0.0,0.0,0.0,0.0,0.0,0.0,0.0,0.0,0.0,0.0,0.0,0.0,0.0,0.0,0.0,0.0,0.0,-5.4623,-5.6247,-5.663,-5.782,-5.835,-5.8086,-5.4653,-5.123,-4.8122,-4.7868,0.0,0.0,0.0,0.0,0.0,0.0,0.0,0.0,0.0,0.0,0.0,0.0,0.0,0.0,0.0,0.0,0.0,0.0,0.0,0.0,0.0,0.0,0.0,0.0,0.0,0.0,0.0,0.0,0.0,0.0,0.0,0.0,0.0,0.0,0.0,0.0,0.0,0.0,-3.7892,-4.0315,-4.22,-4.3431,-4.297,0.0,0.0,0.0,0.0,0.0,0.0,0.0,0.0,0.0,0.0,0.0,0.0,0.0,0.0,0.0,0.0,0.0,0.0,0.0,0.0,0.0,0.0,0.0,0.0,0.0,0.0,0.0,0.0,0.0,0.0,0.0,0.0,0.0,0.0,0.0,0.0,0.0,0.0,0.0,0.0,0.0,0.0,0.0,-4.0816,-4.2514,0.0,0.0,0.0,0.0,0.0,0.0,0.0,0.0,0.0,0.0,0.0,0.0,0.0,-5.1721,-5.3798,-5.5921,-5.711,-5.7434,-6.0165,-6.1662,-6.2107,-6.3539,-6.4758,-6.5654,-6.5134,0.0,-5.2307,-5.0888,0.0,0.0,0.0,0.0,0.0,0.0,0.0,0.0,0.0,0.0,0.0,0.0,0.0,0.0,0.0,0.0,0.0,0.0,0.0,0.0,0.0,0.0,0.0,0.0,0.0,0.0,0.0,0.0,0.0,0.0,0.0,0.0,0.0,0.0,0.0,0.0,-3.6738,-3.8507,-4.02,-4.2239,-4.4355,-4.6471,-4.7086,-4.7201,-4.6855,-4.6201,0.0,0.0,0.0,0.0,0.0,0.0,0.0,0.0,0.0,0.0,0.0,0.0,0.0,0.0,0.0,0.0,0.0,0.0,0.0,0.0,0.0,0.0,0.0,0.0,0.0,0.0,0.0,0.0,0.0,0.0,0.0,0.0,0.0,0.0,0.0,0.0,0.0,0.0,0.0,-4.1008,-4.2739,-4.3047,-4.4881,-4.5917,0.0,0.0,0.0,0.0,0.0,0.0,0.0,0.0,0.0,-5.3124,-5.5109,-5.689,-5.8309,-6.0786,-6.2376,-6.3122,-6.6144,-6.7799,-6.8203,-6.9266,-7.0321,-7.1231,-7.0961,-6.7989,-6.3012,-5.818,-5.4957,-5.2872,0.0,0.0,0.0,0.0,-4.9921,-5.0692,0.0,0.0,0.0,0.0,0.0,0.0,0.0,0.0,0.0,0.0,0.0,0.0,0.0,0.0,0.0,-3.284,0.0,0.0,0.0,0.0,0.0,0.0,0.0,0.0,0.0,0.0,0.0,0.0,-3.9123,-4.1239,-4.3162,-4.5047,-4.7317,-4.9817,-5.1318,-5.0933,-4.9125,-4.8894,-4.7317,0.0,0.0,0.0,0.0,0.0,0.0,0.0,0.0,0.0,0.0,0.0,0.0,0.0,0.0,0.0,0.0,0.0,0.0,0.0,0.0,0.0,0.0,0.0,0.0,0.0,0.0,0.0,0.0,0.0,0.0,0.0,0.0,0.0,0.0,0.0,0.0,0.0,0.0,-4.2508,-4.3778,-4.3162,-4.5932,-4.7432,0.0,0.0,0.0,0.0,0.0,0.0,-5.1602,-5.5173,-5.7719,-5.886,-6.0992,-6.2656,-6.3782,-6.6039,-6.7766,-6.8926,-7.1238,-7.2726,-7.3378,-7.3803,-7.4438,-7.5179,-7.4806,-7.3809,-7.1975,-6.4855,-6.064,-5.8427,-5.575,-5.4509,-5.4216,-5.4583,-5.5023,-5.5574,0.0,0.0,0.0,0.0,0.0,0.0,0.0,0.0,0.0,0.0,0.0,0.0,0.0,0.0,-3.2728,-3.6147,-3.6622,-3.7007,0.0,0.0,0.0,0.0,0.0,0.0,0.0,0.0,0.0,-4.0239,-4.2047,-4.4201,-4.6701,-4.9202,-5.1741,-5.4203,-5.5049,-5.5395,-5.5049,-5.1895,-5.0471,-5.001,0.0,0.0,0.0,0.0,0.0,0.0,0.0,0.0,0.0,0.0,0.0,0.0,0.0,0.0,0.0,0.0,0.0,0.0,0.0,0.0,0.0,0.0,0.0,0.0,0.0,0.0,0.0,0.0,0.0,0.0,0.0,0.0,0.0,0.0,0.0,0.0,0.0,0.0,0.0,-4.3085,-4.7471,0.0,0.0,0.0,0.0,-5.227,-5.3887,-5.5568,-5.7237,-5.9786,-6.2487,-6.5333,-6.7859,-7.0047,-7.189,-7.2881,-7.3876,-7.4997,-7.4537,-7.5202,-7.6712,-7.6191,-7.641,-7.7182,-7.7121,-7.6644,-7.5372,-6.8866,-6.5223,-6.3408,-6.0188,-5.9355,-5.9905,-5.9171,-5.9869,-6.108,0.0,0.0,0.0,0.0,0.0,0.0,0.0,0.0,0.0,0.0,0.0,0.0,0.0,-3.3446,-3.6219,-3.9685,-4.0969,-4.1739,-4.2047,0.0,0.0,0.0,0.0,0.0,0.0,0.0,-4.1277,-4.2931,-4.5201,-4.7625,-5.0164,-5.1625,-5.3356,-5.5318,-5.6742,-5.7665,-5.7973,-5.5126,-5.2972,-5.1241,-4.8355,-4.6163,0.0,0.0,0.0,0.0,0.0,0.0,0.0,0.0,0.0,0.0,0.0,0.0,0.0,0.0,0.0,0.0,0.0,0.0,0.0,0.0,0.0,0.0,0.0,0.0,0.0,0.0,0.0,0.0,0.0,0.0,0.0,0.0,0.0,0.0,0.0,0.0,0.0,-4.926,-5.2164,0.0,-5.4626,-5.5511,-5.6313,-5.7013,-6.02,-6.258,-6.3693,-6.7226,-7.02,-7.2322,-7.3822,-7.4957,-7.5778,-7.6227,-7.6437,-7.6406,-7.631,-7.6596,-7.7186,-7.6985,-7.7047,-7.7304,-7.7304,-7.7157,-7.668,-7.3823,-7.1406,-6.9247,-6.6496,-6.5301,-6.5044,-6.4787,-6.5007,-6.5558,0.0,0.0,0.0,0.0,0.0,0.0,0.0,0.0,0.0,0.0,0.0,-2.9497,-3.2474,-3.5374,-3.8693,-4.2524,-4.3765,-4.4474,-4.4959,0.0,0.0,0.0,0.0,0.0,0.0,-4.1737,-4.4075,-4.5586,-4.8278,-5.0678,-5.2818,-5.3788,-5.5209,-5.7011,-5.8204,-5.9057,-5.9574,-5.7887,-5.5654,-5.2972,-5.0433,-4.9048,-4.8125,0.0,0.0,0.0,0.0,0.0,0.0,0.0,0.0,0.0,0.0,0.0,0.0,0.0,0.0,0.0,0.0,0.0,0.0,0.0,0.0,0.0,0.0,0.0,0.0,0.0,0.0,0.0,0.0,0.0,0.0,0.0,0.0,0.0,0.0,0.0,-5.0521,-5.4066,-5.6973,-5.905,-5.9896,-6.105,-6.205,-6.2897,-6.6359,-6.8936,-7.0052,-7.3322,-7.5763,-7.6952,-7.7796,-7.8099,-7.7841,-7.7965,-7.7728,-7.7088,-7.7252,-7.7304,-7.7304,-7.7304,-7.7304,-7.7304,-7.7304,-7.7304,-7.7268,-7.6717,-7.5395,-7.3487,-7.1358,-7.0036,-6.9265,-6.9009,-6.9082,-6.9339,0.0,0.0,0.0,0.0,0.0,0.0,0.0,0.0,0.0,0.0,-2.6982,-2.9677,-3.4889,-3.7017,-3.9955,-4.4614,-4.4557,-4.4844,-4.6199,-4.2659,0.0,0.0,0.0,0.0,-4.0367,-4.4281,-4.6925,-4.8183,-5.1162,-5.3249,-5.4545,-5.5811,-5.7481,-5.945,-5.9527,-5.9754,-6.0112,-6.0112,-5.8501,-5.5682,-5.3067,-5.199,-5.1548,0.0,0.0,0.0,0.0,0.0,0.0,0.0,0.0,0.0,0.0,0.0,0.0,0.0,0.0,0.0,0.0,0.0,0.0,0.0,0.0,0.0,0.0,0.0,0.0,0.0,0.0,0.0,0.0,0.0,0.0,0.0,0.0,0.0,-4.6641,-5.1289,-5.5318,-5.7165,-6.1781,-6.4512,-6.3743,-6.6705,-6.9013,-6.9833,-7.2255,-7.437,-7.5985,-7.7639,-7.864,-7.8904,-7.9666,-7.9513,-7.8309,-7.8309,-7.796,-7.7304,-7.7304,-7.7304,-7.7304,-7.7304,-7.7304,-7.7304,-7.7304,-7.7304,-7.7268,-7.7268,-7.679,-7.5873,-7.4331,-7.323,-7.2422,-7.1615,-7.1798,-7.2312,0.0,0.0,0.0,0.0,0.0,0.0,0.0,0.0,0.0,0.0,-2.7888,-3.1235,-3.4566,-3.7981,-4.1541,-4.5256,-4.4332,-4.4265,-4.5899,0.0,0.0,0.0,0.0,0.0,-4.3687,-4.5697,-4.796,-5.0397,-5.3073,-5.4732,-5.5397,-5.7273,-5.8234,-5.8546,-5.976,-6.0378,-6.0505,-6.1076,-6.088,-5.9836,-5.6442,-5.458,-5.3472,0.0,0.0,0.0,0.0,0.0,0.0,0.0,0.0,0.0,0.0,0.0,0.0,0.0,0.0,0.0,0.0,0.0,0.0,0.0,0.0,0.0,0.0,0.0,0.0,0.0,0.0,0.0,0.0,0.0,0.0,0.0,0.0,-5.3795,-5.3722,-5.6078,-5.9676,-6.468,-6.759,-6.9821,-7.1398,-7.2976,-7.409,-7.4465,-7.63,-7.7416,-7.7407,-7.8432,-7.9031,-7.9128,-7.9311,-7.9058,-7.8309,-7.8309,-7.796,-7.7304,-7.7304,-7.7304,-7.7304,-7.7304,-7.7304,-7.7304,-7.7304,-7.6937,-7.641,-7.6423,-7.5616,-7.4368,-7.4515,-7.3744,-7.2422,-7.1615,-7.1468,-7.1541,0.0,0.0,0.0,0.0,0.0,0.0,0.0,0.0,0.0,0.0,-2.7937,-3.1336,-3.3903,-3.7543,-4.0815,-4.3321,-4.3076,-4.3026,-4.3563,0.0,0.0,0.0,0.0,-4.1769,-4.4121,-4.6844,-4.9378,-5.1592,-5.4262,-5.5762,-5.6257,-5.8291,-5.9235,-5.9204,-6.0523,-6.1017,-6.0828,-6.1278,-6.1503,-6.1317,-5.9168,-5.8022,-5.7183,-5.3436,-5.2027,-5.1858,-5.0143,-4.9836,-4.9904,-4.7876,0.0,0.0,0.0,0.0,0.0,0.0,0.0,0.0,0.0,0.0,0.0,0.0,0.0,0.0,0.0,0.0,0.0,0.0,0.0,0.0,0.0,0.0,0.0,0.0,-5.6698,-5.995,-6.2345,-6.2947,-6.5111,-7.0409,-7.2071,-7.359,-7.5704,-7.645,-7.6846,-7.6951,-7.8242,-7.8874,-7.8481,-7.8934,-7.9105,-7.8853,-7.8853,-7.8499,-7.7903,-7.7846,-7.7651,-7.7304,-7.7304,-7.7304,-7.7304,-7.7304,-7.7304,0.0,-7.7304,-7.6827,-7.608,-7.6093,-7.5139,0.0,0.0,0.0,0.0,0.0,-7.0587,-6.987,0.0,0.0,0.0,0.0,0.0,0.0,0.0,0.0,0.0,0.0,0.0,-3.0377,-3.2655,-3.5781,-3.8375,-3.9937,-4.0828,-4.0966,0.0,0.0,0.0,-3.7601,-4.1564,-4.3676,-4.3453,-4.7947,-5.08,-5.1933,-5.48,-5.637,-5.6804,-5.8798,-6.0033,-6.0454,-6.1281,-6.1462,-6.1156,-6.1267,-6.1305,-6.1305,-6.1305,-6.1494,-6.1236,-5.6185,-5.5569,-5.6996,-5.4173,-5.2633,-5.1713,-5.0708,0.0,0.0,0.0,0.0,0.0,0.0,0.0,0.0,0.0,0.0,0.0,0.0,0.0,0.0,0.0,0.0,0.0,0.0,0.0,0.0,0.0,0.0,0.0,0.0,-6.178,-6.5369,-7.11,-7.0644,-7.101,-7.4497,-7.536,-7.6198,-7.7531,-7.7879,-7.802,-7.7928,-7.869,-7.9058,-7.901,0.0,0.0,0.0,0.0,-7.7903,-7.7341,-7.7304,-7.7304,-7.7304,-7.7304,-7.7304,-7.7304,-7.7304,-7.7304,-7.7304,-7.7304,-7.679,-7.5969,-7.5946,-7.4955,-7.3413,-7.334,-7.2386,-7.0991,-7.0643,-6.9412,-6.8019,0.0,0.0,0.0,0.0,0.0,0.0,0.0,0.0,0.0,-2.4266,-2.6536,-2.8587,-2.9732,-3.217,-3.4877,-3.7808,-3.7017,-3.7128,0.0,0.0,-3.8124,-4.2014,-4.2492,-4.3911,-4.6712,-4.9307,-5.0934,-5.1442,-5.469,-5.6134,-5.5881,-5.7955,-5.9102,-5.9493,-6.0305,-6.0997,-6.1566,-6.2181,-6.2438,-6.2438,-6.2438,-6.1825,-6.0601,-5.8182,-5.6706,-5.5654,-5.3785,-5.3823,-5.4534,-5.2661,-5.293,-5.3623,-5.1405,0.0,0.0,0.0,0.0,0.0,0.0,0.0,0.0,0.0,0.0,0.0,0.0,0.0,0.0,0.0,0.0,0.0,0.0,0.0,0.0,-6.35,-6.8188,-7.2319,-7.5263,-7.5928,-7.616,-7.6289,-7.6986,-7.7538,-7.7824,-7.8489,-7.8736,-7.8223,-7.8409,-7.8255,-7.771,-7.7651,-7.7592,-7.751,-7.751,-7.7426,-7.7304,-7.7304,-7.7304,-7.7304,0.0,0.0,-7.7304,-7.7304,-7.7304,-7.7304,-7.7304,-7.646,-7.5125,-7.5102,-7.3817,-7.1725,-7.1064,-7.022,-6.9302,-6.8568,-6.8458,-6.8641,0.0,0.0,0.0,0.0,0.0,0.0,0.0,0.0,0.0,0.0,-2.5952,-2.7493,-2.8301,-3.054,-3.2485,-3.3733,-3.3844,0.0,0.0,-3.8065,-3.9496,-4.2763,-4.4048,-4.555,-4.7383,-4.9229,-5.048,-5.1044,-5.3524,-5.5027,-5.5611,-5.75,-5.8858,-5.9832,-6.0639,-6.1447,-6.2218,-6.2658,-6.2805,-6.2805,-6.2805,-6.2372,-6.1576,-6.0108,-5.884,-5.7567,-5.6579,-5.6229,-5.6074,-5.5056,-5.4748,-5.4597,-5.3585,-5.1424,-4.9193,0.0,0.0,0.0,0.0,0.0,0.0,0.0,0.0,0.0,0.0,0.0,0.0,0.0,0.0,-5.4962,0.0,0.0,-6.4739,-6.8512,-7.193,-7.4729,-7.6627,-7.7579,-7.8065,-7.7983,-7.7704,-7.7744,-7.8067,-7.8223,-7.8108,-7.7789,-7.7826,-7.7651,-7.7304,-7.7304,-7.7304,-7.7304,-7.7304,-7.7304,-7.7304,-7.7304,-7.7304,-7.7304,-7.7304,-7.7304,-7.7304,-7.7304,-7.7084,-7.6717,-7.6741,-7.5786,-7.4243,-7.3413,-7.2165,-7.0624,-6.9816,-6.9339,-6.8972,-6.8017,-6.7944,-6.8238,0.0,0.0,0.0,0.0,0.0,0.0,0.0,0.0,0.0,0.0,-2.5328,-2.6392,-2.7016,-2.8815,-2.9916,0.0,0.0,0.0,0.0,-3.946,-4.1332,-4.2947,-4.5626,-4.7205,-4.7352,-4.882,-4.9994,-5.0802,-5.2564,-5.4179,-5.5611,-5.7262,-5.8767,-6.0199,-6.1006,-6.1814,-6.2585,-6.2732,-6.2805,-6.2805,-6.2989,-6.2952,-6.2708,-6.1596,-6.0698,-5.9892,-5.8952,-5.7563,-5.6211,-5.6469,-5.5319,-5.3981,-5.4815,-5.3496,-5.1374,-4.9921,-4.8859,0.0,0.0,0.0,0.0,0.0,0.0,0.0,0.0,0.0,-5.1516,-5.495,-5.7739,-6.0548,-6.354,-6.6325,-6.9256,-7.2716,-7.4597,-7.5916,-7.6939,-7.7791,-7.8432,-7.8766,-7.7923,-7.751,-7.8035,-7.7629,-7.7304,-7.7304,-7.7304,-7.7304,-7.7304,-7.7304,-7.7304,-7.7304,-7.7304,-7.7304,-7.7304,-7.7304,-7.7304,-7.7304,-7.7304,-7.7304,-7.7304,-7.7133,-7.6692,-7.6093,-7.5749,-7.4794,-7.334,-7.1908,-7.0734,-6.9816,-6.9192,-6.8972,-6.8916,-6.8017,-6.7687,-6.7687,0.0,0.0,0.0,0.0,0.0,0.0,0.0,0.0,0.0,0.0,0.0,0.0,0.0,0.0,0.0,0.0,0.0,0.0,-3.7257,-3.8432,-4.0928,-4.5296,-4.6544,-4.7462,-4.8159,-4.9114,-4.9994,-5.0802,-5.3115,-5.473,-5.5611,-5.7262,-5.8474,-5.9391,-6.0199,-6.097,-6.1777,-6.2511,-6.2805,-6.2879,-6.3649,-6.3503,-6.2732,-6.1875,-6.1029,-5.9963,-5.7037,-5.5017,-5.3769,-5.4912,-5.4652,-5.4242,-5.6443,-5.5995,-5.4168,-5.1749,0.0,-4.6765,-4.4554,-4.3874,-4.4583,-4.8025,-4.8532,-5.0062,0.0,0.0,-5.9281,-6.2871,-6.5085,-6.6668,-6.756,-7.075,-7.3579,-7.4514,-7.6938,-7.8379,-7.7385,-7.7829,-7.809,-7.757,-7.7426,-7.7304,-7.7426,-7.7365,-7.7304,-7.7304,-7.7304,-7.7304,-7.7304,-7.7304,-7.7304,-7.7304,-7.7304,-7.7304,-7.7304,-7.7304,-7.7304,-7.7304,-7.7304,-7.7304,-7.7304,-7.6558,-7.6155,-7.6019,-7.4588,-7.345,-7.2569,-7.1688,-7.0403,-6.9045,-6.9192,-6.8678,-6.7834,-6.7724,-6.7687,-6.7687,0.0,0.0,0.0,0.0,0.0,0.0,0.0,0.0,0.0,0.0,0.0,0.0,0.0,0.0,0.0,0.0,0.0,0.0,-3.7213,-3.8248,-4.0855,-4.57,-4.6691,-4.7498,-4.8269,-4.915,-4.9994,-5.0802,-5.227,-5.3885,-5.5611,-5.6271,-5.7519,-5.9245,-6.0052,-6.086,-6.163,-6.2475,-6.2805,-6.2842,-6.3209,-6.2842,-6.1961,-6.0713,-5.9134,-5.7373,-5.5537,-5.3555,0.0,0.0,-5.2042,-5.1712,-5.3982,-5.372,-5.2268,-5.0554,-4.9148,0.0,-4.5876,-4.6237,0.0,0.0,-5.1731,-5.4859,-5.9733,-6.1514,-6.3242,-6.7102,-6.9701,-7.161,-7.246,-7.4723,-7.6499,0.0,-7.7287,-7.7923,-7.7365,-7.7164,-7.656,-7.5382,-7.5212,-7.5763,-7.7194,-7.7304,-7.7304,-7.7304,-7.7304,-7.7304,-7.7304,-7.7304,-7.7304,-7.7304,-7.7304,-7.7304,-7.7304,-7.7304,-7.7304,-7.7304,-7.7304,-7.7304,-7.7304,-7.6484,-7.5592,-7.461,-7.2973,-7.2129,-7.1725,-7.044,-6.9522,-6.8862,-6.8495,-6.8054,-6.7687,-6.7687,-6.7687,-6.7614,0.0,0.0,0.0,0.0,0.0,0.0,0.0,0.0,0.0,0.0,0.0,0.0,0.0,0.0,0.0,0.0,0.0,0.0,0.0,-3.7404,-4.023,-4.4378,-4.5993,0.0,-4.7976,-4.904,-4.9994,-5.0802,-5.205,-5.3665,-5.5611,-5.6051,-5.7189,-5.8914,-5.9722,-6.0382,-6.1006,-6.1814,-6.2144,-6.2144,-6.2144,-6.1667,-6.075,-5.8914,-5.6712,-5.4473,-5.3408,-5.1353,0.0,0.0,-4.8893,-4.8566,-5.0787,-5.1045,-5.0147,-4.867,-4.7698,-4.6965,-4.6541,0.0,0.0,-5.1785,-5.5322,-5.9318,-6.2962,-6.5049,-6.7266,-7.1136,-7.3339,-7.4795,-7.5622,-7.6681,0.0,-7.6998,-7.6974,-7.6974,-7.6974,-7.6093,-7.4845,-7.323,-7.2642,-7.3156,-7.5139,-7.5946,-7.6497,-7.6937,-7.6974,-7.7084,-7.7304,-7.7304,-7.7304,-7.7304,-7.7304,-7.7304,-7.7304,-7.7304,-7.7304,-7.7304,-7.7304,-7.7194,-7.6937,-7.5922,-7.4675,-7.3309,-7.1872,-7.1174,-7.0881,-6.9486,-6.8788,-6.8495,-6.7907,-6.7687,-6.7687,-6.7687,-6.7687,-6.7577,0.0,0.0,0.0,0.0,0.0,0.0,0.0,0.0,0.0,0.0,0.0,0.0,0.0,0.0,0.0,0.0,0.0,0.0,0.0,-3.5312,-3.8652,-4.1148,-4.4268,-4.6324,-4.7131,-4.8746,-4.9994,-5.0802,-5.3151,-5.4766,-5.5611,-5.7189,-5.796,-5.807,-5.8877,-5.9281,-5.9355,-6.0126,-6.0493,-6.0493,-6.0493,-6.0015,-5.9024,-5.6602,-5.4216,-5.1867,-5.0251,0.0,0.0,0.0,-4.5516,-4.5259,-4.7645,-4.9005,0.0,-4.6728,-4.434,0.0,0.0,0.0,-4.986,-5.6179,-5.9399,-6.2603,-6.873,-7.0809,-7.244,-7.6066,-7.6223,-7.5824,-7.6052,-7.5469,-7.5249,-7.6019,-7.613,-7.613,-7.613,-7.4771,-7.3193,-7.1578,-7.0,-6.9376,0.0,-7.2422,-7.4441,-7.6019,-7.613,-7.6497,-7.7268,-7.7304,-7.7304,-7.7304,-7.7304,-7.7304,-7.7304,-7.7304,-7.7304,-7.7304,-7.7304,-7.69,-7.6093,-7.4515,-7.3303,-7.2496,-7.1688,-7.0881,-7.0073,-6.9229,-6.8458,-6.7724,-6.7687,-6.7687,-6.7687,-6.7687,-6.7687,-6.7577,0.0,0.0,0.0,0.0,0.0,0.0,0.0,0.0,0.0,0.0,0.0,0.0,0.0,0.0,0.0,0.0,0.0,0.0,0.0,-3.3183,-3.5826,-3.935,-4.2066,-4.3901,-4.4672,-4.6838,-4.8343,-4.915,-5.0508,-5.1903,-5.3225,-5.3775,-5.4583,-5.5647,-5.6455,-5.7116,-5.7666,-5.8474,-5.9134,-5.9465,-5.785,-5.7042,-5.6492,-5.3555,-5.0215,-4.6948,0.0,0.0,0.0,0.0,0.0,0.0,-4.3094,-4.3718,0.0,-4.3865,-4.4251,-4.5293,0.0,0.0,-5.5919,-6.0765,-6.4561,-6.8121,-7.2223,-7.3922,-7.4772,-7.5299,-7.403,-7.2484,-7.1524,-7.022,-6.9779,-7.1101,-7.2239,-7.312,-7.3634,-7.3707,-7.2312,-6.8568,-6.8568,0.0,0.0,0.0,0.0,-7.4331,-7.4992,-7.5652,-7.646,-7.7011,-7.7304,-7.7304,-7.7304,-7.7304,-7.7304,-7.7304,-7.7304,-7.7304,-7.6754,-7.5836,-7.4455,-7.3964,-7.2936,-7.1671,-7.0844,-7.0036,-6.9229,-6.8421,-6.7944,-6.7687,-6.7687,-6.7687,-6.7687,-6.7687,-6.7687,-6.7577,0.0,0.0,0.0,0.0,0.0,0.0,0.0,0.0,0.0,0.0,0.0,0.0,0.0,0.0,0.0,0.0,0.0,0.0,0.0,0.0,-3.3183,-3.6376,-3.8872,-4.0524,-4.1332,-4.3461,-4.4929,-4.5736,-4.6838,-4.8086,-4.9407,-4.9994,-5.0802,-5.183,-5.2637,-5.3445,-5.4252,-5.4436,-5.484,-5.517,-5.3298,-5.2234,-5.1426,-4.8783,-4.5773,0.0,0.0,0.0,0.0,0.0,0.0,0.0,-4.0194,-4.0634,-4.1291,-4.231,-4.4583,-4.7537,0.0,-5.5607,-6.0382,-6.5044,-6.8605,-7.1691,-7.4515,-7.5195,-7.4889,-7.3663,-7.1138,-6.8568,-6.6659,-6.4751,-6.4163,-6.6366,-6.7614,-6.9045,-7.1321,-7.1321,-7.0183,-6.765,-6.776,0.0,0.0,0.0,0.0,-7.3083,-7.4294,-7.5249,-7.6056,-7.6864,-7.7304,-7.7304,-7.7304,-7.7304,-7.7304,-7.7304,-7.7194,-7.6864,-7.6056,-7.4992,-7.3685,-7.3413,-7.2532,-7.1267,-7.044,-6.9706,-6.8972,-6.8054,-6.7687,-6.7687,-6.7687,-6.7687,-6.7687,-6.7687,-6.7687,-6.754,0.0,0.0,0.0,0.0,0.0,0.0,0.0,0.0,0.0,0.0,0.0,0.0,0.0,0.0,0.0,0.0,0.0,0.0,0.0,0.0,0.0,-3.2302,-3.4761,-3.645,-3.7221,-3.8872,-4.012,-4.0928,-4.2433,-4.3608,-4.4452,-4.603,-4.6764,-4.6838,-4.7645,-4.8489,-4.9224,-4.8416,-4.8086,-4.8049,-4.7168,-4.592,-4.4415,-4.2727,0.0,0.0,0.0,0.0,0.0,0.0,0.0,0.0,0.0,0.0,-4.1405,-4.2396,-4.5516,-4.9738,-5.4583,-5.8914,-6.3356,-6.8898,-7.1468,-7.323,-7.5506,-7.4698,-7.2973,-7.1284,-6.765,-6.398,0.0,0.0,-5.8694,-6.1924,-6.2658,-6.4494,-6.9302,-6.8091,-6.7283,0.0,0.0,0.0,0.0,0.0,0.0,-7.2386,0.0,-7.5212,-7.6056,-7.6864,-7.7304,-7.7304,-7.7304,-7.7304,-7.7304,-7.7268,-7.6827,-7.6019,-7.5212,-7.4441,-7.3612,-7.2826,-7.1982,-7.1194,-7.0367,-6.9706,-6.9173,-6.8091,-6.7687,-6.7687,-6.7687,-6.7687,-6.7687,-6.765,-6.7614,-6.7393,0.0,0.0,0.0,0.0,0.0,0.0,0.0,0.0,0.0,0.0,0.0,0.0,0.0,0.0,0.0,0.0,0.0,0.0,0.0,0.0,0.0,0.0,0.0,0.0,0.0,0.0,0.0,0.0,0.0,-3.9423,-4.0267,-4.1258,-4.2066,-4.269,-4.3461,-4.4305,-4.5039,-4.4819,-4.5076,-4.5443,0.0,-4.2763,-4.269,0.0,0.0,0.0,0.0,0.0,0.0,0.0,0.0,0.0,0.0,0.0,-4.3534,-4.6764,0.0,-5.4656,-5.8914,-6.3906,-6.8715,-7.1945,-7.3523,-7.4478,-7.5065,-7.2569,-6.9339,-6.6512,-6.1263,-5.6455,0.0,0.0,0.0,-5.6895,-6.0456,0.0,-6.7797,-6.9339,0.0,0.0,0.0,-6.9926,-6.9522,-7.077,0.0,0.0,-7.378,-7.4625,-7.6019,-7.6864,-7.7304,-7.7304,-7.7304,-7.7304,-7.7304,-7.6717,-7.6019,-7.5212,-7.4382,-7.3538,-7.2789,-7.1945,-7.1138,-7.033,-6.9559,-6.8788,-6.8054,-6.7797,-6.7687,-6.7687,-6.7687,-6.7687,-6.7614,-6.7026,-6.6806,-6.6586,0.0,0.0,0.0,0.0,0.0,0.0,0.0,0.0,0.0,0.0,0.0,0.0,0.0,0.0,0.0,0.0,0.0,0.0,0.0,0.0,0.0,0.0,0.0,0.0,0.0,0.0,0.0,0.0,0.0,0.0,0.0,-3.6303,-3.6927,-3.7441,-3.8579,-3.957,-4.0341,0.0,0.0,0.0,0.0,0.0,0.0,0.0,0.0,0.0,0.0,0.0,0.0,0.0,0.0,-4.1368,-4.3681,-4.57,-4.7939,-5.1683,0.0,-5.9575,-6.3246,-6.765,-7.1651,-7.3707,-7.4294,-7.4001,-7.2606,-6.9449,-6.5375,-6.0346,-5.528,0.0,0.0,0.0,0.0,0.0,0.0,0.0,-6.5999,-6.8128,-6.9633,0.0,-7.1505,0.0,-7.2165,-7.301,-7.3891,0.0,-7.4735,-7.5139,-7.6056,-7.6864,-7.7304,-7.7304,-7.7304,-7.7304,-7.7304,-7.6864,-7.6056,-7.4918,-7.4455,-7.3612,-7.2496,-7.2018,-7.1174,-7.0073,0.0,-6.8752,-6.7687,-6.7687,-6.7687,-6.7687,-6.7687,-6.7467,-6.71,-6.6659,-6.6292,-6.5852,0.0,0.0,0.0,0.0,0.0,0.0,0.0,0.0,0.0,0.0,0.0,0.0,0.0,0.0,0.0,0.0,0.0,0.0,0.0,0.0,0.0,0.0,0.0,0.0,0.0,0.0,0.0,0.0,0.0,0.0,0.0,0.0,0.0,0.0,0.0,0.0,0.0,0.0,0.0,0.0,0.0,0.0,0.0,0.0,0.0,0.0,0.0,0.0,0.0,0.0,-4.324,-4.3534,-4.6985,-5.0251,-5.3445,-5.6785,-6.0493,-6.4127,-6.7173,-7.0367,-7.312,-7.4441,-7.3964,-7.2386,-6.9155,-6.5411,-6.0713,-5.3959,0.0,0.0,-4.3534,0.0,-4.5663,-4.904,0.0,-5.785,-6.4383,-6.6072,-6.8348,-7.2973,-7.312,-7.3413,-7.4918,-7.5175,-7.5506,-7.6203,-7.6276,-7.6276,-7.6276,-7.6937,-7.7304,-7.7304,-7.7304,-7.7304,-7.7304,-7.7194,-7.6387,-7.4918,-7.4785,-7.3942,-7.2496,-7.2422,-7.1541,-7.0073,-7.0,0.0,-6.7687,-6.7687,-6.7687,-6.7687,-6.7687,-6.7247,-6.6623,-6.6402,-6.5888,-6.5264,0.0,0.0,0.0,0.0,0.0,0.0,0.0,0.0,0.0,0.0,-2.4016,0.0,0.0,0.0,0.0,0.0,0.0,0.0,0.0,0.0,0.0,0.0,0.0,0.0,0.0,0.0,0.0,0.0,0.0,0.0,0.0,0.0,0.0,0.0,0.0,0.0,0.0,0.0,0.0,0.0,0.0,0.0,0.0,0.0,0.0,0.0,0.0,0.0,0.0,0.0,-4.4745,-4.7095,-5.1683,-5.4876,-5.774,-6.1667,-6.4751,-6.7247,-6.9155,-7.2018,-7.4404,-7.4001,-7.2312,-6.9889,-6.6659,-6.0309,0.0,0.0,0.0,-4.1992,-4.0744,-4.2249,0.0,-4.8857,0.0,0.0,0.0,0.0,-6.8788,0.0,0.0,0.0,0.0,0.0,0.0,0.0,0.0,-7.7121,-7.7121,-7.7231,-7.7304,-7.7304,-7.7304,-7.7304,-7.7304,-7.6644,-7.5836,-7.4918,-7.4243,-7.3398,-7.2496,-7.1851,-7.1007,-7.0073,-6.9412,0.0,-6.7687,-6.7687,-6.7687,-6.7687,-6.7687,-6.7614,-6.732,-6.5999,-6.5411,-6.5118,0.0,0.0,0.0,0.0,0.0,0.0,0.0,0.0,0.0,0.0,-2.4112,-2.419,0.0,0.0,0.0,0.0,0.0,0.0,0.0,0.0,0.0,0.0,0.0,0.0,0.0,0.0,0.0,0.0,0.0,0.0,0.0,0.0,0.0,0.0,0.0,0.0,0.0,0.0,0.0,0.0,0.0,0.0,0.0,0.0,0.0,0.0,0.0,0.0,0.0,0.0,-4.4121,-4.7498,-5.3225,-5.6969,-5.9905,-6.3135,-6.5815,-6.8054,-6.9669,-7.2459,-7.4625,-7.3377,-7.0954,-6.743,-6.2108,0.0,0.0,0.0,0.0,-4.023,-3.9423,0.0,0.0,0.0,0.0,0.0,0.0,0.0,0.0,0.0,0.0,0.0,0.0,0.0,0.0,0.0,0.0,-7.7304,-7.7304,-7.7304,-7.7304,-7.7304,-7.7304,-7.7304,-7.7304,-7.6937,-7.613,-7.4895,-7.45,-7.3655,-7.2496,-7.2108,-7.1264,-7.0073,-6.9706,0.0,-6.7687,-6.7687,-6.7687,-6.7687,-6.7687,-6.7173,-6.6366,-6.5595,-6.4751,-6.3906,0.0,0.0,0.0,0.0,0.0,0.0,0.0,-2.2774,-2.3259,-2.3816,-2.3955,-2.4016,-2.4112,-2.4151,-2.4056,0.0,0.0,0.0,0.0,0.0,0.0,0.0,0.0,0.0,0.0,0.0,0.0,0.0,0.0,0.0,0.0,0.0,0.0,0.0,0.0,0.0,0.0,0.0,0.0,0.0,0.0,0.0,0.0,0.0,0.0,0.0,0.0,0.0,0.0,0.0,-4.2139,-4.5406,-5.1389,-5.6308,-6.0309,-6.2438,-6.5118,-6.776,-6.9192,-7.1945,-7.4001,-7.2386,-6.9302,-6.4861,-5.8107,-5.2344,0.0,0.0,-3.9753,-3.946,-3.8836,0.0,0.0,0.0,0.0,0.0,0.0,0.0,0.0,0.0,0.0,0.0,0.0,0.0,0.0,0.0,0.0,0.0,-7.7304,-7.7304,-7.7304,-7.7304,-7.7304,-7.7304,-7.7304,-7.7157,-7.6326,-7.4872,-7.4735,-7.3912,-7.2496,-7.2312,-7.1468,-7.0073,-6.9926,0.0,0.0,-6.7687,-6.7504,-6.721,-6.7393,-6.6549,-6.5301,-6.5118,-6.42,-6.3062,0.0,0.0,0.0,0.0,0.0,0.0,0.0,-2.2143,-2.2772,-2.2822,-2.3093,-2.3432,-2.3732,-2.4016,-2.4056,0.0,0.0,0.0,0.0,0.0,0.0,0.0,0.0,0.0,0.0,0.0,0.0,0.0,0.0,0.0,0.0,0.0,0.0,0.0,0.0,0.0,0.0,0.0,0.0,0.0,0.0,0.0,0.0,0.0,0.0,0.0,0.0,0.0,0.0,0.0,0.0,-4.012,-4.4378,-5.1463,-5.84,-5.9391,0.0,0.0,-6.7687,-7.0257,-7.2349,-7.0734,-6.6769,-6.1924,-5.6859,0.0,0.0,0.0,-3.9313,-3.8799,-3.8726,-3.946,0.0,0.0,0.0,0.0,0.0,0.0,0.0,0.0,0.0,0.0,0.0,0.0,0.0,0.0,0.0,0.0,-7.7231,-7.7304,-7.7304,-7.7304,-7.7304,-7.7304,-7.7304,-7.6607,-7.5739,-7.4872,-7.4162,-7.3318,-7.2496,-7.1782,-7.0917,-7.0073,-6.9339,0.0,0.0,-6.7687,-6.6826,-6.56,-6.6313,-6.6072,-6.5228,-6.4494,-6.409,-6.387,0.0,0.0,0.0,0.0,0.0,0.0,0.0,-2.1857,-2.2772,-2.2972,-2.3117,-2.3236,-2.3374,-2.3522,-2.3544,0.0,0.0,0.0,0.0,0.0,0.0,0.0,0.0,0.0,0.0,0.0,0.0,0.0,0.0,0.0,0.0,0.0,0.0,0.0,0.0,0.0,0.0,0.0,0.0,0.0,0.0,0.0,0.0,0.0,0.0,0.0,0.0,0.0,0.0,0.0,0.0,0.0,-3.7808,-4.2616,0.0,0.0,-5.7629,-6.1374,-6.464,-6.8238,-7.055,-6.8458,-6.4273,-5.9245,-5.3922,0.0,0.0,-3.9019,-3.7808,-3.7404,-3.7881,-3.8248,-3.9093,0.0,0.0,0.0,0.0,0.0,0.0,0.0,0.0,0.0,0.0,0.0,0.0,0.0,0.0,0.0,-7.5799,-7.5873,-7.5873,-7.5873,-7.5873,-7.5873,-7.5873,-7.5519,-7.4969,-7.4198,-7.3868,-7.3046,-7.1762,-7.1431,-7.0587,-6.9376,-6.9045,0.0,0.0,-6.7687,-6.732,-6.6716,-6.6586,-6.6292,-6.5888,-6.4567,-6.409,-6.398,0.0,0.0,0.0,0.0,0.0,0.0,-2.0278,-2.1462,-2.2436,-2.2873,-2.2933,-2.2982,-2.3045,-2.2972,-2.2982,-2.3045,0.0,0.0,0.0,0.0,0.0,0.0,0.0,0.0,0.0,0.0,0.0,0.0,0.0,0.0,0.0,0.0,0.0,0.0,0.0,0.0,0.0,0.0,0.0,0.0,0.0,0.0,0.0,0.0,0.0,0.0,0.0,0.0,0.0,0.0,0.0,0.0,0.0,0.0,0.0,0.0,-5.2087,-5.6308,-6.0456,-6.4677,-6.7467,-6.5521,-6.1557,-5.6785,0.0,0.0,0.0,-3.7991,-3.6853,-3.645,-3.7037,-3.7331,-3.7845,0.0,0.0,0.0,0.0,0.0,0.0,0.0,0.0,0.0,0.0,0.0,0.0,0.0,0.0,0.0,0.0,-7.4074,-7.4404,-7.4882,-7.4918,-7.4918,-7.4918,-7.4675,-7.4272,-7.3685,-7.3465,-7.2642,-7.1304,-7.1027,-7.022,-6.8898,-6.8641,0.0,0.0,-6.7687,-6.7393,-6.6916,-6.6366,-6.5852,-6.5264,-6.4127,-6.3723,-6.3613,0.0,0.0,0.0,0.0,0.0,0.0,0.0,-2.067,-2.1475,-2.2192,-2.2293,-2.2398,-2.2669,-2.248,-2.2426,-2.2669,0.0,0.0,0.0,0.0,0.0,0.0,0.0,0.0,0.0,0.0,0.0,-2.2327,-2.2642,0.0,0.0,0.0,0.0,0.0,0.0,0.0,0.0,0.0,0.0,0.0,0.0,0.0,0.0,0.0,0.0,0.0,0.0,0.0,0.0,0.0,0.0,0.0,0.0,0.0,0.0,0.0,-4.6985,-5.2564,-5.5023,-5.9208,-6.2695,-6.1851,-5.8621,-5.4546,0.0,0.0,0.0,-3.7991,-3.6853,-3.6303,-3.6303,-3.6964,-3.7507,-3.7514,0.0,0.0,0.0,0.0,0.0,0.0,0.0,0.0,0.0,0.0,0.0,0.0,0.0,0.0,0.0,-7.2092,-7.3266,-7.4845,-7.4918,-7.4918,-7.4918,-7.4088,-7.3722,-7.3685,-7.2899,-7.2092,-7.1267,-7.0477,-6.9669,0.0,0.0,0.0,0.0,-6.7687,-6.6769,-6.5338,-6.5338,-6.431,-6.2842,-6.2842,-6.2805,-6.2805,0.0,0.0,0.0,0.0,0.0,0.0,0.0,-2.0365,-2.1305,-2.1515,-2.1989,-2.2321,-2.2426,-2.2349,-2.2321,-2.2426,0.0,0.0,0.0,0.0,0.0,0.0,0.0,0.0,0.0,0.0,-2.2573,-2.2573,-2.3457,-2.4477,-2.5601,0.0,0.0,0.0,0.0,0.0,0.0,0.0,0.0,0.0,0.0,0.0,0.0,0.0,0.0,0.0,0.0,0.0,0.0,0.0,0.0,0.0,0.0,0.0,0.0,0.0,0.0,0.0,-4.8159,-5.172,-5.4399,-5.3592,-5.1169,-4.8196,-4.5259,0.0,-3.7441,-3.6083,-3.5165,-3.4761,-3.5312,-3.5642,-3.634,-3.8028,-3.8958,0.0,0.0,0.0,0.0,0.0,0.0,0.0,0.0,0.0,0.0,0.0,0.0,0.0,0.0,-7.0734,-7.1101,-7.1615,-7.2165,-7.2144,-7.1631,-7.1369,-7.1223,-7.1264,-7.0991,-7.044,-6.9633,-6.9412,-6.8825,0.0,0.0,0.0,0.0,-6.6476,-6.5778,-6.5264,-6.4677,-6.4494,-6.4383,-6.3246,-6.3172,-6.3613,0.0,0.0,0.0,0.0,0.0,0.0,0.0,-1.9722,-2.0534,-2.1136,-2.1583,-2.1989,-2.2293,-2.2327,-2.2327,-2.2327,0.0,0.0,0.0,0.0,0.0,0.0,0.0,0.0,0.0,-2.2546,-2.2695,-2.2695,-2.3943,-2.4956,-2.5646,-2.6908,-2.7848,0.0,0.0,0.0,0.0,0.0,0.0,0.0,0.0,0.0,-3.0503,0.0,0.0,0.0,0.0,0.0,0.0,0.0,0.0,0.0,0.0,0.0,0.0,0.0,-3.4835,0.0,0.0,-4.603,-4.8012,-4.7792,-4.6212,0.0,0.0,0.0,-3.6205,-3.5356,-3.4439,-3.3954,-3.4468,-3.477,-3.5614,-3.7477,0.0,0.0,0.0,0.0,0.0,0.0,0.0,0.0,0.0,0.0,0.0,0.0,0.0,0.0,0.0,-6.9926,-6.9816,-6.9192,-7.0257,-7.0604,-7.0071,-7.0108,-7.0071,-7.011,-7.0073,-6.9486,-6.8458,-6.8458,-6.7834,0.0,0.0,0.0,0.0,-6.5705,-6.4919,-6.4332,-6.4163,-6.42,-6.4237,-6.3209,-6.3135,-6.3539,0.0,0.0,0.0,0.0,0.0,0.0,0.0,0.0,0.0,0.0,-2.117,-2.1481,-2.2226,-2.2327,-2.2327,0.0,0.0,0.0,0.0,0.0,0.0,0.0,0.0,0.0,0.0,-2.2599,-2.2746,-2.2772,-2.4254,-2.5018,-2.5055,-2.7053,-2.7934,-2.7934,-2.8741,-2.9049,-2.9049,-2.9806,-2.9696,-2.9049,-2.9806,-2.9659,0.0,0.0,0.0,0.0,0.0,0.0,0.0,0.0,0.0,0.0,0.0,0.0,0.0,0.0,0.0,0.0,0.0,0.0,0.0,0.0,0.0,0.0,0.0,0.0,0.0,-3.5553,-3.4548,-3.387,-3.3954,-3.4541,-3.532,-3.6376,0.0,0.0,0.0,0.0,0.0,0.0,0.0,0.0,0.0,0.0,0.0,0.0,0.0,0.0,0.0,-6.9596,-6.9302,-6.7724,-6.9155,-6.9963,-6.9944,-6.9945,-6.9963,-6.9963,-6.9963,-6.91,-6.7614,-6.7614,-6.6769,0.0,0.0,0.0,0.0,-6.5191,-6.4222,-6.2888,-6.3672,-6.3503,-6.2805,-6.2805,-6.2805,-6.2805,0.0,0.0,0.0,0.0,0.0,0.0,0.0,0.0,0.0,0.0,-2.0805,-2.1481,-2.2226,-2.2327,-2.2327,0.0,0.0,0.0,0.0,0.0,0.0,0.0,0.0,0.0,0.0,-2.2923,-2.3212,-2.3477,-2.5296,-2.6176,-2.6249,-2.8572,-2.9329,-2.8741,-2.9549,-2.9586,-2.9012,-2.9195,-2.9159,-2.9012,-2.9195,-2.9159,0.0,0.0,0.0,0.0,-2.8975,-2.8975,0.0,0.0,0.0,0.0,0.0,0.0,0.0,0.0,-3.032,-3.0944,-3.3109,0.0,-3.5349,-3.6156,0.0,0.0,0.0,0.0,0.0,0.0,0.0,0.0,0.0,0.0,0.0,0.0,0.0,0.0,0.0,0.0,0.0,0.0,0.0,0.0,0.0,0.0,0.0,0.0,0.0,0.0,0.0,-6.8752,-6.8715,-6.7724,-6.8054,-6.8238,-6.8274,-6.8238,-6.8292,-6.8292,-6.8292,-6.7724,-6.6769,-6.6769,-6.6256,0.0,0.0,0.0,-6.5184,-6.3906,-6.3122,-6.2828,-6.3062,-6.2989,-6.2805,-6.2805,-6.2805,-6.2805,0.0,0.0,0.0,0.0,0.0,0.0,0.0,0.0,0.0,0.0,0.0,0.0,0.0,0.0,0.0,0.0,0.0,0.0,0.0,0.0,0.0,0.0,0.0,0.0,-2.2923,-2.3259,-2.3701,-2.4252,-2.5826,-2.6979,-2.775,-2.9439,-2.9989,-2.9549,-2.9622,-2.9439,-2.8975,-2.8975,-2.8815,-2.8484,-2.8828,0.0,0.0,0.0,0.0,0.0,-2.8975,-2.8975,0.0,-2.8975,-2.9549,-2.9989,0.0,0.0,0.0,0.0,-2.9108,-2.9255,-3.0063,-3.1421,-3.2816,-3.3587,-3.4197,-3.467,0.0,0.0,0.0,0.0,0.0,0.0,0.0,0.0,0.0,0.0,0.0,0.0,0.0,0.0,0.0,0.0,0.0,0.0,0.0,0.0,0.0,0.0,0.0,0.0,0.0,-6.8678,-6.8531,-6.7724,-6.7687,-6.754,-6.7156,-6.7156,-6.6936,-6.6586,-6.6623,-6.6182,-6.5411,-6.5411,-6.4934,0.0,0.0,0.0,-6.4067,-6.3172,-6.2805,-6.2805,-6.2805,-6.2805,-6.2805,-6.2805,-6.2805,-6.2805,0.0,0.0,0.0,0.0,0.0,0.0,0.0,0.0,0.0,0.0,0.0,0.0,0.0,0.0,0.0,0.0,0.0,0.0,0.0,0.0,0.0,0.0,0.0,-2.2873,-2.3259,-2.3544,-2.4129,-2.4968,-2.6213,-2.7567,-2.9012,-3.0063,-3.0503,-3.0356,-2.9549,-2.9085,-2.8975,-2.8975,-2.8631,-2.8044,-2.8741,0.0,0.0,0.0,0.0,0.0,0.0,0.0,0.0,-2.8865,-2.9365,-2.9732,-2.8117,0.0,0.0,0.0,0.0,0.0,-2.8962,-3.1054,-3.3036,-3.3366,-3.4338,-3.5244,0.0,0.0,0.0,0.0,0.0,0.0,0.0,0.0,0.0,0.0,0.0,0.0,0.0,0.0,0.0,0.0,0.0,0.0,0.0,0.0,0.0,0.0,0.0,0.0,-6.8715,-6.8825,-6.8531,-6.7724,-6.7577,-6.712,-6.6316,-6.6443,-6.6093,-6.5316,-6.5301,-6.4897,-6.409,-6.409,-6.3613,-6.2805,0.0,0.0,-6.2805,-6.2805,-6.2805,-6.2805,-6.2805,-6.2805,-6.2805,-6.2805,-6.2805,-6.2805,0.0,0.0,0.0,0.0,0.0,0.0,0.0,0.0,0.0,0.0,0.0,0.0,0.0,0.0,0.0,0.0,0.0,0.0,0.0,0.0,0.0,0.0,-2.3021,-2.2996,-2.361,-2.3653,-2.4236,-2.5324,-2.6848,-2.8081,-2.9049,-3.1237,-3.1861,-3.1164,-3.0356,-2.9659,-2.8975,-2.8975,-2.8902,-2.8828,-2.8938,0.0,0.0,0.0,0.0,0.0,0.0,0.0,0.0,-2.8227,-2.8521,-2.8902,-2.731,0.0,0.0,0.0,0.0,0.0,-2.9806,-3.2265,-3.4147,-3.2265,-3.2941,-3.4071,0.0,0.0,0.0,0.0,0.0,0.0,0.0,0.0,0.0,0.0,0.0,0.0,0.0,0.0,0.0,0.0,0.0,0.0,0.0,0.0,0.0,0.0,0.0,0.0,-6.7907,-6.8531,-6.8531,-6.7724,-6.7026,-6.6313,-6.5477,-6.6182,-6.6118,-6.5335,-6.5285,-6.4867,-6.409,-6.409,-6.3613,-6.2805,0.0,-6.2805,-6.2805,-6.2805,-6.2805,-6.2805,-6.2805,-6.2805,-6.2805,-6.2805,-6.2805,-6.2805,0.0,0.0,0.0,0.0,0.0,0.0,0.0,0.0,0.0,0.0,0.0,0.0,0.0,0.0,0.0,0.0,0.0,0.0,0.0,0.0,0.0,-2.3653,-2.3374,-2.3477,-2.3976,-2.4377,-2.5116,-2.6062,-2.7677,-2.9072,-3.032,-3.1421,-3.1531,-3.0723,-2.9916,-2.9342,-2.8975,-2.8975,-2.8975,-2.8975,0.0,0.0,0.0,0.0,0.0,0.0,0.0,0.0,0.0,0.0,-2.8448,-2.8904,-2.7132,0.0,0.0,0.0,0.0,0.0,-2.9329,-3.1274,-3.2889,-3.2228,-3.4284,-3.634,-3.5899,0.0,0.0,0.0,0.0,0.0,0.0,0.0,0.0,0.0,0.0,0.0,0.0,0.0,0.0,0.0,0.0,0.0,0.0,0.0,0.0,0.0,0.0,0.0,-6.7724,-6.765,-6.743,-6.7063,-6.6256,-6.5469,-6.4652,-6.5029,-6.4765,-6.3934,-6.3934,-6.3787,-6.3392,-6.3392,-6.3172,-6.2805,0.0,-6.2768,-6.2781,-6.2805,-6.2291,-6.1557,-6.1998,-6.1887,-6.152,-6.152,-6.152,-6.152,0.0,0.0,0.0,0.0,0.0,0.0,0.0,0.0,0.0,0.0,0.0,0.0,0.0,0.0,0.0,0.0,0.0,0.0,0.0,0.0,-2.3165,-2.3689,-2.3774,-2.4028,-2.4483,-2.509,-2.5878,-2.6869,-2.8484,-3.0099,-3.1678,-3.1678,-3.1164,-3.0173,-2.9586,-2.9159,-2.8975,-2.8975,-2.8975,-2.8975,0.0,0.0,0.0,0.0,0.0,0.0,0.0,0.0,0.0,0.0,0.0,0.0,0.0,0.0,0.0,-2.7922,-2.7963,-2.8264,-2.9072,-3.0467,-3.1825,-3.2449,0.0,-3.7624,-3.7955,0.0,0.0,0.0,0.0,0.0,0.0,0.0,0.0,0.0,0.0,0.0,0.0,0.0,0.0,0.0,0.0,0.0,0.0,0.0,0.0,0.0,0.0,0.0,-6.7136,-6.6549,-6.6219,-6.6219,-6.5448,-6.4699,-6.4097,-6.3892,-6.3452,-6.2805,-6.2622,-6.2622,-6.2805,-6.2622,-6.2622,-6.2805,-6.2622,-6.2634,-6.2769,-6.2414,-6.152,-6.0456,-6.108,-6.0933,-6.0419,-6.0419,-6.0419,-6.0419,0.0,0.0,0.0,0.0,0.0,0.0,0.0,0.0,0.0,0.0,0.0,0.0,0.0,0.0,0.0,0.0,0.0,0.0,0.0,0.0,-2.3631,-2.371,-2.3996,-2.4501,-2.5311,-2.5384,-2.6156,-2.7714,-2.9329,-3.0944,-3.2522,-3.2522,-3.1678,-3.021,-3.0136,-2.9696,-2.8975,-2.8975,-2.8975,-2.8975,-2.8975,0.0,0.0,0.0,0.0,0.0,0.0,0.0,0.0,0.0,0.0,0.0,0.0,0.0,-2.8088,-2.807,-2.8482,-2.9108,-2.9916,-3.1311,-3.2522,-3.2596,0.0,0.0,-3.8872,0.0,0.0,0.0,0.0,0.0,0.0,0.0,0.0,0.0,0.0,0.0,0.0,0.0,0.0,0.0,0.0,0.0,0.0,0.0,0.0,0.0,0.0,0.0,-6.5485,-6.5433,-6.5396,-6.5411,-6.4589,-6.4163,-6.4081,-6.3332,-6.2879,-6.2805,-6.2034,-6.2071,-6.2768,-6.2034,-6.2108,-6.2768,-6.1998,-6.2083,-6.2696,-6.1202,-6.0493,-6.0419,-6.0456,-6.0456,-6.0419,-6.0419,-6.0419,-6.0419,0.0,0.0,0.0,0.0,0.0,0.0,0.0,0.0,0.0,0.0,0.0,0.0,0.0,0.0,0.0,0.0,0.0,0.0,0.0,0.0,-2.3795,-2.3996,-2.4132,-2.4557,-2.5384,-2.5878,-2.6429,-2.7053,-2.9182,-3.0503,-3.1127,-3.1127,-3.054,-2.9475,-2.9475,-2.9292,-2.8975,-2.8975,-2.8975,-2.8975,-2.8975,-2.8975,0.0,0.0,0.0,0.0,0.0,0.0,0.0,0.0,-2.6636,-2.7676,0.0,-2.7549,-2.9027,-2.8746,-2.8832,-2.9049,-2.9365,-3.1017,-3.2596,-3.2596,0.0,0.0,0.0,0.0,0.0,0.0,0.0,0.0,0.0,0.0,0.0,0.0,0.0,0.0,0.0,0.0,0.0,0.0,0.0,0.0,0.0,0.0,0.0,0.0,0.0,0.0,0.0,-6.4053,-6.3965,-6.4516,-6.3709,-6.3282,-6.3296,-6.2487,-6.2047,-6.2059,-6.1753,-6.1741,-6.2034,-6.1227,-6.1006,-6.13,-6.1006,-6.1018,-6.1298,-6.0651,-5.9795,-5.8914,-5.8914,-5.8914,-5.8914,-5.8914,-5.8914,-5.8914,0.0,0.0,0.0,0.0,0.0,0.0,0.0,0.0,0.0,0.0,0.0,0.0,0.0,0.0,0.0,0.0,0.0,0.0,0.0,-2.3526,-2.3976,-2.419,-2.419,-2.4447,-2.5017,-2.5805,-2.6465,-2.6979,-2.9145,-3.021,-3.021,-3.021,-2.9769,-2.8975,-2.8975,-2.8975,-2.8975,-2.8975,-2.8975,-2.8975,-2.8975,-2.8975,0.0,0.0,0.0,0.0,0.0,0.0,0.0,0.0,-2.6094,0.0,0.0,0.0,0.0,-2.9058,-2.9067,-2.8975,-2.8975,-3.0369,-3.1971,0.0,0.0,0.0,0.0,0.0,0.0,0.0,0.0,0.0,0.0,0.0,0.0,0.0,0.0,0.0,0.0,0.0,0.0,0.0,0.0,0.0,0.0,0.0,0.0,0.0,0.0,0.0,0.0,-6.2608,-6.2718,-6.3291,-6.2755,-6.2425,-6.2425,-6.163,-6.1202,-6.1235,-6.0945,-6.097,-6.119,-6.0382,-6.0162,-6.0382,-6.0126,-6.0173,-6.0331,-5.9879,-5.8988,-5.7997,-5.7997,-5.7997,-5.7997,-5.7997,-5.7821,-5.7679,0.0,0.0,0.0,0.0,0.0,0.0,0.0,0.0,0.0,0.0,0.0,0.0,0.0,0.0,0.0,0.0,0.0,0.0,-2.3674,-2.4016,-2.419,-2.419,-2.419,-2.419,-2.419,-2.5017,-2.6193,-2.7787,-2.9365,-3.0173,-3.0173,-3.0173,-2.9769,-2.8975,-2.8975,-2.8975,-2.8975,-2.8975,-2.8975,-2.8975,-2.8975,-2.8975,-2.8975,0.0,0.0,0.0,0.0,0.0,0.0,0.0,-2.4321,-2.4791,0.0,0.0,0.0,-2.889,-2.9222,-2.9012,-2.9012,-2.9622,0.0,0.0,0.0,0.0,0.0,0.0,0.0,0.0,0.0,0.0,0.0,0.0,0.0,0.0,0.0,0.0,0.0,0.0,0.0,0.0,0.0,0.0,0.0,0.0,0.0,0.0,0.0,0.0,0.0,-6.1166,-6.1592,-6.1592,-6.1592,-6.1592,-6.1592,-6.0799,-6.0394,-6.037,-5.9595,-5.9612,-6.0382,-5.9575,-5.9648,-6.0346,-5.9538,-5.9659,-6.022,-5.8667,-5.7997,-5.7997,-5.7997,-5.7997,-5.7997,-5.7997,-5.7498,-5.7015,0.0,0.0,0.0,0.0,0.0,0.0,0.0,0.0,0.0,0.0,0.0,0.0,0.0,0.0,0.0,0.0,0.0,0.0,-2.4016,-2.4151,-2.419,-2.419,-2.419,-2.419,-2.419,-2.5017,-2.5915,-2.6979,-2.742,-2.797,-2.8521,-2.8521,-2.8705,-2.8975,-2.8975,-2.8975,-2.8975,-2.8975,-2.8975,-2.8975,-2.8975,-2.8975,-2.8975,0.0,0.0,0.0,0.0,0.0,0.0,0.0,0.0,0.0,0.0,0.0,0.0,-2.903,-2.9471,-2.9843,-2.9843,0.0,0.0,0.0,0.0,0.0,0.0,0.0,0.0,0.0,0.0,0.0,0.0,0.0,0.0,0.0,0.0,0.0,0.0,0.0,0.0,0.0,0.0,0.0,0.0,0.0,0.0,0.0,0.0,0.0,0.0,-6.0628,-6.0762,-6.0761,-6.0761,-6.0799,-6.0746,-5.9963,-5.9559,-5.9541,-5.874,-5.8767,-5.9538,-5.8731,-5.8474,-5.8694,-5.8474,-5.8474,-5.8667,-5.818,-5.7997,-5.7997,-5.7997,-5.7997,-5.795,-5.7401,-5.7065,-5.6861,0.0,0.0,0.0,0.0,0.0,0.0,0.0,0.0,0.0,0.0,0.0,0.0,0.0,0.0,0.0,0.0,0.0,0.0,0.0,0.0,-2.419,-2.419,-2.419,-2.419,-2.419,-2.4667,-2.5144,-2.5658,-2.6282,-2.6869,-2.7346,-2.764,-2.8044,-2.8558,-2.8865,-2.8975,-2.8975,-2.8975,-2.8975,-2.8975,-2.8975,-2.8975,-2.8975,0.0,0.0,0.0,0.0,0.0,0.0,0.0,0.0,0.0,0.0,0.0,0.0,-2.8971,-2.9365,-2.9806,-3.0099,0.0,0.0,0.0,0.0,0.0,0.0,0.0,0.0,0.0,0.0,0.0,0.0,0.0,0.0,0.0,0.0,0.0,0.0,0.0,0.0,0.0,0.0,0.0,0.0,0.0,0.0,0.0,0.0,0.0,0.0,-5.9769,-5.9905,-5.9956,-5.9908,-5.9942,-5.9918,-5.9127,-5.8713,-5.8713,-5.8263,-5.8253,-5.8731,-5.8217,-5.7997,-5.7997,-5.7997,-5.7997,-5.7997,-5.7997,-5.7997,-5.7997,-5.7997,-5.7997,-5.7904,-5.7166,-5.6668,-5.6367,0.0,0.0,0.0,0.0,0.0,0.0,0.0,0.0,0.0,0.0,0.0,0.0,0.0,0.0,0.0,0.0,0.0,0.0,0.0,0.0,-2.419,-2.419,-2.419,-2.419,-2.419,-2.419,-2.419,-2.419,-2.5658,-2.6429,-2.6502,-2.731,-2.7714,-2.7824,-2.8631,-2.8975,-2.8975,-2.8975,-2.8975,-2.8975,-2.8975,-2.8975,-2.8975,-2.8975,0.0,0.0,0.0,0.0,0.0,0.0,0.0,0.0,0.0,0.0,-2.8044,-2.8815,-2.9049,-2.9329,0.0,0.0,0.0,0.0,0.0,0.0,0.0,0.0,0.0,0.0,0.0,0.0,0.0,0.0,0.0,0.0,0.0,0.0,0.0,0.0,0.0,0.0,0.0,0.0,0.0,0.0,0.0,0.0,0.0,0.0,0.0,-5.8713,-5.909,-5.909,-5.909,-5.909,-5.9016,-5.828,-5.7904,-5.7886,-5.7914,-5.7904,-5.7904,-5.7997,-5.7997,-5.7997,-5.7997,-5.7997,-5.7997,-5.7997,-5.7914,-5.7794,-5.796,-5.795,-5.7821,-5.7065,-5.6313,-5.5667,0.0,0.0,0.0,0.0,0.0,0.0,0.0,0.0,0.0,0.0,0.0,0.0,0.0,0.0,0.0,0.0,0.0,0.0,0.0,0.0,-2.419,-2.419,-2.419,-2.419,-2.419,-2.419,-2.419,-2.419,-2.4557,-2.5034,-2.5678,-2.6465,-2.72,-2.7824,-2.8631,-2.8975,-2.8975,-2.8975,-2.8975,-2.8975,-2.8975,-2.8975,-2.8975,-2.8975,-2.8975,0.0,0.0,0.0,0.0,0.0,0.0,0.0,-2.7493,-2.8227,-2.8778,-2.8938,-2.9475,-3.0283,0.0,0.0,0.0,0.0,0.0,0.0,0.0,0.0,0.0,0.0,0.0,0.0,0.0,0.0,0.0,0.0,0.0,0.0,0.0,0.0,0.0,0.0,0.0,0.0,0.0,0.0,0.0,0.0,0.0,0.0,-5.7997,-5.8143,-5.8263,-5.8263,-5.8263,-5.796,-5.7317,-5.7201,-5.7093,0.0,-5.7097,-5.7116,-5.7202,-5.7726,-5.7997,-5.7997,-5.7997,-5.7997,-5.7997,-5.7997,-5.7302,-5.6305,-5.7507,-5.7679,-5.7065,-5.6259,-5.5836,-5.5552,0.0,0.0,0.0,0.0,0.0,0.0,0.0,0.0,0.0,0.0,0.0,0.0,0.0,0.0,0.0,0.0,0.0,0.0,0.0,0.0,0.0,-2.419,-2.419,-2.419,-2.419,-2.419,-2.419,-2.419,-2.4593,0.0,0.0,0.0,0.0,-2.7824,-2.8631,-2.8975,-2.8975,-2.8975,-2.8975,-2.8975,-2.8975,-2.8975,-2.8975,-2.8975,-2.8975,-2.8938,-2.8521,0.0,0.0,0.0,0.0,0.0,0.0,0.0,-2.8975,-2.8975,-2.9329,-2.9916,0.0,0.0,0.0,0.0,0.0,0.0,0.0,0.0,0.0,0.0,0.0,0.0,0.0,0.0,0.0,0.0,0.0,0.0,0.0,0.0,0.0,0.0,0.0,0.0,0.0,0.0,0.0,0.0,0.0,-5.7005,-5.7409,-5.7042,-5.685,-5.6832,-5.6832,-5.6479,-5.5741,-5.5776,-5.5773,-5.5752,-5.5425,-5.545,-5.5844,-5.6539,-5.7313,-5.7997,-5.8006,-5.8014,-5.802,-5.802,-5.7102,-5.5723,-5.579,-5.6284,-5.6773,-5.6004,-5.5724,-5.5552,0.0,0.0,0.0,0.0,0.0,0.0,0.0,0.0,0.0,0.0,0.0,0.0,0.0,0.0,0.0,0.0,0.0,0.0,0.0,0.0,0.0,-2.419,-2.419,-2.419,-2.419,-2.419,-2.419,-2.419,0.0,0.0,0.0,0.0,0.0,-2.7824,0.0,-2.8975,-2.8975,-2.8975,-2.8975,-2.8975,-2.8975,-2.8975,-2.8975,-2.8975,-2.8975,-2.8975,-2.8975,-2.8594,-2.8117,-2.8778,0.0,0.0,0.0,0.0,-2.9012,-2.9159,-2.9085,-2.9195,0.0,0.0,0.0,0.0,0.0,0.0,0.0,0.0,0.0,0.0,0.0,0.0,0.0,0.0,0.0,0.0,0.0,0.0,0.0,0.0,0.0,0.0,0.0,0.0,0.0,0.0,0.0,0.0,0.0,-5.5651,-5.6218,-5.5597,-5.524,-5.5231,-5.5229,-5.488,-5.4225,-5.4169,-5.4224,-5.4215,-5.3584,-5.3691,-5.4381,-5.4784,-5.5907,-5.7593,-5.7895,-5.7971,-5.7913,-5.6861,-5.5866,-5.4825,-5.3866,-5.4721,-5.6436,-5.5913,-5.5724,-5.561,0.0,0.0,0.0,0.0,0.0,0.0,0.0,0.0,0.0,0.0,0.0,0.0,0.0,0.0,0.0,0.0,0.0,0.0,-2.3259,0.0,0.0,-2.419,-2.419,-2.419,-2.419,-2.419,-2.419,-2.419,0.0,0.0,0.0,0.0,0.0,-2.7824,0.0,0.0,-2.8975,-2.8975,-2.8975,-2.8975,-2.8975,-2.8975,-2.8975,-2.8975,-2.8975,-2.8975,-2.8975,-2.8902,-2.8865,-2.8938,-2.8902,0.0,0.0,0.0,-2.9122,-2.9843,-2.9549,0.0,0.0,0.0,0.0,0.0,0.0,0.0,0.0,0.0,0.0,0.0,0.0,0.0,0.0,0.0,0.0,0.0,0.0,0.0,0.0,0.0,0.0,0.0,0.0,0.0,0.0,0.0,0.0,0.0,-5.4786,-5.4517,-5.3939,-5.3841,-5.3773,-5.377,-5.3792,-5.3415,-5.2612,-5.2654,-5.2701,-5.2614,-5.259,-5.2923,-5.3602,-5.2362,-5.3317,-5.6014,-5.7386,-5.8008,-5.7606,-5.2377,-5.0844,-5.1893,-5.3071,-5.4095,-5.4969,-5.5497,-5.5724,-5.561,0.0,0.0,0.0,0.0,0.0,0.0,0.0,0.0,0.0,0.0,0.0,0.0,0.0,0.0,0.0,-2.2695,-2.3021,-2.3259,-2.3477,-2.3795,-2.4036,-2.419,-2.419,-2.419,-2.419,-2.419,-2.419,0.0,0.0,0.0,0.0,-2.8725,-2.9598,0.0,0.0,0.0,0.0,0.0,-2.9439,-2.8975,-2.8975,-2.8741,-2.8374,-2.8828,-2.8741,-2.8374,-2.8851,-2.8975,-2.8975,-2.8975,-2.8975,-2.9049,-2.9439,0.0,0.0,0.0,0.0,0.0,0.0,0.0,0.0,0.0,0.0,0.0,0.0,0.0,0.0,0.0,0.0,0.0,0.0,0.0,0.0,0.0,0.0,0.0,0.0,0.0,0.0,0.0,0.0,0.0,0.0,0.0,0.0,0.0,-5.2412,-5.1982,-5.2235,-5.1363,-5.1294,-5.2125,-5.1776,-5.1207,-5.0438,-5.0427,-5.0249,-4.9835,-5.023,-5.085,-5.1514,-5.0863,-5.2218,-5.5145,-5.5288,-5.4414,-5.2766,-5.0105,-4.9708,-5.085,-5.1527,-5.2726,-5.3999,-5.4349,-5.4454,-5.4395,0.0,0.0,0.0,0.0,0.0,0.0,0.0,0.0,0.0,0.0,0.0,0.0,0.0,0.0,0.0,0.0,-2.2832,-2.3129,-2.3432,-2.3774,-2.3996,-2.4056,-2.4151,-2.419,-2.419,-2.419,0.0,0.0,0.0,0.0,-2.7385,-3.0064,-3.1603,0.0,-3.2501,0.0,0.0,0.0,0.0,0.0,-2.9085,-2.8631,-2.8154,-2.8778,-2.8631,-2.8191,-2.8778,-2.8975,-2.8975,-2.8975,-2.8975,-2.9012,-2.9232,-2.9329,0.0,0.0,0.0,0.0,0.0,0.0,0.0,0.0,0.0,0.0,0.0,0.0,0.0,0.0,0.0,0.0,0.0,0.0,0.0,0.0,0.0,0.0,0.0,0.0,0.0,0.0,0.0,0.0,0.0,0.0,0.0,0.0,-4.9961,-4.9528,-5.003,-4.8995,-4.889,-4.9958,-4.9493,-4.8941,-4.8387,-4.8371,-4.8116,-4.7631,-4.8117,-4.8643,-4.9195,-4.9401,-5.0864,-5.3289,-5.3247,-5.172,-4.9368,-4.91,-4.944,-5.0143,-5.0345,-5.1424,-5.2969,-5.3177,-5.3246,-5.3246,0.0,0.0,0.0,0.0,0.0,0.0,0.0,0.0,0.0,0.0,0.0,0.0,-2.2327,-2.2293,-2.2321,-2.2321,-2.2321,-2.248,-2.2721,-2.3069,-2.3374,-2.3732,-2.4016,0.0,-2.419,-2.419,0.0,0.0,0.0,0.0,-2.9304,-3.1995,-3.3139,-3.2896,-3.1924,-3.1409,-3.1274,0.0,0.0,0.0,0.0,0.0,0.0,0.0,0.0,0.0,0.0,-2.8975,-2.8975,-2.8975,-2.8975,-2.9122,-2.9916,-3.0136,-3.0136,0.0,0.0,0.0,0.0,0.0,0.0,0.0,0.0,0.0,0.0,0.0,0.0,0.0,0.0,0.0,0.0,0.0,0.0,0.0,0.0,0.0,0.0,0.0,0.0,0.0,0.0,0.0,0.0,0.0,0.0,0.0,-4.7977,-4.7651,-4.7063,-4.698,-4.6921,-4.7005,-4.702,-4.6927,-4.6946,-4.6946,-4.6887,-4.6853,-4.6912,-4.6912,-4.698,-4.7691,-4.847,-4.9368,-5.2039,-5.2123,-5.0241,-4.935,-4.9018,-4.9154,-4.9864,-5.0659,-5.1477,-5.2171,-5.2448,-5.2448,0.0,0.0,0.0,0.0,0.0,0.0,0.0,0.0,0.0,0.0,0.0,0.0,0.0,-2.2733,-2.2835,-2.2361,-2.266,-2.3007,-2.3305,-2.3653,-2.3915,-2.4016,-2.4151,-2.419,-2.419,-2.4704,0.0,0.0,0.0,-2.7829,-2.7647,-3.0471,-3.1574,-3.1283,-3.2659,-3.2588,-3.1347,-3.054,0.0,0.0,0.0,0.0,0.0,0.0,0.0,0.0,0.0,0.0,0.0,-2.9704,-2.9375,-2.9044,-2.9358,-2.9107,-2.8757,0.0,0.0,0.0,0.0,0.0,0.0,0.0,0.0,0.0,0.0,0.0,0.0,0.0,0.0,0.0,0.0,0.0,0.0,0.0,0.0,0.0,0.0,0.0,0.0,0.0,0.0,0.0,0.0,0.0,0.0,0.0,0.0,-4.5336,-4.4677,-4.417,-4.4373,-4.5331,-4.5388,-4.5625,-4.6075,-4.5602,-4.5635,-4.6075,-4.6075,-4.6346,-4.6819,-4.7056,-4.7335,-4.766,-4.9677,-5.0368,-5.008,-4.935,-4.9018,-4.9018,-4.9289,-4.9848,-5.0564,-5.0837,-5.094,-5.094,0.0,0.0,0.0,0.0,0.0,0.0,0.0,0.0,0.0,0.0,0.0,0.0,0.0,0.0,-2.3123,-2.2993,-2.3122,-2.3424,-2.3916,-2.3982,-2.4016,-2.4016,-2.4151,-2.419,-2.419,-2.4704,0.0,0.0,0.0,0.0,0.0,-2.9732,-3.0586,-3.0283,-3.2093,-3.2366,0.0,0.0,0.0,-2.9379,0.0,0.0,-2.8718,0.0,0.0,0.0,0.0,0.0,0.0,0.0,0.0,0.0,0.0,0.0,0.0,0.0,0.0,0.0,0.0,0.0,0.0,0.0,0.0,0.0,0.0,0.0,0.0,0.0,0.0,0.0,0.0,0.0,0.0,0.0,0.0,0.0,0.0,0.0,0.0,0.0,0.0,0.0,0.0,0.0,0.0,0.0,0.0,0.0,-4.3031,-4.253,-4.2787,-4.3796,-4.3864,-4.4045,-4.4553,-4.4045,-4.4181,-4.4925,-4.4925,-4.5331,-4.6041,-4.6312,-4.6413,-4.6481,-4.7699,-4.8675,-4.9262,-4.912,-4.9012,-4.9018,-4.9018,-4.9289,-4.9729,-4.9729,-4.9729,-4.9729,0.0,0.0,0.0,0.0,0.0,0.0,0.0,0.0,0.0,0.0,0.0,0.0,0.0,0.0,0.0,-2.4382,-2.3744,-2.3602,-2.4406,-2.4046,-2.3804,-2.3804,-2.4089,-2.4263,-2.4263,-2.43,0.0,0.0,0.0,0.0,0.0,0.0,-3.0413,-3.0149,-3.0149,-3.0589,-3.1249,0.0,-3.0173,-3.0136,0.0,-2.9489,-3.0296,0.0,0.0,0.0,-3.1852,-3.1528,0.0,-3.0305,0.0,0.0,0.0,0.0,0.0,0.0,0.0,0.0,0.0,0.0,0.0,0.0,0.0,0.0,0.0,0.0,0.0,0.0,0.0,0.0,0.0,0.0,0.0,0.0,0.0,0.0,0.0,0.0,0.0,0.0,0.0,0.0,0.0,0.0,0.0,0.0,-4.2252,-4.2252,-4.2219,-4.2247,-4.2213,-4.2275,-4.2238,-4.2252,-4.2286,-4.2286,-4.2658,-4.3403,-4.3403,-4.3809,-4.4587,-4.5297,-4.5669,-4.5703,-4.6413,-4.7158,-4.7902,-4.8693,-4.8972,-4.8984,-4.8984,-4.9018,-4.9018,-4.9018,-4.9018,-4.9018,0.0,0.0,0.0,0.0,0.0,0.0,0.0,0.0,0.0,0.0,0.0,0.0,0.0,-2.3887,-2.4971,-2.6319,-2.5745,-2.5515,-2.5972,-2.5877,-2.581,-2.581,-2.5873,-2.5952,-2.5952,-2.6502,0.0,0.0,0.0,0.0,0.0,0.0,0.0,0.0,-2.8891,-2.8871,-2.89,-2.9211,0.0,0.0,-2.9953,-3.0184,0.0,0.0,0.0,0.0,0.0,-3.2417,-3.2586,0.0,-3.1336,-3.0685,0.0,0.0,0.0,0.0,0.0,0.0,-3.0789,0.0,0.0,0.0,0.0,0.0,0.0,0.0,0.0,0.0,0.0,0.0,0.0,0.0,0.0,0.0,0.0,0.0,0.0,0.0,0.0,0.0,0.0,0.0,0.0,0.0,0.0,0.0,-4.1204,-4.1271,-4.073,-4.073,-4.0915,-4.1508,-4.1528,-4.1766,-4.2286,-4.2286,-4.2388,-4.2591,-4.2591,-4.2997,-4.3741,-4.3944,-4.435,-4.4891,-4.5094,-4.5635,-4.6447,-4.8252,-4.8666,-4.8274,-4.8815,-4.9018,-4.9018,-4.9018,-4.9018,-4.9018,0.0,0.0,0.0,0.0,0.0,0.0,0.0,0.0,0.0,0.0,0.0,0.0,0.0,0.0,-2.5791,-2.709,-2.6644,-2.6512,-2.709,-2.6796,-2.6612,-2.6612,-2.6612,-2.6512,-2.6344,-2.6818,0.0,0.0,0.0,0.0,0.0,0.0,0.0,0.0,0.0,0.0,0.0,0.0,0.0,0.0,-2.9901,0.0,0.0,-3.193,-3.237,0.0,0.0,0.0,-3.3543,-3.2591,-3.1596,0.0,0.0,0.0,0.0,0.0,0.0,0.0,0.0,0.0,0.0,0.0,0.0,0.0,-2.774,-2.8349,0.0,0.0,0.0,0.0,0.0,0.0,0.0,0.0,0.0,0.0,0.0,0.0,0.0,0.0,0.0,0.0,0.0,-4.0493,-4.0561,-4.0121,-4.0493,-4.0527,-4.0087,-4.0087,-4.029,-4.0713,-4.0731,-4.0985,-4.1373,-4.1373,-4.1542,-4.1847,-4.1847,-4.2219,-4.2963,-4.2963,-4.32,-4.3673,-4.4326,-4.4643,-4.4891,-4.6481,-4.7428,-4.797,-4.8376,-4.8748,-4.9018,-4.9018,-4.9018,-4.9018,0.0,0.0,0.0,0.0,0.0,0.0,0.0,0.0,0.0,0.0,0.0,0.0,0.0,0.0,0.0,-2.7342,-2.705,-2.712,-2.7897,-2.7273,-2.6869,-2.6869,-2.6826,-2.6636,-2.6285,-2.6237,0.0,0.0,0.0,0.0,0.0,0.0,0.0,0.0,0.0,0.0,0.0,0.0,0.0,-2.9052,-2.9497,-3.0332,0.0,0.0,-3.3424,-3.36,-3.4692,-3.4639,-3.3864,-3.2672,-3.1427,0.0,0.0,0.0,0.0,0.0,-3.0751,0.0,0.0,0.0,0.0,0.0,0.0,0.0,-2.9062,-2.9059,-2.9093,0.0,0.0,0.0,0.0,0.0,0.0,0.0,0.0,0.0,0.0,0.0,0.0,0.0,0.0,0.0,-3.9851,-3.9851,-3.9884,-3.9952,-4.002,-4.0087,-4.0087,-4.0087,-4.0087,-4.0087,-4.0087,-4.0087,-4.0087,-4.0087,-4.0426,-4.1068,-4.1068,-4.1474,-4.2185,-4.2185,-4.2219,-4.2354,-4.3736,-4.4007,-4.3449,-4.4282,-4.5824,-4.7699,-4.7868,-4.8308,-4.8883,-4.8984,-4.9018,-4.9018,-2.2327,0.0,0.0,0.0,0.0,0.0,0.0,0.0,0.0,0.0,0.0,0.0,0.0,0.0,0.0,-2.8981,-2.8464,-2.824,-2.8718,-2.8631,-2.8535,-2.8535,-2.8227,-2.8019,-2.7908,-2.7683,0.0,0.0,0.0,0.0,0.0,0.0,0.0,0.0,0.0,0.0,0.0,0.0,0.0,-2.9076,-2.98,0.0,-3.1741,-3.202,-3.232,-3.2696,-3.3495,-3.3692,-3.3413,-3.2584,-3.2104,-3.1765,0.0,0.0,0.0,0.0,0.0,0.0,0.0,0.0,0.0,0.0,0.0,0.0,-2.9262,-2.9465,-2.9736,0.0,0.0,0.0,0.0,0.0,0.0,0.0,0.0,0.0,0.0,0.0,0.0,0.0,0.0,0.0,-3.8328,-3.8328,-3.8565,-3.9174,-3.9749,-4.0087,-4.0087,-4.0087,-4.0087,-4.0087,-4.0087,-4.0087,-4.0087,-4.0087,-4.0155,-4.029,-4.029,-4.0696,-4.1407,-4.1407,-4.1745,-4.232,-4.261,-4.3017,-4.347,-4.4258,-4.5207,-4.6244,-4.7462,-4.8003,-4.8206,-4.8781,-4.9018,-4.9018,-2.2327,0.0,0.0,0.0,0.0,0.0,0.0,0.0,0.0,0.0,0.0,0.0,0.0,0.0,0.0,0.0,0.0,-2.9203,-2.8999,-2.8989,-2.8845,-2.8474,-2.8255,-2.8057,-2.7862,-2.7689,0.0,0.0,0.0,0.0,0.0,0.0,0.0,0.0,0.0,0.0,0.0,0.0,-2.9038,-2.9607,-3.0179,0.0,-3.1028,-3.1781,-3.2139,-3.2374,-3.3152,-3.3152,-3.278,-3.2408,-3.2036,0.0,0.0,-3.1968,-3.2246,0.0,-3.2002,-3.2104,0.0,0.0,0.0,-3.119,0.0,0.0,0.0,-3.0345,-3.0108,0.0,0.0,0.0,0.0,0.0,0.0,0.0,0.0,0.0,0.0,0.0,0.0,0.0,0.0,0.0,-3.6772,-3.6772,-3.7077,-3.7821,-3.8587,-3.9009,-3.8974,-3.9039,-3.902,-3.9001,-3.9359,-3.9546,-3.9546,-3.9884,-4.0087,-4.0087,-4.0087,-4.0257,-4.0629,-4.0629,-4.0832,-4.1204,-4.1201,-4.1808,-4.2929,-4.413,-4.4822,-4.5263,-4.638,-4.7259,-4.797,-4.8342,-4.868,-4.9018,-2.2327,0.0,0.0,0.0,0.0,0.0,0.0,0.0,0.0,0.0,0.0,0.0,0.0,0.0,0.0,0.0,0.0,0.0,0.0,0.0,0.0,-2.8145,-2.8023,-2.7777,-2.7303,-2.7241,-2.7019,0.0,0.0,0.0,0.0,0.0,0.0,0.0,0.0,0.0,0.0,0.0,0.0,-3.0146,0.0,-3.058,-3.0446,-3.163,-3.211,-3.2138,-3.2747,-3.278,-3.2442,-3.2171,-3.1765,-3.1495,-3.1935,-3.2273,0.0,0.0,0.0,0.0,0.0,0.0,0.0,0.0,0.0,-3.1698,0.0,0.0,0.0,0.0,0.0,0.0,0.0,0.0,0.0,0.0,0.0,0.0,0.0,0.0,0.0,0.0,0.0,0.0,0.0,-3.5318,-3.5656,-3.6299,-3.7047,-3.7519,-3.7711,-3.7719,-3.7746,-3.7861,-3.8478,-3.887,-3.9005,-3.958,-3.9952,-4.0087,-4.0087,-4.0087,-4.0087,-4.0087,-4.0087,-4.0087,-4.0104,-4.0912,-4.2388,-4.379,-4.4415,-4.4654,-4.5399,-4.6447,-4.753,-4.7834,-4.8308,-4.8815,-2.2327,-2.2327,0.0,0.0,0.0,0.0,0.0,0.0,0.0,0.0,0.0,0.0,0.0,0.0,0.0,0.0,0.0,0.0,-3.1735,0.0,0.0,0.0,-2.853,-2.8028,-2.7303,-2.6954,-2.6758,0.0,0.0,0.0,0.0,0.0,0.0,0.0,-2.8518,0.0,0.0,0.0,-3.004,0.0,-3.0823,-3.1094,0.0,-3.1258,-3.1326,-3.1326,-3.1427,-3.2239,-3.3085,0.0,-3.1698,-3.207,0.0,-3.2205,-3.3017,0.0,0.0,0.0,0.0,0.0,0.0,0.0,-3.2713,0.0,0.0,0.0,-3.1698,-3.048,0.0,0.0,0.0,0.0,0.0,0.0,0.0,0.0,0.0,0.0,0.0,0.0,0.0,0.0,0.0,-3.4235,-3.4641,-3.4742,-3.5425,-3.6181,-3.6907,-3.691,-3.7228,-3.7855,-3.799,-3.8328,-3.8971,-3.9073,-3.9445,-4.0087,-4.0087,-4.0087,-4.0087,-4.0087,-4.0087,-4.0087,-4.0087,-4.0933,-4.232,-4.2988,-4.3837,-4.4654,-4.5399,-4.5805,-4.6109,-4.7428,-4.797,-4.8139,-2.2327,-2.2327,0.0,0.0,0.0,0.0,0.0,0.0,0.0,0.0,0.0,0.0,0.0,0.0,0.0,0.0,0.0,-3.0617,0.0,0.0,0.0,0.0,0.0,0.0,0.0,-2.8116,-2.801,-2.801,-2.7571,0.0,0.0,0.0,0.0,0.0,-2.8822,0.0,-3.0108,0.0,0.0,0.0,0.0,0.0,0.0,-3.119,-3.119,-3.119,-3.119,-3.1596,-3.2036,0.0,-3.1664,0.0,0.0,0.0,0.0,0.0,0.0,0.0,0.0,0.0,0.0,0.0,0.0,0.0,-3.2611,0.0,-3.2104,0.0,0.0,0.0,0.0,0.0,0.0,0.0,0.0,0.0,0.0,0.0,0.0,0.0,0.0,0.0,0.0,0.0,0.0,0.0,-3.3903,-3.4452,-3.4796,-3.5213,-3.562,-3.5926,-3.6806,-3.7381,-3.7719,-3.8565,-3.914,-3.9445,-3.9884,-4.0087,-4.0087,-4.0087,-4.0087,-4.0087,-4.0087,-4.0663,-4.1711,-4.2717,-4.341,-4.3978,-4.4756,-4.5331,-4.5838,-4.6887,-4.753,-4.8037,-2.2835,0.0,0.0,0.0,0.0,0.0,0.0,0.0,0.0,0.0,0.0,0.0,-3.2374,-3.2713,0.0,0.0,-3.3491,-3.2307,0.0,0.0,-2.9499,0.0,0.0,0.0,0.0,0.0,-2.9028,0.0,0.0,0.0,0.0,0.0,0.0,0.0,0.0,-2.9905,-3.0412,0.0,0.0,-3.119,-3.119,-3.119,-3.119,-3.119,-3.119,-3.119,-3.119,-3.119,-3.1224,-3.1427,-3.1833,0.0,-3.3186,0.0,0.0,0.0,0.0,0.0,-3.3694,0.0,0.0,0.0,0.0,0.0,0.0,0.0,0.0,0.0,0.0,0.0,0.0,0.0,0.0,0.0,0.0,0.0,0.0,0.0,0.0,0.0,0.0,0.0,0.0,0.0,0.0,-3.1705,-3.2374,-3.2802,-3.2802,-3.3668,-3.4269,-3.4472,-3.5757,-3.6569,-3.6772,-3.7855,-3.8497,-3.87,-3.9445,-3.9783,-3.9783,-3.9986,-4.0087,-4.0087,-4.0087,-4.0493,-4.1271,-4.2189,-4.2935,-4.347,-4.4045,-4.4722,-4.55,-4.6447,-4.7158,-4.7733,-2.412,-2.3849,0.0,0.0,0.0,0.0,0.0,0.0,0.0,0.0,0.0,0.0,0.0,0.0,0.0,0.0,0.0,-3.3186,-3.5351,0.0,-3.0818,0.0,0.0,-2.9736,0.0,0.0,0.0,0.0,0.0,0.0,0.0,0.0,0.0,0.0,0.0,-3.1123,-3.1157,-3.1157,-3.119,-3.119,-3.119,-3.119,-3.119,0.0,-3.119,-3.119,-3.119,0.0,0.0,-3.2002,-3.2273,0.0,0.0,0.0,0.0,0.0,0.0,0.0,0.0,0.0,0.0,-3.4472,0.0,0.0,0.0,0.0,-3.2313,0.0,0.0,0.0,0.0,0.0,0.0,0.0,0.0,0.0,0.0,0.0,0.0,0.0,0.0,0.0,0.0,0.0,0.0,-3.0208,-3.0875,-3.1258,-3.1258,-3.2622,-3.3734,-3.4472,-3.525,-3.6028,-3.6772,-3.684,-3.7212,-3.7956,-3.8667,-3.9039,-3.9039,-3.9749,-4.0087,-4.0087,-4.0087,-4.0493,-4.1204,-4.1238,-4.2117,-4.3403,-4.3436,-4.3944,-4.479,-4.6244,-4.6819,-4.7022,0.0,0.0,0.0,0.0,0.0,0.0,0.0,-2.8247,0.0,0.0,0.0,0.0,0.0,-3.5926,-3.6434,0.0,0.0,-3.5588,-3.6332,-3.4066,0.0,0.0,0.0,-3.1935,0.0,0.0,0.0,0.0,0.0,0.0,0.0,0.0,0.0,0.0,0.0,-3.0751,0.0,0.0,0.0,0.0,0.0,-3.1495,-3.1867,0.0,0.0,-3.119,-3.119,-3.119,0.0,-3.2036,-3.2611,-3.3152,-3.3897,-3.4641,-3.5182,-3.4945,-3.4709,0.0,0.0,0.0,-3.4607,-3.5115,0.0,0.0,0.0,0.0,0.0,0.0,0.0,0.0,0.0,0.0,0.0,0.0,0.0,0.0,0.0,0.0,0.0,0.0,0.0,0.0,0.0,0.0,0.0,-3.0107,-3.033,-3.0475,-3.0494,-3.2319,-3.3516,-3.3761,-3.4979,-3.5757,-3.5994,-3.6535,-3.7178,-3.7922,-3.8633,-3.9242,-3.9715,-3.9986,-4.0087,-4.0087,-4.0087,-4.0223,-4.0493,-4.1001,-4.1779,-4.2726,-4.3234,-4.391,-4.4756,-4.6244,-4.6786,-4.6989,-2.5481,0.0,0.0,0.0,0.0,0.0,0.0,0.0,0.0,0.0,-3.3795,0.0,-3.7652,0.0,-3.8294,0.0,-3.8261,-3.7347,-3.6806,-3.5419,0.0,-3.4506,-3.4032,0.0,0.0,0.0,0.0,0.0,0.0,-3.0717,0.0,0.0,0.0,0.0,0.0,0.0,0.0,0.0,-3.0784,0.0,0.0,-3.1461,0.0,0.0,-3.1732,-3.1968,0.0,-3.1968,-3.2104,-3.2814,-3.3389,-3.3931,-3.4675,-3.5216,-3.5622,-3.5622,-3.5284,-3.4979,-3.5487,-3.525,0.0,-3.5487,-3.5419,0.0,-3.4945,0.0,0.0,0.0,0.0,0.0,0.0,0.0,0.0,0.0,0.0,0.0,0.0,-3.119,0.0,0.0,0.0,0.0,0.0,0.0,-3.0374,-3.0099,-3.034,-3.0369,0.0,0.0,-3.3423,-3.3423,-3.4844,-3.5622,-3.5622,-3.6129,-3.6738,-3.7516,-3.8261,-3.9005,-3.9715,-3.9952,-4.0087,-4.0087,-4.0087,-4.0087,-4.0121,-4.0595,-4.1407,-4.2354,-4.2828,-4.3673,-4.4756,-4.6244,-4.7124,-4.7699,0.0,0.0,0.0,0.0,-2.7402,0.0,0.0,0.0,-3.3423,0.0,-3.5487,-3.7178,-3.7922,-3.8024,-3.8565,-3.9952,-3.9445,-3.8464,-3.7043,-3.6907,0.0,0.0,-3.4607,-3.4235,-3.3491,0.0,0.0,0.0,0.0,0.0,0.0,0.0,0.0,0.0,-3.119,0.0,-3.119,-3.119,-3.119,-3.119,-3.119,-3.1224,-3.1393,-3.207,-3.2814,-3.3525,-3.3423,-3.3423,-3.3525,-3.4235,-3.4506,-3.4607,-3.5385,-3.5622,-3.5622,-3.5622,-3.5622,-3.5622,-3.5622,-3.5622,-3.5622,-3.5622,-3.5081,0.0,0.0,0.0,-3.4607,0.0,0.0,0.0,0.0,0.0,0.0,0.0,0.0,0.0,0.0,0.0,0.0,0.0,0.0,0.0,0.0,-3.1157,-3.0862,-3.0057,-3.0726,0.0,0.0,0.0,-3.3423,-3.3423,-3.4844,-3.5622,-3.5622,-3.5622,-3.6028,-3.684,-3.7584,-3.8294,-3.9073,-3.9749,-4.0087,-4.0087,-4.0087,-4.0087,-4.0087,-4.0087,-4.0967,-4.2286,-4.2286,-4.3234,-4.4823,-4.6244,-4.7699,-4.8951,-2.7368,-2.7841,-2.818,0.0,-2.8552,-2.8958,0.0,0.0,0.0,0.0,-3.7009,-3.87,-3.9445,-3.9512,-3.9681,-4.0054,-3.9918,0.0,0.0,0.0,0.0,-3.7077,-3.6502,-3.5554,-3.4235,-3.3491,0.0,-3.2002,0.0,0.0,-3.119,0.0,0.0,0.0,0.0,0.0,-3.119,-3.119,-3.119,-3.119,-3.119,-3.1867,0.0,0.0,-3.3931,-3.4912,-3.3795,-3.3423,-3.3525,-3.4235,-3.4506,-3.4607,-3.5385,-3.5622,-3.5622,-3.5622,-3.5622,-3.5622,-3.5622,-3.5622,-3.5622,-3.5622,-3.5487,-3.5385,0.0,0.0,0.0,0.0,0.0,0.0,0.0,0.0,0.0,0.0,0.0,0.0,0.0,0.0,0.0,-3.1205,0.0,0.0,0.0,-3.0448,-2.99,-2.8854,-2.9788,0.0,0.0,0.0,0.0,-3.3423,-3.4844,-3.5622,-3.5622,-3.5622,-3.6299,-3.7618,-3.7821,-3.8565,-3.9817,-3.9986,-4.0087,-4.0087,-4.0087,-4.0087,-4.0087,-4.0087,-4.0967,-4.2286,-4.2286,-4.3572,-4.5534,-4.6447,-4.7394,-4.8274,-2.7705,0.0,0.0,-3.0451,0.0,0.0,-3.119,0.0,0.0,-3.6028,-3.8362,0.0,-3.9614,-4.0189,-4.0426,-4.0121,-4.0087,0.0,-3.9614,0.0,0.0,-3.8396,-3.7652,-3.6569,-3.5013,-3.3626,0.0,-3.1441,0.0,0.0,-3.0797,0.0,0.0,0.0,0.0,-3.119,0.0,-3.119,-3.1393,-3.1664,-3.1664,0.0,0.0,-3.3626,-3.4404,-3.5047,-3.4539,-3.437,-3.4438,-3.4844,-3.4979,-3.5047,-3.5487,-3.5622,-3.5622,-3.5622,-3.5622,-3.5622,-3.5622,-3.5622,-3.5622,-3.5622,-3.5622,-3.5622,-3.5622,-3.596,-3.6163,0.0,-3.5622,-3.5397,0.0,0.0,0.0,0.0,0.0,0.0,0.0,0.0,0.0,0.0,-3.0631,0.0,0.0,0.0,-2.9493,-2.8834,0.0,0.0,0.0,0.0,0.0,-3.3423,-3.5182,-3.596,-3.5622,-3.6299,-3.7043,-3.7922,-3.8227,-3.8971,-4.0087,-4.0087,-4.0087,-4.0087,-4.0087,-4.0087,-4.0087,-4.0087,-4.0967,-4.2354,-4.3031,-4.4079,-4.5331,-4.6413,-4.7259,-4.8037,0.0,0.0,0.0,0.0,0.0,0.0,0.0,-3.5509,0.0,-3.6983,0.0,-4.0798,-3.9276,-4.029,-4.0798,-4.0155,0.0,-3.9817,-3.9174,-3.9715,-3.9715,-3.887,-3.8261,-3.7144,-3.552,-3.3457,-3.1825,0.0,0.0,0.0,0.0,0.0,0.0,0.0,0.0,0.0,0.0,-3.119,-3.163,-3.2313,-3.2313,-3.2449,-3.2713,-3.3998,-3.4539,-3.4742,-3.5385,-3.5622,-3.5622,-3.5622,-3.5622,-3.5622,-3.5622,-3.5622,-3.5622,-3.5622,-3.5622,-3.5622,-3.5622,-3.5622,-3.5622,-3.5622,-3.5622,-3.5622,-3.5622,-3.5622,-3.5622,-3.5622,-3.5622,-3.5407,0.0,0.0,0.0,0.0,0.0,0.0,0.0,0.0,0.0,0.0,0.0,0.0,0.0,0.0,0.0,0.0,0.0,0.0,0.0,0.0,0.0,-3.3423,-3.5487,-3.6287,-3.5621,0.0,-3.7629,-3.7733,-3.8421,-3.9143,-3.9952,-3.9952,-3.9986,-4.0104,-4.0087,-4.0223,-4.0375,-4.029,-4.1102,-4.2591,-4.4012,-4.4587,-4.4756,-4.6244,-4.7225,-4.7902,0.0,0.0,0.0,0.0,0.0,-3.5943,-3.6653,-3.884,-3.9749,-3.7779,-4.0232,-4.1542,-4.0054,-4.0121,-4.0223,-4.0087,-4.0087,0.0,0.0,0.0,0.0,-3.8159,-3.799,-3.6907,-3.4742,-3.3728,-3.2823,0.0,0.0,0.0,0.0,0.0,0.0,0.0,0.0,0.0,-3.119,-3.119,0.0,-3.2313,-3.2313,-3.3017,-3.4134,-3.4404,-3.4878,-3.5453,-3.5554,-3.5622,-3.5622,-3.5622,-3.5622,-3.5622,-3.5622,-3.5622,-3.5622,-3.5622,-3.5622,-3.5622,-3.5622,-3.5622,-3.5622,-3.5622,-3.5622,-3.5622,-3.5622,-3.5622,-3.5622,-3.5622,-3.5622,-3.5407,-3.4736,0.0,0.0,0.0,0.0,0.0,0.0,0.0,0.0,0.0,0.0,-2.9472,0.0,0.0,0.0,0.0,0.0,0.0,0.0,0.0,0.0,0.0,-3.4979,0.0,0.0,0.0,-3.6299,-3.6906,-3.7035,-3.7785,-3.9069,-3.9069,-3.9441,-4.0087,-4.0104,-4.0796,-4.1862,-4.1235,-4.188,-4.3301,-4.4215,-4.4587,-4.4756,-4.6244,-4.6887,-4.7192,0.0,0.0,0.0,0.0,0.0,0.0,0.0,-4.0467,0.0,-3.9117,-4.0138,-4.0816,-4.0172,-4.0426,-4.0493,-4.0121,-4.0087,-4.0087,-4.0087,-4.0087,-3.958,-3.8531,-3.8091,0.0,-3.4539,-3.3389,-3.236,-3.1348,0.0,0.0,0.0,0.0,0.0,0.0,0.0,-3.1968,0.0,0.0,0.0,-3.2882,-3.3288,-3.3863,-3.4539,-3.4912,-3.5318,-3.5622,-3.5622,-3.5622,-3.5622,-3.5622,-3.5622,-3.5622,-3.5622,-3.5622,-3.5622,-3.5622,-3.5622,-3.5622,-3.5622,-3.5622,-3.5622,-3.5622,-3.5622,-3.5622,-3.5622,-3.5622,-3.5622,-3.5622,-3.5622,-3.5182,-3.3811,-3.2728,0.0,0.0,0.0,0.0,0.0,0.0,0.0,0.0,0.0,0.0,0.0,0.0,0.0,0.0,0.0,0.0,0.0,0.0,0.0,0.0,0.0,0.0,0.0,0.0,0.0,-3.7264,-3.7676,-3.8221,-3.8908,-3.8908,-3.9346,-4.0059,-3.9226,-3.9764,-4.1209,-4.1586,-4.2185,-4.2963,-4.4113,-4.4587,-4.4756,-4.6244,-4.6786,-4.6989,0.0,-3.5198,0.0,0.0,-3.8585,0.0,-3.8834,-4.0737,-4.1614,-3.9884,-3.9797,-3.9896,-3.9848,-4.0389,-4.0542,-4.0121,-4.0087,-4.0087,-4.0087,-4.0087,-3.9749,-3.9039,-3.8294,-3.6861,-3.4566,-3.3085,-3.1725,0.0,0.0,0.0,0.0,0.0,0.0,0.0,0.0,0.0,0.0,0.0,-3.2949,-3.3694,-3.4269,-3.4486,-3.46,-3.5206,-3.5362,-3.5362,-3.5224,-3.527,-3.5362,-3.5362,-3.5453,-3.5622,-3.5622,-3.5622,-3.5622,-3.5622,-3.5622,-3.5622,-3.5622,-3.5622,-3.5622,-3.5622,-3.5622,-3.5622,-3.5622,-3.5622,-3.5622,-3.5622,-3.5362,-3.4698,-3.3111,-3.2214,0.0,0.0,0.0,0.0,0.0,0.0,0.0,0.0,0.0,0.0,-2.781,0.0,0.0,0.0,0.0,0.0,0.0,0.0,0.0,0.0,0.0,-3.6603,-3.676,0.0,-3.7735,-3.7536,-3.8286,-3.8657,-3.8701,-3.8657,-3.8975,-3.9567,-3.8488,-3.8951,-4.0636,-4.1976,-4.2597,-4.2895,-4.4113,-4.4587,-4.4756,-4.6035,-4.6514,-4.6716,0.0,0.0,0.0,0.0,0.0,0.0,-3.9446,-3.9123,-3.8842,-3.8741,-3.9437,-3.9677,-3.9073,-3.9082,-3.9382,-4.0037,-4.0087,-4.0087,-4.0087,-4.0087,-3.9749,-3.9039,-3.8294,-3.6875,-3.4669,-3.3214,-3.1816,0.0,0.0,-3.0082,0.0,0.0,0.0,0.0,0.0,0.0,0.0,-3.3067,-3.3728,-3.4404,-3.4472,-3.4533,-3.4589,-3.4655,-3.4688,-3.464,-3.4003,-3.4202,-3.4688,-3.4688,-3.5098,-3.5622,-3.5622,-3.5622,-3.5622,-3.5622,-3.5622,-3.5622,-3.5622,-3.5622,-3.5622,-3.5622,-3.5622,-3.5622,-3.5622,-3.5622,-3.5622,-3.5622,-3.464,-3.3719,-3.3553,-3.2925,-3.2198,0.0,0.0,0.0,0.0,0.0,0.0,0.0,0.0,0.0,0.0,-2.767,0.0,0.0,0.0,0.0,0.0,0.0,0.0,-3.3466,0.0,-3.6039,-3.6719,-3.7436,-3.7452,-3.6711,-3.752,-3.7858,-3.7936,-3.789,-3.7937,-3.8033,-3.8526,-3.9936,-4.2096,-4.2855,-4.3656,-4.4384,-4.4519,-4.4587,-4.4699,-4.5308,-4.5494,-4.5725,0.0,0.0,0.0,0.0,0.0,0.0,0.0,-3.9025,-3.8727,-3.7491,-3.8056,-3.8616,-3.8868,-3.8897,-3.9016,-3.9368,-3.985,-4.0087,-4.0087,-4.0087,-3.9564,-3.8335,-3.7603,-3.6208,-3.3986,-3.2983,-3.2028,0.0,0.0,0.0,0.0,0.0,0.0,0.0,0.0,-3.3684,-3.3064,-3.3338,-3.3639,-3.3894,-3.3952,-3.3991,-3.3971,-3.3971,-3.3971,-3.3971,-3.37,-3.377,-3.3971,-3.3971,-3.4447,-3.5052,-3.5453,-3.5622,-3.5622,-3.5622,-3.5622,-3.5622,-3.5622,-3.5622,-3.5622,-3.5622,-3.5622,-3.5453,-3.5098,-3.5005,-3.4911,-3.4496,-3.3649,-3.313,-3.3547,-3.3373,-3.3135,-3.2772,0.0,0.0,0.0,0.0,0.0,0.0,0.0,0.0,0.0,0.0,0.0,0.0,0.0,0.0,0.0,0.0,0.0,-3.3439,0.0,-3.5547,-3.6718,-3.6529,-3.6501,-3.6568,-3.6909,-3.7093,-3.7074,-3.7081,-3.7032,-3.7061,-3.8497,-3.9469,-4.0133,-4.1367,-4.2089,-4.249,-4.3342,-4.367,-4.3771,-4.4821,-4.5206,-4.5336,-3.7896,0.0,-3.7654,0.0,-3.8523,-3.8482,-3.8202,-3.8463,-3.8208,-3.673,-3.6763,-3.7406,-3.8467,-3.8594,-3.8745,-3.9209,-3.9765,-4.0087,-4.0087,-4.0087,-3.9514,-3.8233,-3.7283,0.0,-3.4497,-3.2965,-3.2183,-3.206,-3.1729,0.0,0.0,0.0,0.0,0.0,-3.4159,-3.4021,-3.3259,-3.3453,-3.3549,-3.3534,-3.3577,-3.3495,-3.3287,-3.3287,-3.3287,-3.3287,-3.3077,-3.313,-3.3287,-3.3287,-3.3649,-3.412,-3.4816,-3.5005,-3.5005,-3.5005,-3.5005,-3.5005,-3.5005,-3.5005,-3.5005,-3.5005,-3.5005,-3.4911,-3.4447,-3.435,-3.417,-3.37,-3.3181,-3.3006,-3.3527,-3.3959,-3.4079,-3.3623,0.0,0.0,0.0,-3.1925,0.0,0.0,-2.9864,-2.9594,-2.8966,-2.8876,0.0,0.0,0.0,0.0,0.0,0.0,0.0,0.0,0.0,0.0,0.0,-3.6337,-3.6279,-3.6625,-3.6879,-3.6815,-3.6599,-3.6909,-3.7054,-3.7143,-3.8692,-3.9299,-3.9296,-4.0352,-4.1024,-4.1342,-4.2524,-4.2972,-4.3131,-4.4569,-4.4941,-4.4827,-3.9411,-3.9565,-3.9296,-3.8532,-3.8392,-3.8153,-3.7524,-3.6896,-3.6507,-3.6477,-3.5908,-3.61,-3.7648,-3.7822,-3.8446,-3.9952,-4.0087,-4.0087,-4.0087,-4.0087,-3.9749,0.0,0.0,-3.6785,-3.6752,-3.3371,-3.228,-3.3636,0.0,0.0,-3.3631,0.0,-3.4496,-3.268,-3.4021,-3.3871,-3.2625,-3.3339,-3.3617,-3.3566,-3.3598,-3.3182,-3.2602,-3.2602,-3.2602,-3.2547,-3.1796,-3.2023,-3.2602,-3.2602,-3.2656,-3.2734,-3.3391,-3.3617,-3.3617,-3.3617,-3.3617,-3.3617,-3.3617,-3.3617,-3.3617,-3.3617,-3.3617,-3.3649,-3.3598,-3.3598,-3.3598,-3.3598,-3.3558,-3.3481,-3.3623,-3.4691,-3.5127,-3.3846,0.0,0.0,0.0,0.0,0.0,-3.0582,-3.0492,-3.0253,-2.9624,0.0,0.0,0.0,0.0,0.0,0.0,0.0,0.0,-3.347,-3.4226,0.0,-3.6678,-3.744,-3.7358,-3.6622,-3.7393,-3.7398,-3.6607,-3.7807,-3.8319,-3.8392,-3.9063,-3.9925,-4.0659,-4.0659,-4.1198,-4.2045,-4.2684,-4.2972,-4.3131,-4.4569,-4.452,-4.3956,-3.8659,-3.8417,-3.8047,-3.7773,-3.7734,-3.7494,-3.6866,-3.6596,-3.6327,-3.5878,-3.5639,-3.591,-3.6843,-3.744,-3.7994,0.0,-3.9506,-3.985,0.0,-3.9262,-3.8701,-3.7438,-3.6483,-3.576,-3.5267,-3.3264,-3.2421,-3.289,0.0,0.0,0.0,-3.4493,-3.382,-3.191,-3.3287,-3.3443,-3.2602,-3.2841,-3.2949,-3.2895,-3.2351,-3.2048,-3.1853,-3.1853,-3.1853,-3.1796,-3.1597,-3.1625,-3.1853,-3.1853,-3.1853,-3.191,-3.2104,-3.281,-3.3598,-3.3598,-3.3598,-3.3598,-3.3598,-3.3598,-3.3598,-3.3598,-3.3598,-3.3495,-3.3055,-3.2516,-3.216,-3.216,-3.2509,-3.3135,-3.4155,-3.545,-3.6126,-3.5144,-3.5281,0.0,-3.2813,0.0,0.0,-3.0582,-3.0492,-3.0432,-3.0223,-3.0223,0.0,0.0,0.0,0.0,0.0,0.0,0.0,0.0,-3.3702,0.0,-3.5904,-3.6137,-3.61,-3.5826,-3.6134,-3.6341,-3.655,-3.7673,-3.8205,-3.8422,-3.9094,-3.9567,-3.9809,-3.9809,-3.999,-4.0362,-4.1423,-4.1882,-4.2035,-4.338,-4.367,-4.3469,-3.8302,-3.8272,-3.8003,-3.7494,-3.7614,-3.7494,-3.6626,-3.6477,-3.6237,-3.5579,-3.5519,-3.5683,-3.6102,-3.6874,0.0,-3.8133,-3.9102,-3.942,-3.8908,-3.8908,-3.8228,-3.6707,-3.6004,-3.5488,-3.5338,-3.3457,0.0,-3.371,-3.3656,-3.3598,-3.3598,-3.4021,-3.336,-3.1966,-3.2841,-3.2841,-3.216,-3.216,-3.216,-3.216,-3.1682,-3.1482,-3.1482,-3.1482,-3.1482,-3.1482,-3.1482,-3.1482,-3.1482,-3.1482,-3.1482,-3.1482,-3.1482,-3.2104,-3.281,-3.281,-3.281,-3.281,-3.281,-3.281,-3.281,-3.281,-3.281,-3.2703,-3.2272,-3.1853,-3.1482,-3.1482,-3.2048,-3.2819,-3.3747,-3.5094,-3.5752,-3.5016,-3.4972,-3.4439,-3.2779,0.0,0.0,0.0,0.0,0.0,0.0,-3.112,-3.1509,0.0,0.0,0.0,0.0,0.0,0.0,-3.3475,-3.3728,0.0,-3.5492,-3.5778,-3.5759,-3.5519,-3.5723,-3.6387,-3.7225,-3.7931,-3.8442,-3.8781,-3.9264,-3.9403,-3.9409,-3.9409,-3.9559,-3.9888,-4.0965,-4.1534,-4.194,-4.3378,-4.3615,-4.3329,-3.8392,-3.8841,-3.8841,0.0,-3.7883,0.0,-3.6656,-3.6477,-3.6237,-3.5579,-3.5519,-3.5519,-3.5519,-3.6102,-3.7144,-3.8635,0.0,0.0,0.0,-3.8745,-3.8089,-3.6596,-3.5873,-3.5814,-3.6444,-3.387,-3.3502,-3.5495,-3.4186,-3.3547,-3.3547,-3.3547,-3.3182,-3.2547,-3.2547,-3.216,-3.1482,-3.1482,-3.1482,-3.1482,-3.1482,-3.1482,-3.1482,-3.1482,-3.1482,-3.1482,-3.1482,-3.1482,-3.1482,-3.1482,-3.1482,-3.1482,-3.1482,-3.1482,-3.1482,-3.1482,-3.1482,-3.1482,-3.1482,-3.1482,-3.1482,-3.1482,-3.1482,-3.1482,-3.1541,-3.1541,-3.1571,-3.1601,-3.2198,-3.2673,-3.2801,-3.3898,-3.4529,-3.3794,-3.3653,-3.337,-3.2578,-3.1936,0.0,0.0,0.0,0.0,-3.1541,-3.2168,-3.2287,0.0,0.0,0.0,0.0,0.0,-3.2916,-3.3544,-3.4203,-3.4891,-3.5579,-3.6237,-3.6237,-3.5639,-3.632,-3.7246,-3.8392,-3.8452,-3.8811,-3.9409,-3.9409,-3.9409,-3.9409,-3.9409,-3.9768,-4.0397,-4.1115,-4.1743,-4.2526,-4.4113,-4.4082,-4.3409,0.0,0.0,-3.7225,-3.7375,-3.7135,-3.6836,-3.6537,-3.6477,-3.6237,-3.5579,-3.5519,-3.5519,-3.5519,-3.5683,-3.6102,-3.7053,-3.7732,-3.779,-3.7172,-3.7112,-3.6531,-3.5064,-3.4879,-3.4575,-3.4243,-3.3096,-3.2786,-3.3341,-3.2998,-3.2841,-3.2841,-3.2841,-3.2461,-3.1739,-3.1739,-3.1625,-3.1482,-3.1482,-3.1482,-3.1482,-3.1482,-3.1482,-3.1482,-3.1482,-3.1482,-3.1482,-3.1482,-3.1482,-3.1482,-3.1482,-3.1482,-3.1482,-3.1482,-3.1482,-3.1482,-3.1482,-3.1482,-3.1482,-3.1482,-3.1482,-3.1482,-3.1482,-3.1482,-3.1601,-3.2168,-3.2287,-3.2437,-3.2916,-3.3544,-3.418,-3.4809,-3.5143,-3.514,-3.456,-3.4036,-3.3048,-3.1273,-3.1294,-3.133,0.0,-3.1659,-3.2287,-3.2287,-3.2437,-3.2647,0.0,0.0,0.0,0.0,-3.3754,-3.4083,-3.4233,-3.4891,-3.5579,-3.6237,-3.6866,-3.7105,-3.6956,-3.7584,-3.8132,-3.8422,-3.8931,-3.926,-3.9409,-3.9409,-3.9409,-3.9409,-3.9409,-3.9499,-3.9768,-4.0935,-4.1474,-4.182,-4.3115,-4.3488,-4.3329,-3.8212,-3.7823,-3.7375,-3.7404,-3.7644,-3.7524,-3.6626,-3.6716,-3.6567,-3.5639,-3.5519,-3.5519,-3.5519,-3.5519,-3.5683,-3.607,-3.6814,-3.7084,-3.66,-3.66,-3.6106,-3.5015,-3.4651,-3.4292,-3.3963,-3.3006,-3.2344,-3.2135,-3.2135,-3.2135,-3.2135,-3.2135,-3.191,-3.1482,-3.1482,-3.1482,-3.1482,-3.1482,-3.1482,-3.1482,-3.1482,-3.1482,-3.1482,-3.1482,-3.1482,-3.1482,-3.1482,-3.1482,-3.1482,-3.1482,-3.1482,-3.1482,-3.1482,-3.1482,-3.1482,-3.1482,-3.1482,-3.1482,-3.1482,-3.1482,-3.1541,-3.1898,-3.1988,-3.2168,-3.2796,-3.2976,-3.3066,-3.3425,-3.3784,-3.4147,-3.4577,-3.4393,-3.4057,-3.3722,-3.3138,-3.2266,-3.1117,-3.13,-3.1509,-3.142,-3.2078,-3.2647,-3.2946,-3.3245,-3.3425,-3.3484,-3.3724,0.0,-3.4382,-3.504,-3.525,-3.4951,-3.5609,-3.6267,-3.6896,-3.7233,-3.7713,-3.8332,-3.8372,-3.8552,-3.8871,-3.926,-3.9397,-3.9371,-3.9397,-3.9427,-3.9371,-3.9397,-3.9589,-3.9978,-4.0995,-4.1564,-4.1953,-4.297,-4.3329,-4.3329,-3.8033,-3.8242,-3.8063,-3.7494,-3.8272,-3.8422,-3.6746,-3.6926,-3.6836,-3.5669,-3.5519,-3.5519,-3.5519,-3.5519,-3.5519,-3.5519,-3.607,-3.6446,-3.6446,-3.6446,-3.6134,-3.534,-3.4771,-3.4382,-3.4173,-3.2976,-3.2108,-3.1482,-3.1482,-3.1482,-3.1482,-3.1482,-3.1482,-3.1482,-3.1482,-3.1482,-3.1482,-3.1482,-3.1482,-3.1482,-3.1482,-3.1482,-3.1482,-3.1482,-3.1482,-3.1482,-3.1482,-3.1482,-3.1482,-3.1482,-3.1482,-3.1482,-3.1482,-3.1482,-3.1482,-3.1482,-3.1482,-3.1482,-3.1482,-3.1482,-3.1631,-3.2347,-3.2527,-3.2706,-3.3484,-3.3634,-3.3664,-3.3784,-3.3814,-3.3814,-3.3814,-3.3185,-3.2647,-3.2647,-3.2018,-3.1452,-3.1332,0.0,-3.178,-3.2317,-3.2617,-3.3036,-3.3604,-3.4143,-3.4322,-3.3963,-3.4921,-3.5579,-3.5789,-3.6327,-3.6417,-3.5938,-3.6477,-3.7075,-3.7704,-3.7721,-3.8292,-3.9409,-3.8852,-3.8882,-3.9409,-3.9529,-3.9503,-3.9372,-3.9473,-3.9503,-3.9372,-3.9354,-3.9738,-4.0337,-4.1085,-4.1713,-4.2312,-4.306,-4.3329,-4.3329,-3.7524,-3.7554,-3.7524,-3.7434,-3.7135,-3.6836,-3.6537,-3.6567,-3.6357,-3.5609,-3.5519,-3.5519,-3.5519,-3.5519,-3.5519,-3.5519,-3.5619,-3.5683,-3.5683,-3.5683,-3.5349,-3.4651,-3.4532,-3.3963,-3.2856,-3.2078,-3.1571,-3.1482,-3.1482,-3.1482,-3.1482,-3.1482,-3.1482,-3.1482,-3.1482,-3.1482,-3.1482,-3.1482,-3.1482,-3.1482,-3.1482,-3.1482,-3.1482,-3.1482,-3.1482,-3.1482,-3.1482,-3.1482,-3.1482,-3.1482,-3.1482,-3.1482,-3.1482,-3.1482,-3.1482,-3.1482,-3.1482,-3.1482,-3.1482,-3.1482,-3.1631,-3.2347,-3.2527,-3.2826,-3.4053,-3.4322,-3.4502,-3.507,-3.519,-3.519,-3.519,-3.4173,-3.3335,-3.3335,-3.2317,-3.133,-3.0731,0.0,-3.2198,-3.1691,-3.3155,-3.4203,-3.4322,-3.4412,-3.4891,-3.5938,-3.5699,-3.5968,-3.7045,-3.7195,-3.7464,-3.7943,-3.8033,-3.8422,-3.911,-3.908,-3.917,-3.9409,-3.929,-3.932,-3.9439,-4.0008,-3.9978,-3.9427,-4.0038,-3.9948,-3.9397,-3.9439,-3.9469,-3.9679,-4.0905,-4.1444,-4.1683,-4.288,-4.3329,-4.3329,-3.7793,-3.7375,-3.6926,-3.6926,-3.6956,-3.6746,-3.6058,-3.6267,-3.6237,-3.5579,-3.5519,-3.5519,-3.5519,-3.5519,-3.5519,-3.5519,-3.5519,-3.5519,-3.5519,-3.5519,-3.537,-3.504,-3.4681,-3.4023,-3.3066,-3.2407,-3.2048,-3.2048,-3.1719,-3.1482,-3.1482,-3.1482,-3.1482,-3.1482,-3.1482,-3.1482,-3.1482,-3.1482,-3.1482,-3.1482,-3.1482,-3.1482,-3.1482,-3.1482,-3.1482,-3.1482,-3.1482,-3.1482,-3.1482,-3.1482,-3.1779,-3.2048,-3.2048,-3.2048,-3.2048,-3.2048,-3.175,-3.1482,-3.1482,-3.1482,-3.1779,-3.2796,-3.3036,-3.3395,-3.4711,-3.504,-3.513,-3.5429,-3.5519,-3.5519,-3.5519,-3.4412,-3.3604,-3.3963,-3.2617,0.0,-3.2048,-3.2347,-3.2647,-3.3066,-3.3933,-3.4622,-3.4981,-3.504,-3.5429,-3.6417,-3.6207,-3.6596,-3.7853,-3.7943,-3.8242,-3.8931,-3.8931,-3.911,-3.9409,-3.9409,-3.9409,-3.9409,-3.9409,-3.9409,-3.9439,-3.9738,-3.9948,-4.0111,-3.9918,-3.9934,-4.0099,-3.9964,-4.0157,-4.0576,-4.1534,-4.1923,-4.2013,-4.297,-4.3329,-4.3329,-3.7793,-3.7165,-3.6447,-3.6297,-3.6656,-3.6626,-3.5669,-3.5938,-3.6088,-3.5579,-3.5519,-3.5519,-3.5519,-3.5519,-3.5519,-3.5519,-3.5519,-3.5519,-3.5519,-3.5519,-3.5519,-3.5519,-3.4831,-3.4233,-3.3724,-3.3095,-3.2677,-3.2527,-3.2018,-3.1631,-3.1482,-3.1482,-3.1482,-3.1482,-3.1482,-3.1482,-3.1482,-3.1482,-3.1482,-3.1482,-3.1482,-3.1482,-3.1482,-3.1482,-3.1482,-3.1482,-3.1482,-3.1482,-3.1482,-3.1482,-3.1869,-3.2287,-3.2287,-3.2287,-3.2317,-3.2467,-3.2258,-3.1958,-3.175,-3.1869,-3.2258,-3.3425,-3.3724,-3.4023,-3.522,-3.5519,-3.5519,-3.5519,-3.5519,-3.5519,-3.5519,-3.4532,-3.3873,-3.4382,0.0,-3.2347,0.0,-3.3185,-3.3335,-3.4352,-3.4622,-3.4921,-3.5459,-3.5639,-3.5998,-3.6656,-3.6836,-3.7434,-3.8571,-3.8631,-3.8871,-3.9409,-3.9409,-3.9409,-3.9409,-3.9516,-3.9606,-3.9606,-3.9785,-3.9845,-3.9888,-4.0008,-4.0187,-4.0397,-4.0157,-4.0293,-4.0726,-4.0621,-4.0935,-4.1444,-4.2102,-4.2372,-4.2432,-4.309,-4.3329,-4.3329,-3.6716,-3.6537,-3.6297,-3.5699,-3.5609,-3.5609,-3.5519,-3.5549,-3.5549,-3.5519,-3.5519,-3.5519,-3.5519,-3.5519,-3.5519,-3.5519,-3.5519,-3.5519,-3.5519,-3.5519,-3.5519,-3.5519,-3.4831,-3.4442,-3.4412,-3.3754,-3.3125,-3.2527,-3.2467,-3.2138,-3.1482,-3.1482,-3.1482,-3.1482,-3.1482,-3.1482,-3.1482,-3.1482,-3.1482,-3.1482,-3.1482,-3.1482,-3.1482,-3.1482,-3.1482,-3.1482,-3.1482,-3.1482,-3.1482,-3.1482,-3.1511,-3.1541,-3.1541,-3.1541,-3.1661,-3.2347,-3.2916,-3.3215,-3.2617,-3.2886,-3.3514,-3.4233,-3.4412,-3.4592,-3.534,-3.5519,-3.5519,-3.5519,-3.5519,-3.5519,-3.5519,-3.4891,-3.4412,-3.4472,0.0,0.0,-3.3484,-3.3963,-3.4352,-3.4472,-3.504,-3.5459,-3.5519,-3.6058,-3.6656,-3.7285,-3.7913,-3.8571,-3.932,-3.9349,-3.9379,-3.9409,-3.9409,-3.9409,-3.9409,-4.0054,-4.0308,-4.0338,-4.0948,-4.1262,-4.1265,-4.1637,-4.0948,-3.958,-4.1097,-4.1414,-4.071,-4.119,-4.1324,-4.1444,-4.2102,-4.2372,-4.2432,-4.309,-4.3329,-4.3329,-3.6537,-3.6148,-3.5789,-3.5549,-3.5519,-3.5519,-3.5519,-3.5519,-3.5519,-3.5519,-3.5519,-3.5519,-3.5519,-3.5519,-3.5519,-3.5519,-3.5519,-3.5519,-3.5519,-3.5519,-3.5519,-3.5519,-3.525,-3.513,-3.513,-3.4442,-3.3784,-3.3125,-3.2706,-3.2168,-3.1482,-3.1482,-3.1482,-3.1482,-3.1482,-3.1482,-3.1482,-3.1482,-3.1482,-3.1482,-3.1482,-3.1482,-3.1482,-3.1482,-3.1482,-3.1482,-3.1482,-3.1482,-3.1482,-3.1482,-3.2078,-3.2736,-3.2736,-3.3036,-3.3335,-3.3155,-3.3574,-3.4053,-3.3814,-3.3604,-3.3664,-3.4322,-3.4472,-3.4651,-3.534,-3.5519,-3.5519,-3.5519,-3.5519,-3.5519,-3.5519,-3.4951,-3.4622,-3.504,0.0,-3.3784,-3.4622,-3.4592,-3.4771,-3.5609,-3.5968,-3.6267,-3.6656,-3.6926,-3.7315,-3.7973,-3.8242,-3.8691,-3.9379,-3.9409,-3.9409,-3.9409,-3.9798,-3.9828,-3.9409,-4.0516,-4.0769,-4.0453,-4.1033,-4.1411,-4.1384,-4.1262,-4.0948,-4.0666,-4.1007,-4.1428,-4.179,-4.197,-4.2222,-4.2611,-4.288,-4.297,-4.3,-4.324,-4.3329,-4.3329,-3.6477,-3.5968,-3.5519,-3.5519,-3.5519,-3.5519,-3.5519,-3.5519,-3.5519,-3.5519,-3.5519,-3.5519,-3.5519,-3.5519,-3.5519,-3.5519,-3.5519,-3.5519,-3.5519,-3.5519,-3.5519,-3.5519,-3.5519,-3.5519,-3.5519,-3.504,-3.4472,-3.3814,-3.3335,-3.2677,-3.1839,-3.2048,-3.1928,-3.1482,-3.1691,-3.1661,-3.1482,-3.1482,-3.1482,-3.1482,-3.1482,-3.1482,-3.1482,-3.1482,-3.1482,-3.1482,-3.1482,-3.1482,-3.1482,-3.1482,-3.2258,-3.3185,-3.3185,-3.3784,-3.4382,-3.3933,-3.4292,-3.4801,-3.4801,-3.4472,-3.4233,-3.4681,-3.4801,-3.4921,-3.54,-3.5519,-3.5519,-3.5519,-3.5519,-3.5519,-3.5519,-3.513,-3.5011,-3.5699,-3.504,-3.4831,-3.5938,-3.5699,-3.5729,-3.6656,-3.6776,-3.6956,-3.7375,-3.7584,-3.7913,-3.8362,-3.8601,-3.902,-3.9679,-3.9529,-3.9619,-4.0008,-4.0501,-4.0457,-4.0054,-4.1175,-4.1364,-4.0676,-4.1566,-4.1978,-4.1983,-4.165,-4.1637,-4.1683,-4.156,-4.1876,-4.2372,-4.2581,-4.294,-4.3329,-4.3329,-4.3329,-4.3329,-4.3329,-4.3329,-4.3329,-3.6477,-3.5968,-3.5519,-3.5519,-3.5519,-3.5519,-3.5519,-3.5519,-3.5519,-3.5519,-3.5519,-3.5519,-3.5519,-3.5519,-3.5519,-3.5519,-3.5519,-3.5519,-3.5519,-3.5519,-3.5519,-3.5519,-3.5519,-3.5519,-3.5519,-3.5519,-3.516,-3.4472,-3.4472,-3.3814,-3.2527,-3.3185,-3.2796,-3.1511,-3.2228,-3.2138,-3.1482,-3.1482,-3.1482,-3.1482,-3.1482,-3.1482,-3.1482,-3.1482,-3.1482,-3.1482,-3.1482,-3.1482,-3.1482,-3.1482,-3.1988,-3.2527,-3.2527,-3.3425,-3.4472,-3.4472,-3.4981,-3.5519,-3.5519,-3.5519,-3.5519,-3.5519,-3.5519,-3.5519,-3.5519,-3.5519,-3.5519,-3.5519,-3.5519,-3.5519,-3.5519,-3.5519,-3.5729,-3.6387,-3.6507,-3.6716,-3.7315,-3.7404,-3.7404,-3.7434,-3.7434,-3.7434,-3.7434,-3.8033,-3.8392,-3.8392,-3.905,-3.9709,-4.0367,-3.9798,-4.0038,-4.1354,-4.1385,-4.14,-4.1377,-4.2055,-4.2079,-4.1469,-4.2654,-4.3329,-4.3329,-4.3329,-4.297,-4.2402,-4.306,-4.297,-4.2402,-4.306,-4.3329,-4.3329,-4.3329,-4.3329,-4.3329,-4.3329,-4.3329,-4.3329,-3.5789,-3.5639,-3.5519,-3.5519,-3.5519,-3.5519,-3.5519,-3.5519,-3.5519,-3.5519,-3.5519,-3.5519,-3.5519,-3.5519,-3.5519,-3.5519,-3.5519,-3.5519,-3.5519,-3.5519,-3.5519,-3.5519,-3.5519,-3.5133,-3.4476,-3.5133,-3.4599,-3.2844,-3.3981,-3.3814,-3.2527,-3.3185,-3.3036,-3.2228,-3.2437,-3.2138,-3.1482,-3.1482,-3.1482,-3.1482,-3.1482,-3.1482,-3.1482,-3.1482,-3.1482,-3.1541,-3.2048,-3.2228,-3.2287,-3.2766,-3.3335,-3.3993,-3.4472,-3.4891,-3.519,-3.519,-3.534,-3.5519,-3.5519,-3.5519,-3.5519,-3.5519,-3.5519,-3.5519,-3.5519,-3.5519,-3.5519,-3.5519,-3.5878,-3.6178,-3.6178,-3.6537,-3.6896,-3.7105,-3.7135,-3.7195,-3.7375,-3.7404,-3.7584,-3.8033,-3.8093,-3.8302,-3.8781,-3.9409,-3.9798,-3.9798,-4.0427,-4.0876,-4.1085,-4.0905,-4.0965,-4.1384,-4.185,-4.1893,-4.1377,-4.2503,-4.2753,-4.209,-4.2962,-4.3329,-4.3329,-4.3329,-4.324,-4.306,-4.324,-4.324,-4.306,-4.3269,-4.3329,-4.3329,-4.3329,-4.3329,-4.3329,-4.3329,-4.3329,-4.3329,-3.4839,-3.4905,-3.4905,-3.4905,-3.5228,-3.5228,-3.4476,-3.5001,-3.5228,-3.4476,-3.5001,-3.5228,-3.4409,-3.5067,-3.5359,-3.4905,-3.5294,-3.5519,-3.5519,-3.5519,-3.5294,-3.4905,-3.4905,-3.461,-3.4013,-3.4245,-3.3897,-3.2824,-3.382,-3.3976,-3.3305,-3.3993,-3.3784,-3.2916,-3.3185,-3.2916,-3.2287,-3.2048,-3.1928,-3.1928,-3.1928,-3.1928,-3.1958,-3.2198,-3.2317,-3.2347,-3.2766,-3.2916,-3.2976,-3.3365,-3.3933,-3.4592,-3.528,-3.5519,-3.5519,-3.5519,-3.5519,-3.5519,-3.5519,-3.5519,-3.5519,-3.5519,-3.5519,-3.5519,-3.5519,-3.5699,-3.5908,-3.5908,-3.6417,-3.6866,-3.6866,-3.7165,-3.7494,-3.7764,-3.7793,-3.7883,-3.8153,-3.8212,-3.8362,-3.8751,-3.902,-3.926,-3.9409,-4.0247,-4.0786,-4.0786,-4.1145,-4.1504,-4.1743,-4.1534,-4.1624,-4.2132,-4.2282,-4.2342,-4.2186,-4.2921,-4.2991,-4.2426,-4.2991,-4.3329,-4.3329,-4.3329,-4.3329,-4.3329,-4.3329,-4.3329,-4.3329,-4.3329,-4.3329,-4.3329,-4.3329,-4.3329,-4.3329,-4.3329,-4.3329,-4.3329,-3.3739,-3.3876,-3.3876,-3.3876,-3.461,-3.4639,-3.2876,-3.4109,-3.4639,-3.2806,-3.4109,-3.4572,-3.2806,-3.4177,-3.4839,-3.3945,-3.4773,-3.5424,-3.5519,-3.5424,-3.5001,-3.4013,-3.3808,-3.3739,-3.3739,-3.2947,-3.2919,-3.3654,-3.3848,-3.4126,-3.4345,-3.5126,-3.4831,-3.3604,-3.4203,-3.4113,-3.3455,-3.2856,-3.2587,-3.2587,-3.2527,-3.2557,-3.2647,-3.3215,-3.3455,-3.3514,-3.3574,-3.3574,-3.3604,-3.3664,-3.4083,-3.4681,-3.531,-3.5519,-3.5519,-3.5519,-3.5519,-3.5519,-3.5519,-3.5549,-3.5579,-3.5579,-3.5639,-3.5669,-3.5609,-3.6058,-3.6507,-3.6567,-3.7075,-3.7494,-3.7494,-3.7554,-3.7793,-3.8392,-3.8482,-3.8721,-3.9409,-3.9499,-3.9529,-3.9589,-4.0127,-4.0247,-3.9649,-4.0726,-4.1504,-4.1564,-4.1564,-4.1833,-4.2402,-4.1893,-4.2102,-4.3299,-4.2761,-4.2731,-4.3329,-4.3329,-4.3021,-4.2456,-4.3021,-4.3329,-4.3329,-4.3329,-4.3329,-4.3329,-4.3329,-4.3329,-4.3329,-4.3329,-4.3329,-4.3329,-4.3329,-4.3329,-4.3329,-4.3329,-4.3329,-4.3329,-3.2876,-3.2876,-3.2876,-3.2876,-3.3115,-3.3115,-3.2664,-3.2947,-3.3115,-3.2664,-3.2975,-3.3045,-3.2664,-3.2975,-3.3185,-3.2876,-3.3739,-3.4677,-3.5424,-3.4773,-3.4245,-3.4013,-3.2593,-3.1829,-3.1829,-3.2307,-3.2088,-3.0985,-3.3002,-3.3792,-3.3412,-3.4836,-3.507,-3.4262,-3.4412,-3.4113,-3.3484,-3.3335,-3.3275,-3.3245,-3.2706,-3.2826,-3.3245,-3.2856,-3.3036,-3.3574,-3.4083,-3.4262,-3.4352,-3.4891,-3.516,-3.531,-3.5459,-3.5519,-3.5519,-3.5519,-3.5519,-3.5519,-3.5519,-3.5878,-3.6267,-3.6267,-3.6626,-3.6866,-3.6387,-3.6387,-3.6626,-3.7105,-3.7734,-3.8182,-3.8182,-3.8601,-3.902,-3.917,-3.92,-3.9439,-4.0098,-4.0187,-4.0367,-4.0876,-4.1085,-4.1115,-4.0965,-4.1683,-4.2372,-4.288,-4.291,-4.297,-4.312,-4.3,-4.303,-4.3329,-4.318,-4.318,-4.3329,-4.3329,-4.322,-4.313,-4.322,-4.3329,-4.3329,-4.3329,-4.3329,-4.3329,-4.3329,-4.3329,-4.3329,-4.3329,-4.3329,-4.3329,-4.3329,-4.3329,-4.3329,-4.3329,-4.3329,-4.3329,-3.1829,-3.1947,-3.1947,-3.1947,-3.2307,-3.2307,-3.1415,-3.2046,-3.2236,-3.1415,-3.2046,-3.2236,-3.1341,-3.2046,-3.2593,-3.2593,-3.3905,-3.4773,-3.4773,-3.4312,-3.3808,-3.3394,-3.1947,-3.097,-3.057,-3.097,-3.1035,-3.0645,-3.2027,-3.2947,-3.3581,-3.4397,-3.486,-3.4981,-3.4981,-3.4771,-3.4442,-3.4113,-3.3963,-3.3933,-3.3604,-3.3664,-3.3963,-3.3933,-3.4143,-3.4502,-3.4831,-3.4981,-3.5011,-3.537,-3.5519,-3.5519,-3.5519,-3.5519,-3.5519,-3.5519,-3.5519,-3.5579,-3.5878,-3.6237,-3.6567,-3.6866,-3.7165,-3.7315,-3.7015,-3.7165,-3.7584,-3.8242,-3.8901,-3.9439,-3.9768,-4.0127,-4.0337,-4.0337,-4.0337,-4.0487,-4.0816,-4.0876,-4.0995,-4.1354,-4.1654,-4.1983,-4.2282,-4.2342,-4.2641,-4.3269,-4.3329,-4.3329,-4.3329,-4.3329,-4.3329,-4.3329,-4.3329,-4.3329,-4.3329,-4.3329,-4.3329,-4.3329,-4.3329,-4.3329,-4.3329,-4.3329,-4.3329,-4.3329,-4.3329,-4.3329,-4.3329,-4.3329,-4.3329,-4.3329,-4.3329,-4.3329,-4.3329,-4.3329,-4.3329,-4.3329,-3.0846,-3.097,-3.097,-3.097,-3.1609,-3.1636,-3.0088,-3.1119,-3.1536,-3.0011,-3.1145,-3.1563,-3.0011,-3.1193,-3.2191,-3.2307,-3.3837,-3.4476,-3.3808,-3.3602,-3.3157,-3.2379,-3.1462,-3.062,-2.9779,-2.9804,-3.0216,-3.097,-3.1093,-3.2019,-3.3533,-3.3876,-3.4447,-3.5264,-3.5424,-3.5519,-3.5459,-3.4891,-3.4651,-3.4651,-3.4532,-3.4532,-3.4711,-3.516,-3.54,-3.5519,-3.5519,-3.5519,-3.5519,-3.5519,-3.5519,-3.5519,-3.5519,-3.5519,-3.5519,-3.5519,-3.5579,-3.5789,-3.6327,-3.6656,-3.6926,-3.7464,-3.7674,-3.7764,-3.7883,-3.8153,-3.8631,-3.9409,-4.0008,-4.0606,-4.1265,-4.1384,-4.1384,-4.1384,-4.1384,-4.1414,-4.1534,-4.1564,-4.1594,-4.1713,-4.2192,-4.2731,-4.3269,-4.2851,-4.2761,-4.3299,-4.3329,-4.3329,-4.3329,-4.3329,-4.3329,-4.3329,-4.3329,-4.3329,-4.3329,-4.3329,-4.3329,-4.3329,-4.3329,-4.328,-4.331,-4.331,-4.331,-4.331,-4.328,-4.3329,-4.3329,-4.3329,-4.3329,-4.3329,-4.3329,-4.3329,-4.3329,-4.3329,-4.3329,-4.3329,-2.9934,-3.0011,-3.0011,-3.0011,-3.0062,-3.0062,-2.9856,-3.0011,-3.0062,-2.9856,-3.0011,-3.0088,-2.9856,-3.0011,-3.0495,-3.1315,-3.1609,-3.2046,-3.2735,-3.2019,-3.1536,-3.1389,-3.0495,-2.9934,-2.9804,-2.9804,-2.9856,-3.0011,-3.0846,-3.1315,-3.1609,-3.3227,-3.4081,-3.4245,-3.5133,-3.5519,-3.5489,-3.54,-3.537,-3.531,-3.4711,-3.4831,-3.531,-3.4801,-3.4981,-3.5519,-3.5519,-3.5519,-3.5519,-3.5519,-3.5519,-3.5519,-3.5519,-3.5519,-3.5519,-3.5519,-3.5908,-3.6357,-3.6477,-3.7285,-3.8153,-3.8242,-3.8691,-3.929,-3.9858,-3.917,-3.8751,-4.0008,-4.0337,-4.0606,-4.1265,-4.1384,-4.1384,-4.1384,-4.1384,-4.1564,-4.2162,-4.2222,-4.2432,-4.3,-4.315,-4.324,-4.3329,-4.3269,-4.324,-4.3329,-4.3329,-4.3329,-4.3329,-4.3329,-4.3329,-4.3329,-4.3329,-4.3329,-4.3329,-4.3329,-4.3329,-4.3329,-4.3329,-4.3289,-4.3286,-4.3286,-4.3286,-4.3256,-4.326,-4.3329,-4.3329,-4.3329,-4.3329,-4.3329,-4.3329,-4.3329,-4.3329,-4.3329,-4.3329,-4.3329,-2.9804,-2.9804,-2.9804,-2.9804,-2.9804,-2.9804,-2.9804,-2.9804,-2.9804,-2.9804,-2.9804,-2.9804,-2.9804,-3.0292,-3.057,-3.0419,-3.1389,-3.1947,-3.1829,-3.1462,-3.1167,-3.1167,-3.0266,-2.9804,-2.9804,-2.9804,-2.9804,-2.9804,-3.0216,-3.0696,-3.1241,-3.2593,-3.3533,-3.4013,-3.5067,-3.5519,-3.5519,-3.5519,-3.5519,-3.5489,-3.519,-3.525,-3.5459,-3.516,-3.525,-3.5519,-3.5519,-3.5519,-3.5519,-3.5519,-3.5519,-3.5519,-3.5519,-3.5519,-3.5579,-3.5938,-3.6267,-3.6656,-3.7345,-3.7973,-3.8571,-3.932,-3.9738,-4.0127,-4.0786,-4.0487,-4.0337,-4.1294,-4.1504,-4.1683,-4.2342,-4.2462,-4.2462,-4.2462,-4.2462,-4.2581,-4.2851,-4.291,-4.3,-4.3299,-4.3329,-4.3329,-4.3329,-4.3329,-4.3329,-4.3329,-4.3329,-4.3479,-4.3868,-4.3539,-4.3509,-4.3868,-4.3539,-4.3329,-4.3329,-4.3329,-4.3329,-4.3329,-4.3778,-4.3847,-4.3345,-4.4347,-4.4287,-4.3345,-4.3847,-4.3748,-4.3329,-4.3329,-4.3329,-4.3329,-4.3329,-4.3329,-4.3329,-4.3329,-4.3329,-4.3329]}]]